[[[{"header":{"parameterUnit":"kt","parameterCategory":2,"dx":1,"dy":1,"la1":29.285339999999998,"la2":30.599998999999997,"lo1":-89.70041500000002,"lo2":-87.6738589999976,"nx":112,"ny":82,"refTime":"2022-09-24T12:00:00:Z","depth":0,"parameterNumber":1,"parameterNumberName":"U-component_of_WINDS"},"data":[19.3698,19.4602,0.0,18.9181,18.9463,0.0,18.4454,0.0,0.0,0.0,0.0,0.0,0.0,0.0,0.0,0.0,0.0,0.0,0.0,17.4489,17.3183,17.3183,17.6984,18.0375,18.2319,18.9465,19.42,19.4746,20.0613,20.3917,20.3488,20.2552,20.293,20.4854,20.3917,20.4294,20.5676,20.6629,20.7188,20.7813,20.7813,20.7813,20.7813,20.7813,20.9375,21.2236,21.2236,21.3797,21.6559,21.6559,21.6559,21.6559,21.6559,21.6559,21.6559,21.6559,21.6559,21.6559,21.6559,21.6559,21.6559,21.6559,21.6559,21.6559,21.6559,21.6559,21.6559,21.6559,21.794,21.965,22.0619,22.218,22.3955,22.4942,22.5121,22.5121,22.5121,22.5121,22.5121,22.5121,22.5121,22.5121,22.5121,22.5121,22.5121,22.5121,22.5121,22.5121,22.5121,22.5121,22.5121,22.5121,22.5121,22.5319,22.5862,22.7261,22.8791,23.0136,23.1123,23.1685,23.1685,23.1685,23.1685,23.1685,23.2295,23.2869,23.3826,23.3826,23.3826,23.3826,23.3826,23.3826,0.0,0.0,18.9583,18.4394,0.0,0.0,0.0,0.0,0.0,0.0,0.0,0.0,0.0,0.0,0.0,0.0,0.0,0.0,0.0,17.4565,17.418,17.3975,17.9074,18.3217,18.4635,19.2227,19.6714,19.5535,20.1781,20.5051,20.3538,20.316,20.3538,20.4903,20.4525,20.4706,20.5676,20.6991,20.7813,20.7813,20.7813,20.7813,20.7813,20.7813,20.9375,21.2236,21.2236,21.3797,21.6559,21.6559,21.6559,21.6559,21.6559,21.6559,21.6559,21.6559,21.6559,21.6559,21.6559,21.6559,21.6559,21.6559,21.6559,21.6559,21.6559,21.6559,21.6559,21.6559,21.7546,21.9093,22.0422,22.1786,22.3333,22.4727,22.5121,22.5121,22.5121,22.5121,22.5121,22.5121,22.5121,22.5121,22.5121,22.5121,22.5121,22.5121,22.5121,22.5121,22.5121,22.5121,22.5121,22.5121,22.5121,22.5121,22.5121,22.591,22.7261,22.8606,23.0531,23.1488,23.0925,23.1488,23.1685,23.1685,23.1685,23.2493,23.3826,23.3826,23.3826,23.3826,23.3826,23.3826,0.0,0.0,0.0,17.9023,0.0,0.0,0.0,0.0,18.1055,0.0,0.0,0.0,18.5178,18.547,0.0,0.0,18.0748,0.0,0.0,17.4885,17.63,17.5705,18.069,18.4767,18.6359,19.295,19.7093,19.7322,20.2568,20.5051,20.3538,20.487,20.4903,20.3505,20.4854,20.5626,20.5626,20.7007,20.7813,20.7813,20.7813,20.7813,20.7813,20.7813,20.9375,21.2236,21.2236,21.3797,21.6559,21.6559,21.6559,21.6559,21.6559,21.6559,21.6559,21.6559,21.6559,21.6559,21.6559,21.6559,21.6559,21.6559,21.6559,21.6559,21.6559,21.6559,21.6559,21.6559,21.748,21.8861,22.0422,22.1786,22.3351,22.4727,22.5121,22.5121,22.5121,22.5121,22.5121,22.5121,22.5121,22.5121,22.5121,22.5121,22.5121,22.5121,22.5121,22.5121,22.5121,22.5121,22.5121,22.5121,22.5121,22.5121,22.5121,22.5121,22.5647,22.7046,22.9957,23.1111,22.9778,23.0943,23.1685,23.1685,23.1685,23.2511,23.3826,23.3826,23.3826,23.3826,23.3826,23.3826,17.6268,0.0,0.0,0.0,0.0,0.0,0.0,0.0,0.0,0.0,18.1407,0.0,0.0,0.0,18.5037,18.37,0.0,18.2387,17.8086,17.9502,18.1171,18.1618,18.4043,18.7397,19.1999,19.6126,19.9035,20.0216,20.3506,20.5051,20.3538,20.2946,20.2339,20.196,20.3341,20.408,20.408,20.6645,20.7813,20.7813,20.7813,20.7813,20.7813,20.7813,20.9375,21.2236,21.2236,21.3797,21.6559,21.6559,21.6559,21.6559,21.6559,21.6559,21.6559,21.6559,21.6559,21.6559,21.6559,21.6559,21.6559,21.6559,21.6559,21.6559,21.6559,21.6559,21.6559,21.6559,21.674,21.7677,22.0242,22.0979,22.1983,22.453,22.5121,22.5121,22.5121,22.5121,22.5121,22.5121,22.5121,22.5121,22.5121,22.5121,22.5121,22.5121,22.5121,22.5121,22.5121,22.5121,22.5121,22.5121,22.5121,22.5121,22.5121,22.5121,22.5253,22.5665,22.8409,23.0567,23.1159,23.1488,23.1685,23.1685,23.1685,23.1882,23.2277,23.3263,23.3826,23.3826,23.3826,23.3826,0.0,0.0,0.0,0.0,0.0,0.0,0.0,0.0,17.6217,18.0009,0.0,0.0,0.0,0.0,0.0,0.0,18.2875,18.2455,17.7625,18.0069,18.2818,18.3939,18.641,18.9581,19.3512,19.7128,19.9824,20.1205,20.293,20.3522,20.2715,20.1747,20.1187,20.0416,20.1976,20.2962,20.3505,20.5856,20.7221,20.7813,20.7813,20.7813,20.7813,20.7813,20.9375,21.2236,21.2236,21.3797,21.6559,21.6559,21.6559,21.6559,21.6559,21.6559,21.6559,21.6559,21.6559,21.6559,21.6559,21.6559,21.6559,21.6559,21.6559,21.6559,21.6559,21.6559,21.6559,21.6559,21.6559,21.7151,21.9238,21.9813,22.0619,22.3513,22.4135,22.4332,22.4906,22.5121,22.5121,22.5121,22.5121,22.5121,22.5121,22.5121,22.5121,22.5121,22.5121,22.5121,22.5121,22.5121,22.5121,22.5121,22.5121,22.5121,22.5121,22.5121,22.5121,22.5121,22.6633,22.8624,23.0764,23.1338,23.1685,23.1685,23.1159,23.1159,23.1685,23.2474,23.3282,23.3826,23.3826,23.3826,0.0,0.0,0.0,0.0,17.103,0.0,0.0,0.0,17.6146,18.0853,0.0,18.2581,18.5353,0.0,0.0,17.7486,18.0612,18.1735,17.5689,17.9521,18.3415,18.4898,18.8449,19.121,19.2556,19.6699,19.9808,20.1581,20.1384,20.1155,20.1368,20.1221,20.0579,19.9217,20.0629,20.2189,20.3505,20.4887,20.6432,20.7813,20.7813,20.7813,20.7813,20.7813,20.9375,21.2236,21.2236,21.3797,21.6559,21.6559,21.6559,21.6559,21.6559,21.6559,21.6559,21.6559,21.6559,21.6559,21.6559,21.6559,21.6559,21.6559,21.6559,21.6559,21.6559,21.6559,21.6559,21.6559,21.6559,21.6905,21.8286,21.8698,21.9439,22.2,22.2789,22.3333,22.453,22.4906,22.5121,22.5121,22.5121,22.5121,22.5121,22.5121,22.5121,22.5121,22.5121,22.5121,22.5121,22.5121,22.5121,22.5121,22.5121,22.5121,22.5121,22.5121,22.5121,22.5121,22.5121,22.6454,22.9395,23.0746,23.1488,23.1685,23.0567,23.0333,23.1685,23.1685,23.2493,23.3826,23.3826,23.3826,0.0,0.0,0.0,0.0,0.0,17.2166,0.0,0.0,0.0,18.734,18.7847,18.7569,18.8274,18.698,18.5333,18.4033,18.4294,18.4192,18.2842,18.6242,18.9384,19.0831,19.1686,19.2358,19.2621,19.6699,20.0382,20.2962,20.0973,20.0234,20.1384,20.0219,19.9414,19.9232,20.0629,20.2189,20.3505,20.4887,20.6432,20.7813,20.7813,20.7813,20.7813,20.7813,20.9375,21.2236,21.2236,21.3797,21.6559,21.6559,21.6559,21.6559,21.6559,21.6559,21.6559,21.6559,21.6559,21.6559,21.6559,21.6559,21.6559,21.6559,21.6559,21.6559,21.6559,21.6559,21.6559,21.6559,21.6559,21.6905,21.8286,21.8698,21.9058,22.0817,22.2149,22.2987,22.3333,22.4302,22.5121,22.5121,22.5121,22.5121,22.5121,22.5121,22.5121,22.5121,22.5121,22.5121,22.5121,22.5121,22.5121,22.5121,22.5121,22.5121,22.5121,22.5121,22.5121,22.5121,22.5121,22.6454,22.9395,22.9742,23.0549,23.1685,23.1506,23.1506,23.1685,23.1685,23.2493,23.3826,23.3826,23.3826,0.0,0.0,0.0,16.4478,0.0,0.0,0.0,17.8591,18.4011,18.715,18.8424,18.9059,18.9094,18.8256,18.6788,18.4633,18.6788,18.8491,18.7795,18.9304,19.0765,19.1473,19.2212,19.295,19.3643,19.6324,19.9411,20.2141,20.1171,20.0382,20.0203,19.9627,19.9232,19.9232,20.0053,20.0958,20.2339,20.3883,20.5298,20.6843,20.7402,20.7813,20.7813,20.7813,20.9375,21.2236,21.2236,21.3797,21.6559,21.6559,21.6559,21.6559,21.6559,21.6559,21.6559,21.6559,21.6559,21.6559,21.6559,21.6559,21.6559,21.6559,21.6559,21.6559,21.6559,21.6559,21.6559,21.6559,21.6559,21.6757,21.7514,21.7529,21.794,21.947,22.0817,22.1983,22.2789,22.4105,22.5121,22.5121,22.5121,22.5121,22.5121,22.5121,22.5121,22.5121,22.5121,22.5121,22.5121,22.5121,22.5121,22.5121,22.5121,22.5121,22.5121,22.5121,22.5121,22.5121,22.5121,22.6454,22.9395,22.9544,23.0549,23.2672,23.2098,23.1685,23.1685,23.1685,23.2493,23.3826,23.3826,23.3826,0.0,0.0,0.0,0.0,16.6915,0.0,17.3071,17.9285,18.5148,18.7643,18.9633,19.0723,18.9967,18.9828,18.8557,18.449,18.8636,19.209,19.1048,19.0684,19.0619,19.0882,19.1949,19.3198,19.4599,19.6502,19.8474,20.0776,20.1221,20.0776,19.9217,19.9232,19.9232,19.9232,19.9232,20.0053,20.1368,20.2749,20.4278,20.5676,20.6991,20.7813,20.7813,20.7813,20.9375,21.2236,21.2236,21.3797,21.6559,21.6559,21.6559,21.6559,21.6559,21.6559,21.6559,21.6559,21.6559,21.6559,21.6559,21.6559,21.6559,21.6559,21.6559,21.6559,21.6559,21.6559,21.6559,21.6559,21.6559,21.6559,21.6559,21.6559,21.674,21.794,21.9668,22.1229,22.2364,22.3907,22.5121,22.5121,22.5121,22.5121,22.5121,22.5121,22.5121,22.5121,22.5121,22.5121,22.5121,22.5121,22.5121,22.5121,22.5121,22.5121,22.5121,22.5121,22.5121,22.5121,22.5121,22.6239,22.8953,22.9347,23.0746,23.3432,23.2474,23.208,23.208,23.208,23.2672,23.3826,23.3826,23.3826,0.0,0.0,0.0,16.2506,16.6915,0.0,18.02,18.5711,19.0941,19.6736,19.7467,19.633,19.3004,19.2445,19.1396,18.8241,19.0045,19.192,19.2355,19.1276,19.0947,19.2227,19.2556,19.3198,19.4599,19.731,19.9019,19.9429,20.0613,20.0776,19.9217,19.9232,19.9232,19.9232,19.9232,20.0053,20.1368,20.2749,20.4278,20.5676,20.6991,20.7813,20.7813,20.7813,20.9375,21.2236,21.2236,21.3797,21.6559,21.6559,21.6559,21.6559,21.6559,21.6559,21.6559,21.6559,21.6559,21.6559,21.6559,21.6559,21.6559,21.6559,21.6559,21.6559,21.6559,21.6559,21.6559,21.6559,21.6559,21.6559,21.6559,21.6559,21.6542,21.6757,21.8844,22.0799,22.0997,22.3149,22.5121,22.5121,22.5121,22.5121,22.5121,22.5121,22.5121,22.5121,22.5121,22.5121,22.5121,22.5121,22.5121,22.5121,22.5121,22.5121,22.5121,22.5121,22.5121,22.5121,22.5121,22.5862,22.7458,22.8821,23.0352,23.1882,23.3084,23.3629,23.3629,23.3629,23.3676,23.3826,23.3826,23.3826,0.0,0.0,16.2506,16.3422,0.0,0.0,17.9436,18.6837,19.3325,19.4955,19.6326,19.6554,19.4932,19.4797,19.3773,19.0777,19.2888,19.4105,19.1729,19.0882,19.0684,19.1291,19.2854,19.4103,19.4746,19.7507,19.9232,19.9232,19.984,19.9808,19.9217,19.9232,19.9232,19.9232,19.9232,19.9414,20.0184,20.2355,20.3899,20.4475,20.6613,20.7813,20.7813,20.7813,20.9375,21.2236,21.2236,21.3797,21.6559,21.6559,21.6559,21.6559,21.6559,21.6559,21.6559,21.6559,21.6559,21.6559,21.6559,21.6559,21.6559,21.6559,21.6559,21.6559,21.6559,21.6559,21.6559,21.6559,21.6559,21.6559,21.6559,21.6559,21.6559,21.6559,21.8695,22.0799,22.0799,22.3184,22.5121,22.5121,22.5121,22.5121,22.5121,22.5121,22.5121,22.5121,22.5121,22.5121,22.5121,22.5121,22.5121,22.5121,22.5121,22.5121,22.5121,22.5121,22.5121,22.5121,22.5121,22.5713,22.7213,22.7835,22.8989,23.0333,23.1882,23.2708,23.2708,23.2708,23.2708,23.2708,23.2708,23.3084,15.5299,0.0,0.0,0.0,0.0,0.0,18.0934,18.8467,19.4581,19.3877,19.5134,19.632,19.6103,19.6539,19.631,19.4402,19.5918,19.593,19.196,19.087,19.0487,19.0487,19.3036,19.4599,19.422,19.7275,19.9019,19.864,19.9035,19.9232,19.9232,19.9232,19.9232,19.9232,19.9232,19.9232,19.9232,20.2173,20.3505,20.3488,20.6448,20.7813,20.7813,20.7813,20.9375,21.2236,21.2236,21.3797,21.6559,21.6559,21.6559,21.6559,21.6559,21.6559,21.6559,21.6559,21.6559,21.6559,21.6559,21.6559,21.6559,21.6559,21.6559,21.6559,21.6559,21.6559,21.6559,21.6559,21.6559,21.6559,21.6559,21.6559,21.6559,21.6559,21.8467,22.0457,22.0834,22.2772,22.4547,22.4547,22.4876,22.5121,22.5121,22.5121,22.5121,22.5121,22.5121,22.5121,22.5121,22.5121,22.5121,22.5121,22.5121,22.5121,22.5121,22.5121,22.5121,22.5121,22.5121,22.5498,22.6669,22.7064,22.7787,22.8989,23.0352,23.129,23.1685,23.1685,23.1882,23.2295,23.1882,23.2295,0.0,0.0,0.0,16.7891,17.3734,18.0361,18.8055,19.2339,19.5133,19.6693,19.7072,19.6878,19.6118,19.7895,19.9603,20.0247,19.8684,19.6507,19.4075,19.1858,19.0487,19.0487,19.3036,19.422,19.2819,19.6683,19.8656,19.7322,19.8459,19.9232,19.9232,19.9232,19.9232,19.9232,19.9232,19.9232,19.9232,20.2173,20.3505,20.3488,20.6448,20.7813,20.7813,20.7813,20.9375,21.2236,21.2236,21.3797,21.6559,21.6559,21.6559,21.6559,21.6559,21.6559,21.6559,21.6559,21.6559,21.6559,21.6559,21.6559,21.6559,21.6559,21.6559,21.6559,21.6559,21.6559,21.6559,21.6559,21.6559,21.6559,21.6559,21.6559,21.6559,21.6559,21.7695,21.9058,22.0471,22.2,22.2987,22.2987,22.4153,22.5121,22.5121,22.5121,22.5121,22.5121,22.5121,22.5121,22.5121,22.5121,22.5121,22.5121,22.5121,22.5121,22.5121,22.5121,22.5121,22.5121,22.5121,22.5104,22.5104,22.6454,22.7243,22.7243,22.8821,23.0352,23.1685,23.1685,23.2493,23.3845,23.2277,23.1667,15.8836,16.2638,16.6792,17.2345,17.847,18.4052,18.7713,19.1776,19.4944,19.5345,19.5556,19.6146,19.7903,19.8889,19.9612,20.0404,19.8679,19.652,19.4105,19.1902,19.0487,19.0487,19.2212,19.3132,19.2672,19.5778,19.7716,19.7109,19.8474,19.9232,19.9232,19.9232,19.9232,19.9232,19.9232,19.9232,19.9232,20.2173,20.3505,20.3488,20.6448,20.7813,20.7813,20.7813,20.9375,21.2236,21.2236,21.3797,21.6559,21.6559,21.6559,21.6559,21.6559,21.6559,21.6559,21.6559,21.6559,21.6559,21.6559,21.6559,21.6559,21.6559,21.6559,21.6559,21.6559,21.6559,21.6559,21.6559,21.6559,21.6559,21.6559,21.6559,21.6559,21.6559,21.7712,21.8896,21.9256,22.0405,22.1803,22.2741,22.4087,22.5121,22.5121,22.5121,22.5121,22.5121,22.5121,22.5121,22.5121,22.5121,22.5121,22.5121,22.5121,22.5121,22.5121,22.5121,22.5121,22.5121,22.5121,22.5121,22.5121,22.5498,22.5862,22.5862,22.7243,22.8229,22.8791,22.8791,22.9581,23.0925,23.0567,23.037,15.9901,16.4196,16.8684,17.6006,18.207,18.7009,18.9674,19.3043,19.5334,19.4944,19.4792,19.5718,19.8849,19.9412,19.9858,20.082,19.8839,19.6718,19.5332,19.2388,19.0487,19.0487,19.1751,19.2424,19.1883,19.4974,19.6912,19.6304,19.8049,19.9232,19.9232,19.9232,19.9232,19.9232,19.9232,19.9232,19.9232,20.2173,20.3505,20.3488,20.6448,20.7813,20.7813,20.7813,20.9375,21.2236,21.2236,21.3797,21.6559,21.6559,21.6559,21.6559,21.6559,21.6559,21.6559,21.6559,21.6559,21.6559,21.6559,21.6559,21.6559,21.6559,21.6559,21.6559,21.6559,21.6559,21.6559,21.6559,21.6559,21.6559,21.6559,21.6559,21.6559,21.6559,21.73,21.7892,21.7892,21.9076,22.0422,22.1969,22.3381,22.4481,22.5073,22.5121,22.5121,22.5121,22.5121,22.5121,22.5121,22.5121,22.5121,22.5121,22.5121,22.5121,22.5121,22.5121,22.5121,22.5121,22.5121,22.5121,22.5121,22.5121,22.5121,22.5121,22.6077,22.6633,22.7261,22.7261,22.8032,22.9544,22.8953,22.9018,15.9074,16.3914,16.9669,17.8741,18.4454,18.904,19.3606,19.5929,19.6541,19.5155,19.4792,19.5718,19.8686,19.9423,19.9813,20.135,19.9252,19.7513,19.7314,19.349,19.0637,19.0502,19.1686,19.2015,19.0619,19.4331,19.632,19.4958,19.7523,19.9248,19.9232,19.9232,19.9232,19.9232,19.9232,19.9232,19.9232,20.196,20.3357,20.3488,20.6448,20.7813,20.7813,20.7813,20.9375,21.2236,21.2236,21.3797,21.6559,21.6559,21.6559,21.6559,21.6559,21.6559,21.6559,21.6559,21.6559,21.6559,21.6559,21.6559,21.6559,21.6559,21.6559,21.6559,21.6559,21.6559,21.6559,21.6559,21.6559,21.6559,21.6559,21.6559,21.6559,21.6559,21.6559,21.6559,21.6559,21.7529,21.9093,22.0422,22.1952,22.3381,22.4727,22.5073,22.5121,22.5121,22.5121,22.5121,22.5121,22.5121,22.5121,22.5121,22.5121,22.5121,22.5121,22.5121,22.5121,22.5121,22.5121,22.5121,22.5121,22.5121,22.5121,22.5121,22.5121,22.5695,22.7028,22.7028,22.8002,22.9347,22.7835,22.7984,16.3828,17.0303,17.5452,18.2503,18.6928,19.0167,19.248,19.4229,19.5133,19.4781,19.4792,19.5355,19.7327,19.8686,19.9813,20.135,20.0617,19.9215,19.7468,19.4797,19.2344,19.0712,19.0816,19.0897,19.0553,19.249,19.4053,19.4746,19.6536,19.8064,19.9248,19.9232,19.9232,19.9232,19.9232,19.9232,19.9232,20.0037,20.1352,20.3488,20.6448,20.7813,20.7813,20.7813,20.9375,21.2236,21.2236,21.3797,21.6559,21.6559,21.6559,21.6559,21.6559,21.6559,21.6559,21.6559,21.6559,21.6559,21.6559,21.6559,21.6559,21.6559,21.6559,21.6559,21.6559,21.6559,21.6559,21.6559,21.6559,21.6559,21.6559,21.6559,21.6559,21.6559,21.6559,21.6559,21.6559,21.674,21.748,21.8844,22.1229,22.3153,22.3364,22.4332,22.5121,22.5121,22.5121,22.5121,22.5121,22.5121,22.5121,22.5121,22.5121,22.5121,22.5121,22.5121,22.5121,22.5121,22.5121,22.5121,22.5121,22.5121,22.5121,22.5121,22.5121,22.5253,22.5665,22.5665,22.6472,22.7853,22.6239,22.6454,16.1758,17.0012,17.7775,18.4766,18.8276,19.072,19.2973,19.4159,19.4792,19.4792,19.4792,19.4993,19.5908,19.7327,19.8827,20.0387,20.0052,19.9029,19.7478,19.5346,19.2982,19.0801,19.0487,19.0487,19.0487,19.1817,19.3264,19.4584,19.6142,19.7685,19.9248,19.9232,19.9232,19.9232,19.9232,19.9232,19.9232,19.9232,20.0432,20.2552,20.5429,20.7221,20.7813,20.7813,20.8964,21.1282,21.189,21.3634,21.5605,21.6362,21.6559,21.6559,21.6559,21.6559,21.6559,21.6559,21.6559,21.6559,21.6559,21.6559,21.6559,21.6559,21.6559,21.6559,21.6559,21.6559,21.6559,21.6559,21.6559,21.6559,21.6559,21.6559,21.6559,21.6559,21.6559,21.6559,21.6559,21.6559,21.674,21.7546,21.9453,22.1409,22.2759,22.3561,22.4332,22.5073,22.5121,22.5121,22.5121,22.5121,22.5121,22.5121,22.5121,22.5121,22.5121,22.5121,22.5121,22.5121,22.5121,22.5121,22.5121,22.5121,22.5121,22.5121,22.5121,22.5121,22.5121,22.5121,22.5516,22.6257,22.545,22.5516,15.7692,16.6703,17.6931,18.5389,18.8829,19.0931,19.4088,19.4792,19.4792,19.4792,19.4792,19.4792,19.4792,19.6141,19.7689,19.9271,19.9084,19.8441,19.7863,19.5727,19.3413,19.1175,19.0697,19.0487,19.0487,19.162,19.2986,19.4584,19.5945,19.7472,19.9248,19.9232,19.9232,19.9232,19.9232,19.9232,19.9232,19.9232,20.0037,20.1352,20.3917,20.5873,20.7632,20.7829,20.8569,20.9917,21.1265,21.286,21.4404,21.5753,21.6345,21.6559,21.6559,21.6559,21.6559,21.6559,21.6559,21.6559,21.6559,21.6559,21.6559,21.6559,21.6559,21.6559,21.6559,21.6559,21.6559,21.6559,21.6559,21.6559,21.6559,21.6559,21.6559,21.6559,21.6559,21.6559,21.6559,21.6559,21.6559,21.6559,21.748,21.9273,22.1969,22.2544,22.3184,22.4512,22.4876,22.4942,22.5121,22.5121,22.5121,22.5121,22.5121,22.5121,22.5121,22.5121,22.5121,22.5121,22.5121,22.5121,22.5121,22.5121,22.5121,22.5121,22.5121,22.5121,22.5121,22.5121,22.5121,22.5121,22.5121,22.5121,16.2489,16.6924,17.1298,18.2925,18.7995,19.0931,19.4088,19.4792,19.4792,19.4792,19.4792,19.4792,19.4792,19.6141,19.7689,19.9271,20.0391,20.0795,20.0193,19.8077,19.5713,19.3498,19.158,19.0487,19.0487,19.075,19.1934,19.4599,19.4993,19.6324,19.9019,19.9232,19.9232,19.9232,19.9232,19.9232,19.9232,19.9232,20.0037,20.1368,20.1976,20.3522,20.6071,20.7205,20.8569,20.9933,21.0114,21.1857,21.4421,21.4602,21.5408,21.6559,21.6559,21.6559,21.6559,21.6559,21.6559,21.6559,21.6559,21.6559,21.6559,21.6559,21.6559,21.6559,21.6559,21.6559,21.6559,21.6559,21.6559,21.6559,21.6559,21.6559,21.6559,21.6559,21.6559,21.6559,21.6559,21.6559,21.6559,21.6559,21.6757,21.7497,21.9058,22.0439,22.1588,22.3136,22.3333,22.371,22.4924,22.5121,22.5121,22.5121,22.5121,22.5121,22.5121,22.5121,22.5121,22.5121,22.5121,22.5121,22.5121,22.5121,22.5121,22.5121,22.5121,22.5121,22.5121,22.5121,22.5121,22.5121,22.5121,22.5121,16.0103,16.622,17.2143,17.8912,18.5379,19.0931,19.4088,19.4792,19.4993,19.5767,19.5355,19.4792,19.4792,19.5345,19.6704,19.906,20.0046,20.0397,20.0588,19.8073,19.5542,19.3982,19.121,18.9647,19.0421,19.0487,19.1342,19.3512,19.4351,19.5732,19.8095,19.8853,19.9232,19.9232,19.9232,19.9232,19.9232,19.9232,19.9642,20.0219,20.1023,20.2568,20.4672,20.6021,20.7386,20.875,20.9522,21.0706,21.2251,21.3846,21.4816,21.5573,21.6131,21.6559,21.6559,21.6559,21.6559,21.6559,21.6559,21.6559,21.6559,21.6559,21.6559,21.6559,21.6559,21.6559,21.6559,21.6559,21.6559,21.6559,21.6559,21.6559,21.6559,21.6559,21.6559,21.6559,21.6559,21.6559,21.6559,21.6559,21.6559,21.6757,21.7514,21.8712,22.026,22.1606,22.2561,22.3184,22.3907,22.4696,22.5121,22.5121,22.5121,22.5121,22.5121,22.5121,22.5121,22.5121,22.5121,22.5121,22.5121,22.5121,22.5121,22.5121,22.5121,22.5121,22.5121,22.5121,22.5121,22.5121,22.5121,22.5121,15.8147,16.5852,17.333,17.5522,18.2131,18.9241,19.3747,19.4792,19.4993,19.5908,19.5345,19.4581,19.3877,19.4029,19.5155,19.8074,19.8686,19.9216,20.0009,19.7285,19.4806,19.3526,19.0429,18.8822,18.991,19.029,19.1079,19.2556,19.3972,19.5565,19.7124,19.8459,19.9232,19.9232,19.9232,19.9232,19.9232,19.9232,19.9232,19.9232,20.0613,20.2173,20.3554,20.5051,20.6416,20.7796,20.8964,20.9753,21.0131,21.2843,21.4192,21.457,21.5951,21.6559,21.6559,21.6559,21.6559,21.6559,21.6559,21.6559,21.6559,21.6559,21.6559,21.6559,21.6559,21.6559,21.6559,21.6559,21.6559,21.6559,21.6559,21.6559,21.6559,21.6559,21.6559,21.6559,21.6559,21.6559,21.6559,21.6559,21.6559,21.6559,21.6559,21.7497,21.8698,21.9681,22.118,22.2149,22.2377,22.3758,22.4696,22.4696,22.4924,22.5121,22.5121,22.5121,22.5121,22.5121,22.5121,22.5121,22.5121,22.5121,22.5121,22.5121,22.5121,22.5121,22.5121,22.5121,22.5121,22.5121,22.5121,22.5121,16.2332,16.688,17.0566,17.502,17.8882,18.3951,19.2751,19.4792,19.437,19.3103,19.3877,19.3877,19.1082,19.1705,19.3184,19.4944,19.633,19.7476,19.8502,19.6547,19.4317,19.213,18.9766,18.8427,18.8559,18.9713,19.1079,19.2556,19.3972,19.5565,19.7124,19.8459,19.9232,19.9232,19.9232,19.9232,19.9232,19.9232,19.9232,19.9232,20.0613,20.2173,20.3554,20.5051,20.6416,20.7813,20.801,20.8783,21.0147,21.1676,21.3271,21.457,21.5951,21.6559,21.6559,21.6559,21.6559,21.6559,21.6559,21.6559,21.6559,21.6559,21.6559,21.6559,21.6559,21.6559,21.6559,21.6559,21.6559,21.6559,21.6559,21.6559,21.6559,21.6559,21.6559,21.6559,21.6559,21.6559,21.6559,21.6559,21.6559,21.6559,21.6559,21.6708,21.674,21.6954,21.8072,21.9453,22.0799,22.218,22.3136,22.3136,22.435,22.5121,22.5121,22.5121,22.5121,22.5121,22.5121,22.5121,22.5121,22.5121,22.5121,22.5121,22.5121,22.5121,22.5121,22.5121,22.5121,22.5121,22.5121,22.5121,15.7048,16.3073,16.8707,17.1528,17.6573,18.2473,18.903,19.1293,19.2621,19.4781,19.3455,19.1846,19.1564,19.1283,19.1564,19.3113,19.4803,19.614,19.7305,19.5721,19.3861,19.2548,19.0336,18.8777,18.8378,18.9662,19.075,19.1276,19.2657,19.4103,19.5535,19.7144,19.8246,19.9232,19.9232,19.9232,19.9232,19.9232,19.9232,19.9232,20.0613,20.2173,20.3554,20.5051,20.6416,20.7813,20.7813,20.8207,20.8783,21.0295,21.166,21.3271,21.4602,21.5753,21.6559,21.6559,21.6559,21.6559,21.6559,21.6559,21.6559,21.6559,21.6559,21.6559,21.6559,21.6559,21.6559,21.6559,21.6559,21.6559,21.6559,21.6559,21.6559,21.6559,21.6559,21.6559,21.6559,21.6559,21.6559,21.6559,21.6559,21.6559,21.6559,21.6559,21.6559,21.6559,21.6937,21.7892,21.9238,22.0834,22.1588,22.1588,22.2987,22.3758,22.3758,22.4512,22.5121,22.5121,22.5121,22.5121,22.5121,22.5121,22.5121,22.5121,22.5121,22.5121,22.5121,22.5121,22.5121,22.5121,22.5121,22.5121,15.4169,16.0701,16.726,16.8815,17.3686,17.9552,18.4717,18.6658,18.896,19.4581,19.3113,19.086,19.1001,19.0167,18.9744,19.086,19.2761,19.4387,19.5191,19.4346,19.3146,19.139,19.0067,18.8933,18.7808,18.9384,19.0487,19.0487,19.1817,19.3264,19.4761,19.632,19.767,19.9232,19.9232,19.9232,19.9232,19.9232,19.9232,19.9232,20.0613,20.2173,20.3554,20.5051,20.6416,20.7813,20.7813,20.7813,20.778,20.898,21.0147,21.1676,21.3632,21.5013,21.5951,21.6345,21.6559,21.6559,21.6559,21.6559,21.6559,21.6559,21.6559,21.6559,21.6559,21.6559,21.6559,21.6559,21.6559,21.6559,21.6559,21.6559,21.6559,21.6559,21.6559,21.6559,21.6559,21.6559,21.6559,21.6559,21.6559,21.6559,21.6559,21.6559,21.6559,21.6559,21.6559,21.6971,21.7892,21.8844,21.9681,22.026,22.1409,22.2347,22.2347,22.3149,22.392,22.4499,22.4499,22.4499,22.4499,22.4499,22.4679,22.5121,22.5121,22.5121,22.5121,22.5121,22.5121,22.5121,22.5121,22.5121,15.6446,16.1134,16.6029,16.7615,17.0021,17.3756,17.9972,18.1141,18.3106,19.086,19.2409,19.1494,18.8417,18.7783,18.7773,18.7783,19.0449,19.2236,19.1418,19.2758,19.2186,18.7765,18.8457,18.8533,18.6411,18.8858,19.0487,19.0487,19.1817,19.3264,19.4761,19.632,19.767,19.9232,19.9232,19.9232,19.9232,19.9232,19.9232,19.9232,20.0613,20.2173,20.3554,20.5051,20.6416,20.7813,20.7813,20.7813,20.7813,20.7813,20.8553,21.0345,21.3238,21.4421,21.4618,21.5951,21.6559,21.6559,21.6559,21.6559,21.6559,21.6559,21.6559,21.6559,21.6559,21.6559,21.6559,21.6559,21.6559,21.6559,21.6559,21.6559,21.6559,21.6559,21.6559,21.6559,21.6559,21.6559,21.6559,21.6559,21.6559,21.6559,21.6559,21.6559,21.6559,21.6559,21.6559,21.6559,21.6542,21.6542,21.7151,21.8484,22.0045,22.0799,22.0799,22.0799,22.1391,22.2956,22.2938,22.2938,22.2938,22.2938,22.3728,22.5121,22.5121,22.5121,22.5121,22.5121,22.5121,22.5121,22.5121,22.5121,15.4616,15.9191,16.3669,16.7083,16.9215,17.1477,17.5654,17.958,18.2744,18.4162,18.6988,18.897,18.7924,18.7783,18.7783,18.7783,18.9533,19.073,19.0531,19.1432,19.1153,18.8291,18.7884,18.7399,18.6345,18.7952,18.9465,19.0421,19.0947,19.1817,19.3264,19.4776,19.6142,19.767,19.864,19.9232,19.9232,19.9232,19.9232,19.9232,19.9611,20.0613,20.2173,20.3538,20.4887,20.6432,20.7418,20.7813,20.7813,20.7813,20.7977,20.8553,21.0509,21.2663,21.4404,21.4981,21.577,21.6559,21.6559,21.6559,21.6559,21.6559,21.6559,21.6559,21.6559,21.6559,21.6559,21.6559,21.6559,21.6559,21.6559,21.6559,21.6559,21.6559,21.6559,21.6559,21.6559,21.6559,21.6559,21.6559,21.6559,21.6559,21.6559,21.6559,21.6559,21.6559,21.6559,21.6559,21.6559,21.6559,21.6757,21.7134,21.8467,21.9238,21.9238,22.0225,22.1014,22.1391,22.0654,22.0439,22.1391,22.1391,22.1821,22.218,22.218,22.2557,22.3561,22.3561,22.4153,22.5121,22.5121,22.5121,15.3787,15.8299,16.2298,16.5606,16.649,16.7801,17.2399,17.5807,17.8546,18.038,18.3116,18.545,18.6657,18.6868,18.6868,18.6868,18.8688,19.0096,19.0096,19.1607,19.1961,18.9814,18.8907,18.8181,18.7436,18.7984,18.8954,19.0356,19.0487,19.1145,19.2556,19.3446,19.4974,19.7124,19.7867,19.864,19.9232,19.9232,19.9232,19.9232,19.9232,20.0037,20.1352,20.237,20.3554,20.4903,20.5856,20.6416,20.7024,20.7024,20.7188,20.778,20.8766,21.0525,21.2826,21.4027,21.4964,21.5753,21.6345,21.6559,21.6559,21.6559,21.6559,21.6559,21.6559,21.6559,21.6559,21.6559,21.6559,21.6559,21.6559,21.6559,21.6559,21.6559,21.6559,21.6559,21.6559,21.6559,21.6559,21.6559,21.6559,21.6559,21.6559,21.6559,21.6559,21.6559,21.6559,21.6559,21.6559,21.6559,21.6559,21.6559,21.7283,21.7909,21.7909,21.8664,21.9453,22.0045,21.8681,21.8467,22.0062,22.0045,22.0225,22.0799,22.0799,22.1194,22.2149,22.2149,22.2575,22.3561,22.3561,22.3561,15.3787,15.803,16.1536,16.3377,16.2917,16.3686,17.0222,17.0799,17.1781,17.8699,18.031,18.1346,18.4404,18.5118,18.5319,18.5611,18.8065,18.9956,18.9956,19.2504,19.3593,19.1568,19.0616,18.989,18.9387,18.8656,18.8822,19.0356,19.0487,19.1094,19.2409,19.2556,19.3937,19.673,19.6896,19.767,19.9019,19.9248,19.9232,19.9232,19.9232,20.0037,20.1221,20.1368,20.2173,20.3357,20.3505,20.4278,20.5479,20.5692,20.6416,20.7599,20.7813,20.8569,21.0131,21.304,21.4224,21.4618,21.5968,21.6576,21.6559,21.6559,21.6559,21.6559,21.6559,21.6559,21.6559,21.6559,21.6559,21.6559,21.6559,21.6559,21.6559,21.6559,21.6559,21.6559,21.6559,21.6559,21.6559,21.6559,21.6559,21.6559,21.6559,21.6559,21.6559,21.6559,21.6559,21.6559,21.6559,21.6559,21.6559,21.6559,21.6559,21.6559,21.6559,21.6559,21.7151,21.8501,21.73,21.7151,21.8501,21.8484,21.9041,22.0471,22.0453,22.0619,22.0602,22.0602,22.065,22.0799,22.0799,22.0799,15.3493,15.5865,15.7792,16.2691,16.516,16.6888,16.8519,17.0231,17.1963,17.3714,17.5715,17.7836,17.9737,18.205,18.4454,18.6868,18.7854,18.8336,18.8336,18.9547,19.0257,18.9729,18.7708,18.7147,18.9169,18.778,18.7755,19.029,19.0487,19.0619,19.0947,19.2015,19.295,19.3674,19.594,19.7322,19.7716,19.864,19.9232,19.9232,19.9232,19.9429,19.984,20.081,20.1565,20.196,20.311,20.3686,20.408,20.5248,20.5873,20.6268,20.7418,20.7994,20.8602,21.0328,21.2449,21.4421,21.4816,21.5539,21.6559,21.6559,21.6559,21.6559,21.6559,21.6559,21.6559,21.6559,21.6559,21.6559,21.6559,21.6559,21.6559,21.6559,21.6559,21.6559,21.6559,21.6559,21.6559,21.6559,21.6559,21.6559,21.6559,21.6559,21.6559,21.6559,21.6559,21.6559,21.6559,21.6559,21.6559,21.6559,21.6559,21.6559,21.6559,21.6559,21.6774,21.6937,21.6757,21.6774,21.7103,21.7103,21.7134,21.7529,21.7529,21.8072,21.929,21.929,21.9633,22.0799,22.0799,22.0799,15.3358,15.6017,15.7792,16.1179,16.3071,16.4301,16.4859,16.6588,16.8392,16.9616,17.1472,17.3814,17.6841,17.8741,18.1135,18.5017,18.7421,18.8618,18.7854,19.0067,19.1438,19.074,18.9092,18.8495,18.9709,18.8536,18.8161,18.9408,19.0093,19.0487,19.0487,19.121,19.1949,19.2621,19.42,19.5743,19.7109,19.7883,19.8277,19.8277,19.8822,19.9232,19.9217,20.0021,20.0432,20.0416,20.1155,20.1976,20.2552,20.3325,20.4509,20.566,20.6465,20.7205,20.778,20.8553,21.0328,21.2481,21.4044,21.4981,21.5787,21.6362,21.6559,21.6559,21.6559,21.6559,21.6559,21.6559,21.6559,21.6559,21.6559,21.6559,21.6559,21.6559,21.6559,21.6559,21.6559,21.6559,21.6559,21.6559,21.6559,21.6559,21.6559,21.6559,21.6559,21.6559,21.6559,21.6559,21.6559,21.6559,21.6559,21.6559,21.6559,21.6559,21.6559,21.6559,21.6559,21.6559,21.6559,21.6559,21.6559,21.6559,21.6559,21.6559,21.6559,21.6954,21.7695,21.7695,21.8072,21.8844,21.8844,21.8844,15.3493,15.6969,15.9072,15.9622,15.9765,16.0114,16.1366,16.2362,16.3762,16.6562,16.802,17.0129,17.4246,17.5654,17.7474,18.1688,18.6133,18.8618,18.7572,19.1424,19.3807,19.2268,19.1712,19.1346,19.0999,18.9792,18.8964,18.8871,18.9673,19.0224,19.0487,19.0487,19.1079,19.2278,19.2556,19.3886,19.6304,19.6304,19.673,19.7109,19.8246,19.9035,19.9232,19.9232,19.9232,19.9232,19.9232,20.0053,20.1008,20.1384,20.2717,20.51,20.5479,20.6416,20.7386,20.7829,20.8586,20.9917,21.286,21.3813,21.4389,21.577,21.6148,21.6379,21.6576,21.6559,21.6559,21.6559,21.6559,21.6559,21.6559,21.6559,21.6559,21.6559,21.6559,21.6559,21.6559,21.6559,21.6559,21.6559,21.6559,21.6559,21.6559,21.6559,21.6559,21.6559,21.6559,21.6559,21.6559,21.6559,21.6559,21.6559,21.6559,21.6559,21.6559,21.6559,21.6559,21.6559,21.6559,21.6559,21.6559,21.6559,21.6559,21.6559,21.6559,21.6559,21.6559,21.6559,21.6559,21.6559,21.6559,21.6559,15.4136,15.6373,15.8037,15.9464,15.9765,16.0177,16.1667,16.1881,16.26,16.5293,16.681,16.8179,16.9838,17.3462,17.678,17.8812,18.197,18.4584,18.5601,18.9815,19.2198,19.0649,19.1084,19.1913,19.3001,18.9694,18.8547,19.0981,18.9639,18.9202,19.0421,19.0487,19.0619,19.0816,19.2015,19.2819,19.3345,19.3345,19.4594,19.7109,19.7306,19.808,19.9232,19.9232,19.9232,19.9232,19.9232,19.9445,19.9627,20.081,20.1615,20.237,20.469,20.5824,20.6054,20.7435,20.801,20.8405,21.0098,21.1479,21.2828,21.4224,21.4767,21.4964,21.6148,21.6559,21.6559,21.6559,21.6559,21.6559,21.6559,21.6559,21.6559,21.6559,21.6559,21.6559,21.6559,21.6559,21.6559,21.6559,21.6559,21.6559,21.6559,21.6559,21.6559,21.6559,21.6559,21.6559,21.6559,21.6559,21.6559,21.6559,21.6559,21.6559,21.6559,21.6559,21.6559,21.6559,21.6559,21.6559,21.6559,21.6559,21.6559,21.6559,21.6559,21.6559,21.6559,21.6559,21.6559,21.6559,21.6559,21.6559,15.5262,15.7545,15.8901,15.9622,15.9765,15.9979,16.0685,16.1041,16.1647,16.3101,16.4759,16.6334,16.7894,17.111,17.4367,17.678,17.9797,18.2684,18.5108,18.8759,19.0579,18.904,19.0747,19.1806,19.1267,18.9865,18.9039,18.9263,18.8665,18.8625,18.9333,19.0042,19.0487,19.0487,19.1145,19.1473,19.1473,19.2227,19.3724,19.591,19.6714,19.7883,19.9232,19.9232,19.9232,19.9232,19.9232,19.9232,19.9217,20.0037,20.0613,20.1581,20.2717,20.3883,20.4656,20.6071,20.6613,20.6794,20.8158,20.9753,21.1282,21.2828,21.3271,21.3452,21.4981,21.4767,21.4406,21.5178,21.5359,21.5556,21.6362,21.6559,21.6559,21.6559,21.6559,21.6559,21.6559,21.6559,21.6559,21.6559,21.6559,21.6559,21.6559,21.6559,21.6559,21.6559,21.6559,21.6559,21.6559,21.6559,21.6559,21.6559,21.6559,21.6559,21.6559,21.6559,21.6559,21.6559,21.6559,21.6559,21.6559,21.6559,21.6559,21.6559,21.6559,21.6559,21.6559,21.6559,21.6559,21.6559,21.6559,21.6559,15.7387,0.0,16.0407,16.0764,16.0907,16.0756,0.0,16.1057,16.1831,16.1923,16.3484,16.533,16.6954,16.9546,17.2316,17.509,17.853,18.1839,18.4967,18.7502,18.8829,18.8417,19.0801,19.1913,19.0585,19.0248,18.9566,18.8086,18.7684,18.775,18.8326,18.9399,19.0158,19.0487,19.0487,19.0487,19.0487,19.162,19.2986,19.4796,19.5945,19.7472,19.9232,19.9232,19.9232,19.9232,19.9232,19.9232,19.9232,19.9232,19.9808,20.0973,20.1221,20.1944,20.3144,20.4656,20.5445,20.5824,20.6794,20.8175,20.9522,21.0937,21.1512,21.2038,21.3452,21.286,21.2104,21.3435,21.3813,21.4192,21.5161,21.5753,21.5934,21.5934,21.6362,21.6559,21.6559,21.6559,21.6559,21.6559,21.6559,21.6559,21.6559,21.6559,21.6559,21.6559,21.6559,21.6559,21.6559,21.6559,21.6559,21.6559,21.6559,21.6559,21.6559,21.6559,21.6559,21.6559,21.6559,21.6559,21.6559,21.6559,21.6559,21.6559,21.6559,21.6559,21.6559,21.6559,21.6559,21.6559,21.6559,21.6559,0.0,16.1874,16.231,16.3745,16.4102,16.3745,16.231,16.3125,0.0,16.3329,16.4426,16.5881,16.6816,16.9449,17.1955,17.3692,17.7756,18.1839,18.4967,18.5611,18.6798,18.9604,19.1434,19.2919,19.4258,19.1255,18.9492,19.0187,18.7022,18.6038,18.8217,18.8442,18.9136,19.0487,19.0487,19.0487,19.0487,19.0619,19.205,19.4796,19.4958,19.6536,19.9232,19.9232,19.9232,19.9232,19.9232,19.9232,19.9232,19.9232,19.9217,19.9414,20.081,20.1418,20.1779,20.316,20.4509,20.5676,20.584,20.6826,20.801,20.7994,20.8964,21.0311,21.1874,21.1265,21.0493,21.2038,21.245,21.2433,21.2482,21.3617,21.457,21.457,21.5556,21.6559,21.6559,21.6559,21.6559,21.6559,21.6559,21.6559,21.6559,21.6559,21.6559,21.6559,21.6559,21.6559,21.6559,21.6559,21.6559,21.6559,21.6559,21.6559,21.6559,21.6559,21.6559,21.6559,21.6559,21.6559,21.6559,21.6559,21.6559,21.6559,21.6559,21.6559,21.6559,21.6559,21.6559,21.6559,21.6559,21.6559,16.1802,16.2809,16.3745,16.4316,16.4458,16.4316,16.3745,16.3867,16.4,16.3716,16.4685,16.5641,16.5738,16.9087,17.1904,17.2293,17.7112,18.1205,18.2342,18.5037,18.7009,18.715,18.9463,19.1212,19.1846,19.0409,18.8977,18.7797,18.6237,18.5057,18.4363,18.6915,18.8625,18.9136,18.8266,18.8727,19.0487,18.9581,19.0583,19.3446,19.4351,19.596,19.7867,19.8853,19.9232,19.9232,19.9232,19.9232,0.0,19.9232,19.9232,19.9217,19.9824,20.0021,20.0219,20.1615,20.2552,20.3128,20.408,20.5248,20.6465,20.6465,20.7386,20.8799,20.9342,20.8372,20.778,21.0147,21.0904,21.1101,21.2055,21.263,21.3074,21.3074,21.4192,21.521,21.521,21.5968,21.6559,21.6559,21.6559,21.6559,21.6559,21.6559,21.6559,21.6559,21.6559,21.6559,21.6559,21.6559,21.6559,21.6559,21.6559,21.6559,21.6559,21.6559,21.6559,21.6559,21.6559,21.6559,21.6559,21.6559,21.6559,21.6559,21.6559,21.6559,21.6559,21.6559,21.6559,21.6559,21.6559,21.6559,16.3309,16.4387,16.5323,16.5814,16.5957,16.5814,16.5323,16.5347,16.5361,16.4745,16.556,16.6287,16.6005,16.9227,17.1805,17.1847,17.6846,18.0823,18.0952,18.4475,18.6657,18.5611,18.7783,18.9392,18.9392,18.9226,18.8563,18.7258,18.5405,18.3976,18.3121,18.5185,18.7277,18.9421,18.8175,18.8391,19.035,18.9834,19.0346,19.1949,19.3906,19.5535,19.7093,19.8672,19.9232,19.9232,19.9232,19.9232,19.9232,19.9232,19.9232,19.9232,19.9232,19.9232,19.9445,20.0382,20.0958,20.1581,20.2584,20.3719,20.5067,20.5067,20.5643,20.6416,20.7024,20.6071,20.5495,20.7994,20.8964,20.9572,21.0493,21.1084,21.1479,21.1479,21.2679,21.3797,21.3797,21.4816,21.5985,21.5985,21.6148,21.6559,21.6559,21.6559,21.6559,21.6559,21.6559,21.6559,21.6559,21.6559,21.6559,21.6559,21.6559,21.6559,21.6559,21.6559,21.6559,21.6559,21.6559,21.6559,21.6559,21.6559,21.6559,21.6559,21.6559,21.6559,21.6559,21.6559,21.6559,21.6559,21.6559,21.6559,16.5973,16.6766,16.7194,16.8731,16.9079,16.8731,16.7115,16.8034,16.855,16.6629,16.7176,16.7916,16.7978,16.9887,17.1735,17.2458,17.7221,18.0922,18.1326,18.374,18.547,18.547,18.6798,18.7783,18.7783,18.7794,18.8333,18.961,18.4715,18.2777,18.5462,18.3274,18.4964,19.1605,19.065,19.0053,19.0093,19.1439,19.1561,19.0487,19.3365,19.555,19.7109,19.8493,19.9232,19.9232,19.9232,19.9232,19.9232,19.9232,19.9232,19.9232,19.9232,19.9232,19.9232,19.9232,20.0184,20.1368,20.1368,20.237,20.3505,20.3505,20.3505,20.3736,20.5248,20.4672,20.3736,20.5232,20.6613,20.7813,20.7813,20.875,20.9933,20.9933,21.1084,21.2252,21.2252,21.342,21.4438,21.4438,21.5573,21.6559,21.6559,21.6559,21.6559,21.6559,21.6559,21.6559,21.6559,21.6559,21.6559,21.6559,21.6559,21.6559,21.6559,21.6559,21.6559,21.6559,21.6559,21.6559,21.6559,21.6559,21.6559,21.6559,21.6559,21.6559,21.6559,21.6559,21.6559,21.6559,21.6559,21.6559,16.6258,16.7614,16.8517,16.9008,16.9079,16.9016,16.8525,16.8802,16.8915,16.7998,16.8119,16.817,16.7633,17.0099,17.2138,17.1805,17.7087,18.1149,18.0982,18.4465,18.6667,18.5611,18.6798,18.7783,18.7783,18.8051,18.7756,18.6611,18.6643,18.606,18.4899,18.4366,18.5633,18.9043,18.7716,18.7116,18.734,18.6767,18.7314,18.9019,19.0882,19.2525,19.4003,19.6502,19.767,19.7898,19.8853,19.9232,19.9232,19.9232,19.9232,19.9232,19.9232,19.9232,19.9232,19.9232,19.9414,19.9808,19.9808,20.0826,20.1944,20.1944,20.2781,20.3341,20.2717,20.2355,20.237,20.3736,20.4475,20.5083,20.6021,20.7418,20.8372,20.8372,20.9555,21.069,21.069,21.189,21.286,21.286,21.3222,21.3797,21.4816,21.5013,21.5359,21.6345,21.6559,21.6559,21.6559,21.6559,21.6559,21.6559,21.6559,21.6559,21.6559,21.6559,21.6559,21.6559,21.6559,21.6559,21.6559,21.6559,21.6559,21.6559,21.6559,21.6559,21.6559,21.6559,21.6559,21.6559,21.6559,21.6559,16.7106,16.8382,16.9079,16.9079,16.9079,16.9079,16.9079,16.9079,16.8987,16.8647,16.8498,16.853,16.8553,17.0614,17.247,17.2773,17.7529,18.112,18.1031,18.4354,18.6516,18.5541,18.6388,18.7053,18.6889,18.773,18.7546,18.5711,18.6317,18.6609,18.6246,18.7021,18.8471,19.0675,18.9462,18.8376,18.7533,18.7318,18.7015,18.6703,18.8676,19.0371,19.1883,19.4266,19.591,19.7093,19.8095,19.864,19.9232,19.9232,19.9232,19.9232,19.9232,19.9232,19.9232,19.9232,19.9232,19.9232,19.9232,19.984,20.0579,20.0579,20.1187,20.1615,20.0776,20.0579,20.081,20.2386,20.2715,20.2946,20.4459,20.5445,20.6235,20.6826,20.7583,20.8356,20.8964,21.0295,21.1282,21.1282,21.1907,21.2482,21.3403,21.3617,21.4044,21.5573,21.577,21.5968,21.6576,21.6559,21.6559,21.6559,21.6559,21.6559,21.6559,21.6559,21.6559,21.6559,21.6559,21.6559,21.6559,21.6559,21.6559,21.6559,21.6559,21.6559,21.6559,21.6559,21.6559,21.6559,21.6559,21.6559,16.8223,16.9079,16.9079,16.9079,16.9079,16.9079,16.9079,16.9079,16.9066,16.8832,16.8783,16.9054,17.0344,17.1507,17.2826,17.4601,17.8139,18.074,18.1075,18.3357,18.5037,18.5178,18.5513,18.5684,18.5491,18.7156,18.763,18.6277,18.4788,18.5392,18.8672,19.0206,19.2086,19.4308,19.3656,19.1984,18.9304,19.0618,18.8975,18.4462,18.7047,18.8942,19.0173,19.1972,19.4145,19.6517,19.6699,19.7685,19.8838,19.9051,19.9035,19.9035,19.9248,19.9232,19.9232,19.9232,19.9232,19.9232,19.9232,19.9232,19.9232,19.9232,19.9248,19.9035,19.9035,19.8872,19.9019,20.0579,20.0973,20.1384,20.2962,20.3307,20.3686,20.5084,20.5479,20.589,20.7188,20.8553,20.9522,20.9736,21.0904,21.1907,21.2038,21.2038,21.2465,21.4044,21.4224,21.4784,21.6165,21.6362,21.6362,21.6165,21.6379,21.6362,21.6362,21.6576,21.6559,21.6559,21.6559,21.6559,21.6559,21.6559,21.6559,21.6559,21.6559,21.6559,21.6559,21.6559,21.6559,21.6559,21.6559,21.6559,16.8223,16.9079,16.9079,16.9079,16.9079,16.9079,16.9079,16.9079,16.9419,17.0572,17.0366,17.0433,17.2234,17.3283,17.3972,17.4409,17.7236,17.9354,17.912,18.0631,18.2261,18.3458,18.368,18.4324,18.5785,18.6527,18.6993,18.7068,18.6452,18.6611,18.813,18.9638,19.0344,19.0068,19.1026,19.0335,18.7697,18.7231,18.7044,18.7143,18.7746,18.773,18.7302,19.1906,19.3258,19.1999,19.4301,19.5372,19.5782,19.7093,19.7472,19.7685,19.8853,19.9232,19.9232,19.9232,19.9232,19.9232,19.9232,19.9232,19.9232,19.9232,19.8459,19.7472,19.7472,19.6749,19.6157,19.7457,19.8111,19.8622,20.1171,20.1747,20.2157,20.3702,20.3933,20.4311,20.584,20.6416,20.6843,20.7977,20.8553,20.9128,21.0295,21.0493,21.0936,21.2482,21.2679,21.3205,21.4602,21.4799,21.4438,21.3271,21.4192,21.4799,21.4799,21.5968,21.6559,21.6559,21.6559,21.6559,21.6559,21.6559,21.6559,21.6559,21.6559,21.6559,21.6559,21.6559,21.6559,21.6559,21.6559,21.6559,16.8223,16.9079,16.9079,16.9079,16.9079,16.9079,16.9079,16.9079,16.9536,17.0863,17.1012,17.1479,17.3412,17.4229,17.48,17.513,17.7333,17.8867,17.8529,17.9965,18.1555,18.2975,18.3457,18.4211,18.5593,18.6264,18.6716,18.702,18.6755,18.6988,18.7895,18.8557,18.9048,18.9458,19.0974,19.0941,18.9067,18.8529,18.8408,18.8691,18.7427,18.759,18.8963,19.0578,19.1325,19.1442,19.3622,19.4258,19.384,19.5368,19.5945,19.6107,19.6703,19.7113,19.7113,19.7113,19.7507,19.8293,19.8293,19.8656,19.9035,19.7492,19.6521,19.5945,19.5945,19.596,19.596,19.5945,19.6502,19.7519,19.8853,19.9248,19.9642,20.1187,20.196,20.2765,20.3554,20.4114,20.4854,20.5659,20.5626,20.6235,20.7632,20.7813,20.8553,21.0904,21.1084,21.1676,21.3205,21.2629,21.2251,21.2301,21.286,21.342,21.342,21.4044,21.4372,21.4372,21.4372,21.4372,21.4372,21.5178,21.5573,21.5573,21.6148,21.6559,21.6559,21.6559,21.6559,21.6559,21.6559,21.6559,16.8223,16.9079,16.9079,16.9079,16.9079,16.9079,16.9079,16.9079,16.9494,17.0691,17.1356,17.2231,17.4265,17.4915,17.5422,17.6259,17.7629,17.8456,17.8184,17.9566,18.0955,18.2161,18.3158,18.4162,18.518,18.6083,18.6677,18.6823,18.6775,18.7074,18.7895,18.7641,18.8182,18.9877,19.1152,19.1572,19.0945,19.1022,19.062,18.9775,18.7883,18.8551,19.1408,18.9924,19.0085,19.1601,19.3,19.2954,19.203,19.3431,19.4139,19.4402,19.4761,19.4796,19.4796,19.4796,19.5535,19.6714,19.6714,19.7472,19.8099,19.5519,19.4599,19.4417,19.4417,19.5171,19.5712,19.4776,19.5368,19.6532,19.6896,19.6912,19.7109,19.8443,19.9855,20.0579,20.0579,20.1976,20.3144,20.3505,20.3505,20.3883,20.51,20.5282,20.6071,20.8356,20.8931,20.9753,21.1315,21.0164,20.9736,21.1298,21.1693,21.1907,21.1907,21.2087,21.2236,21.2236,21.2236,21.2236,21.2236,21.3403,21.4027,21.4027,21.5161,21.577,21.577,21.5934,21.6148,21.6148,21.6328,21.6559,16.8223,16.9079,16.9079,16.9079,16.9079,16.9079,16.9079,16.9079,16.957,17.1034,17.1975,17.3122,17.5486,17.5938,17.6336,17.7432,17.6964,17.6622,17.6919,17.7147,17.7728,17.8931,18.0634,18.2427,18.4257,18.578,18.692,18.7726,18.7461,18.7471,18.7913,18.7885,18.8028,18.8298,18.8503,18.9165,19.0395,19.083,19.1016,19.085,19.1902,19.1521,18.9903,19.3073,19.2324,18.8586,19.0053,19.0008,18.9019,19.0502,19.1802,19.3067,19.4285,19.4796,19.4796,19.4796,19.4958,19.5156,19.5156,19.5191,19.5353,19.4943,19.3906,19.295,19.295,19.2212,19.162,19.2606,19.3082,19.3805,19.6548,19.6107,19.5565,19.7109,19.7504,19.7716,19.7716,19.9805,20.1944,20.3307,20.3505,20.3554,20.3736,20.3736,20.3883,20.4278,20.5445,20.6826,20.8207,20.7221,20.681,20.8191,20.9572,21.0345,21.0345,21.1496,21.2236,21.2236,21.2236,21.2236,21.2236,21.2433,21.2482,21.2482,21.2679,21.2844,21.2844,21.4027,21.4602,21.4767,21.5951,21.6559,16.7178,16.8454,16.9079,16.9079,16.9079,16.9079,16.9079,16.9079,16.9587,17.1102,17.2396,17.3699,17.5166,17.5463,17.5743,17.6738,17.5927,17.5512,17.653,17.669,17.7274,17.8938,17.9878,18.1395,18.3996,18.5149,18.6279,18.7513,18.766,18.7763,18.8003,18.7941,18.7941,18.7941,18.7941,18.8298,18.895,19.0093,19.153,19.322,19.2454,19.2706,19.3901,19.4196,19.3124,19.1126,19.2571,19.208,19.0443,19.186,19.3359,19.4571,19.3725,19.3895,19.4402,19.2976,19.292,19.3577,19.3577,19.4028,19.441,19.2901,19.1934,19.1423,19.1423,19.1554,19.1686,19.1488,19.2015,19.295,19.4266,19.4053,19.3972,19.5337,19.6517,19.7109,19.7109,19.8656,20.0432,20.0958,20.1171,20.1368,20.2157,20.237,20.2552,20.3341,20.408,20.4475,20.4278,20.4311,20.4656,20.5248,20.607,20.6268,20.6268,20.704,20.7385,20.7385,20.7385,20.7385,20.7385,20.8964,20.972,20.972,21.1463,21.2236,21.2236,21.286,21.3205,21.3205,21.3797,21.4226,16.6267,16.7614,16.8596,16.9016,16.9079,16.9079,16.9079,16.9079,16.9419,17.0484,17.1869,17.3041,17.3615,17.4229,17.4899,17.5685,17.529,17.5244,17.6539,17.6785,17.7341,17.8733,17.9427,18.0684,18.3044,18.4384,18.5597,18.6858,18.7203,18.7575,18.7932,18.7941,18.7941,18.7941,18.7941,18.7941,18.7941,18.9092,19.109,19.3783,19.2227,19.33,19.6698,19.4795,19.3689,19.3477,19.4593,19.3837,19.1939,19.3034,19.4341,19.5553,19.3503,19.3385,19.4211,19.2617,19.2642,19.3507,19.3131,19.3399,19.3764,19.241,19.1789,19.1573,19.1573,19.2301,19.2799,19.099,19.1291,19.2146,19.2556,19.2358,19.2475,19.3906,19.5186,19.591,19.591,19.7078,19.8246,19.8656,19.864,19.9279,20.0579,20.081,20.1008,20.1779,20.2518,20.2552,20.1581,20.237,20.316,20.3505,20.3505,20.3505,20.3505,20.3505,20.3505,20.3505,20.3505,20.3505,20.3505,20.5675,20.6613,20.6613,20.8964,21.0164,21.0164,21.0295,21.0706,21.1118,21.1496,21.1907,16.5973,16.6838,16.7257,16.8731,16.9079,16.9079,16.9079,16.9079,16.9066,16.8735,16.9633,17.0494,17.0503,17.2362,17.4067,17.4875,17.5555,17.618,17.6643,17.703,17.7132,17.6837,17.8802,18.025,18.0553,18.3264,18.5212,18.5718,18.5764,18.6424,18.7861,18.7941,18.7941,18.7941,18.7941,18.7941,18.7941,18.8013,18.895,19.0529,19.1894,19.3463,19.5157,19.497,19.4385,19.3418,19.3477,19.2861,19.187,19.1939,19.2771,19.406,19.3923,19.3942,19.4217,19.5527,19.6133,19.597,19.4372,19.3223,19.2778,19.5154,19.5346,19.4358,19.4358,19.4358,19.3892,19.127,19.0553,19.0947,19.2293,19.162,19.0947,19.2409,19.2819,19.2885,19.2885,19.3972,19.5388,19.6896,19.7322,19.7701,19.9019,19.9445,19.8838,19.7716,19.9821,20.1418,20.1368,20.1418,20.1944,20.3357,20.3505,20.3505,20.3505,20.3505,20.3505,20.3505,20.3505,20.3505,20.3505,20.3702,20.3686,20.3686,20.3899,20.3883,20.3883,20.5282,20.6597,20.7994,20.9342,21.0887,16.4681,16.6044,16.7115,16.8731,16.9079,16.9079,16.9079,16.9079,16.8987,16.8647,16.9648,17.0459,16.9995,17.1434,17.3023,17.4058,17.4456,17.5189,17.6851,17.6766,17.6851,17.7741,17.8138,17.8975,18.0616,18.1801,18.2497,18.2634,18.4498,18.5925,18.6424,18.7432,18.7941,18.7941,18.7941,18.7941,18.7941,18.7941,18.8227,18.8797,19.0367,19.1937,19.3497,19.4587,19.4748,19.4365,19.553,19.5716,19.5363,19.5363,19.6339,19.7473,19.5744,19.5763,19.6505,19.5383,19.4797,19.4977,19.6117,19.6301,19.5911,19.5139,19.4569,19.3876,19.2184,19.171,19.1174,18.8489,18.8413,18.9202,18.9743,19.0173,19.0619,19.1145,19.1964,19.2621,19.2621,19.3775,19.4943,19.5565,19.5535,19.5732,19.6324,19.6308,19.6521,19.7124,19.7867,19.8622,19.8622,19.9445,20.0234,20.0792,20.0776,20.0776,20.0776,20.0018,19.9427,19.9427,19.8459,19.7851,19.7851,19.8869,19.9805,20.0776,20.1794,20.2552,20.3505,20.4096,20.4525,20.5067,20.5659,20.6021,16.1676,16.361,16.5608,16.7161,16.8374,16.9079,16.9079,16.9079,16.8953,16.8395,16.9144,16.9688,16.8926,17.005,17.1439,17.2805,17.3525,17.4678,17.662,17.6775,17.7048,17.7968,17.7851,17.8323,17.9968,18.0093,18.0369,18.094,18.3366,18.5069,18.564,18.7147,18.7941,18.7941,18.7941,18.7941,18.7941,18.7941,18.7941,18.8013,18.9021,19.0091,19.1143,19.3212,19.4353,19.5005,19.6747,19.7318,19.7318,19.7318,19.7869,19.8638,19.6917,19.6891,19.7717,19.6347,19.5589,19.5342,19.7125,19.7499,19.7112,19.6132,19.5737,19.4976,19.3354,19.2822,19.2245,18.9589,18.9497,19.006,18.9148,18.9671,19.0256,18.99,19.0517,19.1306,19.1832,19.2657,19.3496,19.3957,19.4038,19.4235,19.4761,19.4351,19.4564,19.6107,19.5925,19.591,19.6896,19.7867,19.864,19.9248,19.8853,19.8443,19.8443,19.7144,19.6304,19.6304,19.5353,19.4796,19.4796,19.5747,19.6734,19.7704,19.864,19.9642,20.0579,20.0579,20.0776,20.14,20.14,20.1942,15.7189,15.9813,16.2444,16.403,16.6733,16.8945,16.8945,16.8936,16.8797,16.8082,16.7978,16.7748,16.7098,16.8191,16.9641,17.1199,17.3098,17.4792,17.5961,17.7132,17.7723,17.7374,17.7995,17.8443,17.846,17.846,17.9102,18.0797,18.2376,18.3874,18.5416,18.6995,18.7861,18.7861,18.7932,18.7941,18.7941,18.7941,18.7941,18.7941,18.7941,18.7941,18.8084,19.1133,19.3354,19.4943,19.6523,19.7094,19.7318,19.7318,19.7318,19.7318,19.7318,19.7318,19.7532,19.9082,19.8654,19.7318,19.7318,19.6499,19.6155,19.8636,19.8876,19.8082,19.7922,19.79,19.7311,19.4559,19.3879,19.3361,19.083,19.0188,18.9952,18.8818,18.8437,18.8758,19.0176,19.0481,19.0831,19.2227,19.2556,19.3001,19.4417,19.3512,19.3067,19.4548,19.3512,19.3608,19.6502,19.6896,19.7716,19.9019,19.7867,19.7109,19.7109,19.5535,19.4746,19.4746,19.4599,19.4599,19.4584,19.4599,19.4599,19.4746,19.4746,19.4746,19.4796,19.4796,19.555,19.7124,19.7124,19.8474,16.147,16.147,16.1042,16.3753,16.51,16.5743,16.5743,16.5552,16.588,16.796,16.7907,16.7544,16.7659,16.8479,16.9735,17.1574,17.3051,17.4669,17.6695,17.7001,17.7309,17.8059,17.8086,17.8148,17.8434,17.846,17.8674,17.9094,18.0663,18.1796,18.2224,18.4783,18.6282,18.6282,18.7361,18.7941,18.7941,18.7941,18.7941,18.7941,18.7941,18.7941,18.8013,18.8869,19.0082,19.1661,19.3221,19.4577,19.5576,19.5576,19.6319,19.7318,19.7318,19.7318,19.7308,19.7655,19.7665,19.7318,19.7318,19.7127,19.691,19.7672,19.7677,19.709,19.5323,19.474,19.416,19.1492,19.157,19.2292,19.1572,19.2166,19.2882,19.253,19.1038,18.9734,19.0121,18.9567,18.907,18.948,19.0386,19.121,19.159,19.1342,19.1934,19.4402,19.2657,19.1751,19.3608,19.4761,19.6308,19.9051,19.7867,19.7109,19.7109,19.4807,19.3198,19.3198,19.1306,19.0583,19.1605,19.0699,19.1109,19.3198,19.3198,19.3709,19.4796,19.4796,19.4993,19.5322,19.5322,19.5716,15.4612,15.4255,15.4905,15.9408,16.0051,16.0756,16.5386,16.416,16.3162,16.6629,16.6558,16.6066,16.6509,16.7052,16.814,17.047,17.2064,17.3747,17.5789,17.6717,17.7457,17.8139,17.8166,17.822,17.8443,17.846,17.846,17.846,18.0021,18.094,18.094,18.3294,18.4926,18.563,18.6496,18.729,18.7941,18.7941,18.7941,18.7941,18.7941,18.7941,18.7941,18.7941,18.8797,19.0386,19.1927,19.314,19.3997,19.4801,19.5524,19.6299,19.7104,19.7318,19.7318,19.6523,19.6309,19.6299,19.7104,19.7318,19.7318,19.7318,19.7318,19.7102,19.5547,19.499,19.4799,19.3232,19.3453,19.3894,19.2795,19.3105,19.3618,19.3223,19.114,18.9648,19.1341,18.9497,18.7823,18.8886,18.8885,18.8924,18.9516,18.9581,19.0371,19.2642,19.2065,19.1686,19.2556,19.3906,19.5191,19.6339,19.6304,19.591,19.5349,19.3067,19.1488,19.0846,18.9282,18.8478,18.8727,18.7887,18.8559,19.0795,19.0846,19.1554,19.297,19.297,19.297,19.297,19.297,19.297,14.162,14.2547,14.6685,15.2359,15.2716,15.4334,0.0,16.2286,15.9463,16.3351,16.3561,16.3238,16.392,16.4459,16.5703,16.8504,17.0535,17.2427,17.416,17.6294,17.7611,17.7657,17.8113,17.846,17.846,17.846,17.846,17.846,17.9878,18.0654,18.0654,18.2162,18.366,18.5069,18.5497,18.6282,18.7727,18.7861,18.7941,18.7941,18.7941,18.7941,18.7941,18.7941,18.8736,19.0101,19.1499,19.2132,19.2203,19.3792,19.4587,19.4781,19.6319,19.6737,19.6513,19.5148,19.4801,19.4943,19.6523,19.7104,19.7104,19.7318,19.7318,19.7318,19.7318,19.7318,19.7318,19.7318,19.7318,19.6732,19.4404,19.3809,19.3626,19.2663,19.0469,18.9529,19.3154,19.0187,18.7417,18.9498,18.8105,18.6981,18.796,18.8245,18.8756,19.0042,19.1357,19.2227,19.2358,19.3643,19.4038,19.2753,19.3906,19.4154,19.2753,19.116,18.9728,18.8427,18.8033,18.7375,18.6242,18.603,18.6637,18.8099,18.8113,18.8741,19.0027,19.0158,19.0224,19.0224,19.0421,19.0356,0.0,0.0,0.0,0.0,0.0,0.0,0.0,14.9949,15.0786,15.4523,15.6571,15.8296,15.999,16.2067,16.4554,16.724,16.9321,17.1626,17.4435,17.5527,17.6127,17.6438,17.7622,17.846,17.846,17.846,17.846,17.846,17.8746,17.8951,17.8951,18.0521,18.1582,18.1867,18.4346,18.5773,18.6058,18.7361,18.7941,18.7941,18.7941,18.7941,18.7941,18.7941,18.8155,18.8441,18.8717,18.8869,18.9002,19.0519,19.1947,19.314,19.3426,19.3568,19.3497,19.3202,19.3059,19.3345,19.4953,19.5362,19.5576,19.689,19.7318,19.7318,19.7318,19.7318,19.7318,19.7318,19.7318,19.7139,19.6743,19.6552,19.6523,19.63,19.4247,19.2557,19.3357,19.2065,19.0307,18.8676,18.888,18.8743,18.693,18.7572,18.8442,18.8756,18.9019,18.9596,19.0765,19.2146,19.2935,19.2687,19.3906,19.4154,19.2753,19.0269,18.8625,18.8362,18.6162,18.5307,18.6162,18.5095,18.5161,18.6637,18.6637,18.6769,18.7017,18.8215,18.8741,18.8822,18.9976,18.9238,0.0,0.0,0.0,0.0,0.0,0.0,0.0,0.0,0.0,0.0,0.0,15.2804,15.499,0.0,16.1817,16.4556,16.7853,17.0606,17.239,17.4294,17.5647,17.6036,17.7524,17.846,17.846,17.846,17.846,17.846,17.846,17.846,17.846,17.9236,18.0084,18.094,18.2509,18.3651,18.4436,18.6006,18.6781,18.679,18.7575,18.7941,18.7941,18.7941,18.7941,18.7941,18.7941,18.7941,18.8013,18.8807,19.001,19.1366,19.0643,19.0286,19.0429,19.1152,19.1438,19.1723,19.3283,19.3783,19.3935,19.4801,19.5524,19.6166,19.6166,19.6747,19.7318,19.7318,19.7318,19.7318,19.7318,19.7318,19.7318,19.7318,19.5382,19.3733,19.5184,19.2923,19.0725,19.0725,19.0246,18.9249,18.7405,18.7688,18.7725,18.6411,18.6834,18.7558,18.8266,18.9596,18.9925,18.8529,18.9632,18.9895,18.8449,18.7017,18.6505,18.7229,18.5241,18.4109,18.4072,18.3415,18.3663,18.511,18.5176,18.5504,18.6242,18.6966,18.7309,18.7295,18.8003,18.7609,0.0,0.0,0.0,0.0,0.0,0.0,0.0,0.0,0.0,0.0,0.0,0.0,0.0,0.0,0.0,16.1463,16.5935,16.9385,17.0273,17.2909,17.4952,17.5608,17.7016,17.8104,17.8389,17.846,17.846,17.846,17.846,17.846,17.846,17.846,17.9102,18.0449,18.0797,18.1591,18.2813,18.4436,18.5211,18.5211,18.679,0.0,18.7504,18.7861,18.7941,18.7941,18.7941,18.7941,18.7941,18.7941,18.8726,18.9744,18.8441,18.7941,18.8155,18.9378,18.9887,19.0091,19.1652,19.2213,19.2213,19.256,19.3497,19.4587,19.4587,19.5372,0.0,19.6299,19.6513,19.689,19.689,19.7104,19.7318,19.7318,19.5772,19.4749,19.6882,19.4019,19.1498,19.3063,19.1704,18.9669,18.7834,18.8365,18.8116,18.5527,18.5939,18.6573,18.6544,18.7318,18.7032,18.4767,18.557,18.5767,18.4569,18.424,18.4569,18.5702,18.4452,18.3006,18.1573,18.1522,18.2034,18.3174,18.324,18.3912,18.5387,18.5636,18.5848,18.5767,18.348,18.3086,0.0,0.0,0.0,0.0,0.0,0.0,0.0,0.0,0.0,0.0,0.0,0.0,0.0,0.0,0.0,0.0,16.3292,16.7579,17.0394,17.1444,17.2469,17.3842,17.5437,17.6944,17.8309,17.846,17.846,17.846,17.846,17.846,17.846,17.846,0.0,0.0,0.0,18.1011,18.1234,18.2804,18.3598,18.3598,18.5149,18.5916,18.5925,18.7361,18.7941,18.7941,18.7941,18.7941,18.7941,18.7941,18.8084,18.8227,18.8013,18.7941,18.8013,18.8155,18.8227,18.8441,19.002,0.0,0.0,19.2213,19.2774,19.2917,19.2917,19.2988,19.314,19.314,19.4149,19.5148,19.5148,19.6319,19.7318,19.7318,19.7131,19.688,19.7269,19.6882,19.5732,19.3766,19.3199,19.1475,18.6754,18.9713,19.1879,18.9128,18.817,18.7738,18.7616,18.6957,18.6308,18.603,18.6111,0.0,18.5965,18.4832,18.4175,18.4306,18.2954,18.1493,17.9952,17.9887,17.9938,18.0135,18.0135,18.0887,18.2442,18.3663,18.4306,18.4109,17.3747,17.1709,0.0,0.0,0.0,0.0,0.0,0.0,0.0,0.0,0.0,0.0,0.0,0.0,0.0,0.0,0.0,0.0,15.8395,16.2628,16.4204,16.7472,17.0444,17.2201,17.4581,17.6373,17.7016,17.7952,17.846,17.846,17.846,17.846,17.846,17.846,17.846,17.846,17.9094,17.9522,17.9522,18.1091,18.1948,18.1948,18.3517,18.4302,18.4302,18.5934,18.6638,18.6638,18.7584,18.7941,18.7941,18.7941,18.7941,18.7941,0.0,0.0,0.0,0.0,18.7941,18.8084,18.8736,18.895,18.9092,18.9725,19.051,19.1295,19.1295,19.1927,19.2631,19.2631,19.3131,19.364,19.364,19.4078,19.4791,19.5728,19.5942,19.6156,19.7094,19.7318,19.69,19.5936,19.5762,0.0,19.0814,19.1943,19.1965,18.7819,18.6856,18.6073,18.4593,18.4741,18.4306,18.2597,18.3203,18.3349,18.2451,18.1859,0.0,0.0,0.0,18.1653,18.0967,18.0967,0.0,0.0,0.0,17.6627,17.8074,17.5378,0.0,0.0,16.9618,16.8157,0.0,0.0,0.0,0.0,0.0,0.0,0.0,0.0,0.0,0.0,0.0,0.0,0.0,0.0,0.0,0.0,15.2929,15.7127,15.6571,16.2036,16.668,16.808,17.2172,17.4661,17.4224,17.6373,17.7809,17.7809,17.8166,17.846,17.846,17.846,17.846,17.846,17.846,17.846,17.846,17.9664,18.0307,18.0298,18.1885,18.267,18.2742,18.4293,18.5211,18.5702,18.6852,18.7584,18.7941,18.7941,18.7941,18.7941,18.7941,18.7941,18.7941,18.7941,18.7941,18.7941,18.7941,18.7941,18.7941,18.7941,18.8736,18.9663,18.9663,19.0439,19.1357,19.1357,19.1642,19.1999,19.1999,19.2284,19.2888,19.3942,19.4286,19.4772,19.6163,19.6516,19.6737,19.7318,19.6513,19.5381,19.35,19.3216,19.1776,18.7586,18.6435,18.526,18.3012,18.3198,18.2662,18.0493,18.123,18.1442,18.0361,17.9887,18.0281,18.1851,18.1507,18.1522,18.1916,18.1522,18.131,18.131,17.7101,17.4852,0.0,0.0,0.0,0.0,0.0,0.0,0.0,0.0,0.0,0.0,0.0,0.0,0.0,0.0,0.0,0.0,0.0,0.0,0.0,0.0,0.0,0.0,0.0,0.0,14.8717,15.5048,16.0106,16.0122,16.6892,17.1022,16.9507,17.3511,17.6159,17.6159,17.7595,17.846,17.846,17.846,17.846,17.846,17.846,17.846,17.846,17.8532,17.8523,17.8532,18.0235,18.1011,18.1082,18.267,18.4231,18.563,18.5702,18.6567,18.7941,18.7941,18.7941,18.7941,18.7941,18.7941,18.7941,18.7941,18.7941,18.7941,18.7941,18.7941,18.7941,18.7941,18.8013,18.8013,18.8013,18.8084,18.8075,18.8075,18.9235,19.0386,19.0386,19.1509,19.2545,19.2239,19.2433,19.3035,19.4242,19.4752,19.5524,19.6941,19.4781,19.2755,19.2688,19.2678,19.2069,19.0386,18.8442,0.0,18.499,18.3177,18.1982,18.1865,18.1931,18.1931,18.1851,18.0493,18.0281,18.1851,18.0493,18.0361,18.1865,18.0493,17.9675,17.9675,17.9478,17.7388,17.3235,0.0,0.0,0.0,0.0,0.0,0.0,0.0,0.0,0.0,0.0,0.0,0.0,0.0,0.0,0.0,0.0,0.0,0.0,0.0,0.0,0.0,0.0,0.0,0.0,14.884,15.4763,15.3606,16.0447,16.4236,16.1596,16.6536,17.0389,17.1371,17.4866,17.7381,17.8389,17.846,17.846,17.846,17.846,17.846,17.846,17.846,17.846,17.846,17.9031,17.9308,17.9379,18.102,18.201,18.2581,18.366,18.5007,18.6424,18.6424,18.5791,18.4944,18.6006,18.6424,18.6567,18.7584,18.7941,18.7941,18.7941,18.7941,18.7941,18.7941,18.7941,18.7941,18.7941,18.7941,18.7941,18.7941,18.8369,18.8736,18.8736,18.9154,18.9693,19.036,19.0795,19.1404,19.2575,19.3155,19.3568,19.4149,19.0876,18.8307,18.9359,19.1276,19.1162,18.6793,18.7319,18.7782,18.6601,18.4296,18.3215,18.4272,18.4405,18.3706,18.2088,18.2937,18.316,18.2045,18.1456,18.1376,18.1931,18.0427,17.9609,17.9609,17.9609,17.5613,16.75,0.0,0.0,0.0,0.0,0.0,0.0,0.0,0.0,0.0,0.0,0.0,0.0,0.0,0.0,0.0,0.0,0.0,0.0,0.0,0.0,0.0,0.0,0.0,0.0,0.0,0.0,14.946,15.5461,0.0,15.6039,15.9408,16.2191,16.3245,16.7098,17.088,17.4116,17.4812,17.6097,17.8389,17.846,17.846,17.846,17.846,17.846,17.846,17.846,17.846,17.846,17.9593,18.044,18.1011,18.2019,18.3375,18.4793,18.4213,18.2724,18.0806,18.1867,18.1207,18.0137,18.3375,18.4588,18.4873,18.7156,18.7941,18.7584,18.5382,18.3089,18.1653,18.3874,18.3018,18.1582,18.3294,18.416,18.4944,18.6719,18.7575,18.8086,18.8521,18.9032,18.9726,19.0744,19.0119,18.9644,19.0776,18.8521,18.6247,18.5587,18.7147,18.7257,18.3554,18.4379,18.5803,18.6806,18.512,18.4209,18.5264,18.5332,18.4375,18.19,18.311,18.2976,18.0522,18.0338,18.0338,18.0338,17.9375,17.8111,17.6599,17.6073,17.1865,0.0,0.0,0.0,0.0,0.0,0.0,0.0,0.0,0.0,0.0,0.0,0.0,0.0,0.0,0.0,0.0,0.0,0.0,0.0,0.0,0.0,0.0,0.0,0.0,0.0,0.0,0.0,14.6842,15.121,0.0,0.0,0.0,0.0,15.2194,15.5183,15.9607,16.5767,16.7455,17.1236,17.7675,17.7889,17.8032,17.846,17.846,17.846,17.846,17.846,17.846,17.846,17.846,17.9308,18.0797,18.0797,18.1734,18.3027,18.1163,17.8585,17.5723,17.5509,17.2655,16.9507,17.5526,17.7747,17.8674,18.5159,18.737,18.6372,18.0476,17.4384,17.0514,17.6025,17.3591,0.0,0.0,17.6739,17.9031,18.3999,18.6353,18.7308,18.6772,18.7347,18.8153,18.8707,18.6033,18.4311,0.0,18.7299,18.5658,18.1011,0.0,18.044,18.0369,17.9828,18.115,18.5662,18.5473,18.498,18.5061,18.5061,18.4037,18.1526,18.1375,18.0298,17.782,17.7566,17.7496,17.7496,17.7233,17.5183,17.1147,16.9315,0.0,0.0,0.0,0.0,0.0,0.0,0.0,0.0,0.0,0.0,0.0,0.0,0.0,0.0,0.0,0.0,0.0,0.0,0.0,0.0,0.0,0.0,0.0,0.0,0.0,0.0,12.8648,13.3571,13.3999,13.8223,14.0007,0.0,0.0,0.0,0.0,0.0,0.0,15.6126,15.676,16.0899,16.9478,16.9763,17.2538,17.8389,17.846,17.846,17.846,17.846,17.846,17.846,17.846,17.8666,17.9094,17.9094,18.0021,18.1091,17.4732,17.1656,17.0577,16.7082,16.4941,16.4228,16.7027,16.8026,16.9096,17.6588,17.9156,17.8871,17.731,17.5651,17.3511,16.931,0.0,0.0,0.0,0.0,17.1405,17.8451,18.0592,18.1973,18.6171,18.7575,18.7944,18.7806,18.7238,18.5587,0.0,17.8023,17.4527,17.1039,0.0,0.0,0.0,0.0,18.1415,18.3787,18.5253,18.6434,18.7594,18.7734,18.6685,18.4121,18.3976,18.2969,18.039,17.8459,17.7496,17.7496,17.3405,17.1245,17.1629,0.0,0.0,0.0,0.0,0.0,0.0,0.0,0.0,0.0,0.0,0.0,0.0,0.0,0.0,0.0,0.0,0.0,0.0,0.0,0.0,0.0,0.0,0.0,0.0,0.0,0.0,0.0,12.1714,12.6929,12.9011,13.0367,13.1015,0.0,0.0,0.0,0.0,0.0,0.0,0.0,0.0,0.0,15.9321,16.0265,16.2762,16.7186,17.1262,17.3323,17.3403,17.6819,17.846,17.846,17.846,17.846,17.846,17.846,17.7033,17.4384,16.9961,16.4815,15.9527,0.0,0.0,0.0,0.0,15.6174,15.7244,16.4395,16.6892,16.6464,16.3665,0.0,0.0,0.0,0.0,0.0,0.0,0.0,0.0,0.0,0.0,18.3426,18.6607,18.766,18.7829,18.7452,18.2245,17.6596,0.0,17.0175,16.7392,16.4269,0.0,0.0,0.0,0.0,17.8166,18.1805,18.5111,18.7408,18.8347,18.8418,18.7375,18.4797,18.4652,18.3631,18.1045,17.8577,17.6505,17.484,17.0631,16.6789,0.0,0.0,0.0,0.0,0.0,0.0,0.0,0.0,0.0,0.0,0.0,0.0,0.0,0.0,0.0,0.0,0.0,0.0,0.0,0.0,0.0,0.0,0.0,0.0,0.0,0.0,0.0,0.0,0.0,12.1714,12.6507,0.0,0.0,0.0,0.0,0.0,0.0,0.0,0.0,0.0,0.0,0.0,0.0,0.0,15.0981,15.1837,16.0336,16.4625,16.4689,17.1753,17.5035,17.5035,17.5249,17.5963,17.6819,17.5383,0.0,16.6338,16.4269,0.0,0.0,0.0,0.0,0.0,0.0,0.0,0.0,0.0,0.0,0.0,0.0,0.0,0.0,0.0,0.0,0.0,0.0,0.0,0.0,0.0,0.0,18.4441,18.4153,18.5228,18.5857,0.0,17.3286,16.3602,16.2746,16.2603,0.0,0.0,0.0,0.0,0.0,0.0,0.0,17.8942,18.4516,18.7941,18.7941,18.7941,18.708,18.4935,18.4433,18.3374,18.1191,17.7979,17.4594,17.1089,16.8205,0.0,0.0,0.0,0.0,0.0,0.0,0.0,0.0,0.0,0.0,0.0,0.0,0.0,0.0,0.0,0.0,0.0,0.0,0.0,0.0,0.0,0.0,0.0,0.0,0.0,0.0,0.0,0.0,0.0,0.0,0.0,0.0,0.0,0.0,0.0,0.0,0.0,0.0,0.0,0.0,0.0,0.0,0.0,0.0,0.0,0.0,0.0,0.0,0.0,0.0,15.5968,15.726,15.7268,15.8631,16.2707,16.8265,15.9163,15.8877,16.3824,15.0838,0.0,0.0,0.0,0.0,0.0,0.0,0.0,0.0,0.0,0.0,0.0,0.0,0.0,0.0,0.0,0.0,0.0,0.0,0.0,0.0,0.0,0.0,0.0,0.0,17.2219,17.5327,0.0,0.0,0.0,0.0,0.0,0.0,0.0,0.0,0.0,0.0,0.0,0.0,17.2815,18.1805,18.7941,18.7941,18.7941,18.7801,18.7371,18.5452,18.41,18.364,17.6476,17.1373,0.0,0.0,0.0,0.0,0.0,0.0,0.0,0.0,0.0,0.0,0.0,0.0,0.0,0.0,0.0,0.0,0.0,0.0,0.0,0.0,0.0,0.0,0.0,0.0,0.0,0.0,0.0,0.0,0.0,0.0,0.0,0.0,0.0,0.0,0.0,0.0,0.0,0.0,0.0,0.0,0.0,0.0,0.0,0.0,0.0,0.0,0.0,0.0,0.0,0.0,0.0,0.0,0.0,0.0,0.0,0.0,0.0,0.0,0.0,14.6321,0.0,0.0,0.0,0.0,0.0,0.0,0.0,0.0,0.0,0.0,0.0,0.0,0.0,0.0,0.0,0.0,0.0,0.0,0.0,0.0,0.0,0.0,0.0,0.0,0.0,0.0,0.0,0.0,0.0,0.0,0.0,0.0,0.0,0.0,0.0,0.0,0.0,0.0,0.0,0.0,17.1102,18.1091,18.7941,18.7941,18.7941,18.7941,18.7941,18.6897,18.4745,18.147,17.5328,0.0,0.0,0.0,0.0,0.0,0.0,0.0,0.0,0.0,0.0,0.0,0.0,0.0,0.0,0.0,0.0,0.0,0.0,0.0,0.0,0.0,0.0,0.0,0.0,0.0,0.0,0.0,0.0,0.0,0.0,0.0,0.0,0.0,0.0,0.0,0.0,0.0,0.0,0.0,0.0,0.0,0.0,0.0,0.0,0.0,0.0,0.0,0.0,0.0,0.0,0.0,0.0,0.0,0.0,0.0,0.0,0.0,0.0,0.0,14.3974,0.0,0.0,0.0,0.0,0.0,0.0,0.0,0.0,0.0,0.0,0.0,0.0,0.0,0.0,0.0,0.0,0.0,0.0,0.0,0.0,0.0,0.0,0.0,0.0,0.0,0.0,0.0,0.0,0.0,0.0,0.0,0.0,0.0,0.0,0.0,0.0,0.0,0.0,0.0,0.0,0.0,17.004,18.0378,18.7575,18.7941,18.7941,18.7941,18.7941,18.7941,18.523,17.8888,17.3918,0.0,0.0,0.0,0.0,0.0,0.0,0.0,0.0,0.0,0.0,0.0,0.0,0.0,0.0,0.0,0.0,0.0,0.0,0.0,0.0,0.0,0.0,0.0,0.0,0.0,0.0,0.0,0.0,0.0,0.0,0.0,0.0,0.0,0.0,0.0,0.0,0.0,0.0,0.0,0.0,0.0,0.0,0.0,0.0,0.0,0.0,0.0,0.0,0.0,0.0,0.0,0.0,0.0,0.0,0.0,0.0,0.0,0.0,0.0,0.0,0.0,0.0,0.0,0.0,0.0,0.0,0.0,0.0,0.0,0.0,0.0,0.0,0.0,0.0,0.0,0.0,0.0,0.0,0.0,0.0,0.0,0.0,0.0,0.0,0.0,0.0,0.0,0.0,0.0,0.0,0.0,0.0,0.0,0.0,0.0,0.0,0.0,0.0,0.0,0.0,0.0,16.6624,17.8086,18.6424,18.7799,18.7941,18.7941,18.7941,18.7941,18.523,17.8888,0.0,0.0,0.0,0.0,0.0,0.0,0.0,0.0,0.0,0.0,0.0,0.0,0.0,0.0,0.0,0.0,0.0,0.0,0.0,0.0,0.0,0.0,0.0,0.0,0.0,0.0,0.0,0.0,0.0,0.0,0.0,0.0,0.0,0.0,0.0,0.0,0.0,0.0,0.0,0.0,0.0,0.0,0.0,0.0,0.0,0.0,0.0,0.0,0.0,0.0,0.0,0.0,0.0,0.0,0.0,0.0,0.0,0.0,0.0,0.0,0.0,0.0,0.0,0.0,0.0,0.0,0.0,0.0,0.0,0.0,0.0,0.0,0.0,0.0,0.0,0.0,0.0,0.0,0.0,0.0,0.0,0.0,0.0,0.0,0.0,0.0,0.0,0.0,0.0,0.0,0.0,0.0,0.0,0.0,0.0,0.0,0.0,0.0,0.0,0.0,0.0,0.0,16.4895,17.6454,18.4445,18.5087,18.5168,18.5168,18.5168,18.5168,18.0815,17.0674,0.0,0.0,0.0,0.0,0.0,0.0,0.0,0.0,0.0,0.0,0.0,0.0,0.0,0.0,0.0,0.0,0.0,0.0,0.0,0.0,0.0,0.0,0.0,0.0,0.0,0.0,0.0,0.0,0.0,0.0,0.0,0.0,0.0,0.0,0.0,0.0,0.0,0.0,0.0,0.0,0.0,0.0,0.0,0.0,0.0,0.0,0.0,0.0,0.0,0.0,0.0,0.0,0.0,0.0,0.0,0.0,0.0,0.0,0.0,0.0,0.0,0.0,0.0,0.0,0.0,0.0,0.0,0.0,0.0,0.0,0.0,0.0,0.0,0.0,0.0,0.0,0.0,0.0,0.0,0.0,0.0,0.0,0.0,0.0,0.0,0.0,0.0,0.0,0.0,0.0,0.0,0.0,0.0,0.0,0.0,0.0,0.0,0.0,0.0,0.0,0.0,0.0,16.3317,17.4812,18.2813,18.3241,18.3322,18.3322,18.3322,18.3322,17.7675,16.4593,0.0,0.0,0.0,0.0,0.0,0.0,0.0,0.0,0.0,0.0,0.0,0.0,0.0,0.0,0.0,0.0,0.0,0.0,0.0,0.0,0.0,0.0,0.0,0.0,0.0,0.0,0.0,0.0,0.0,0.0,0.0,0.0,0.0,0.0,0.0,0.0,0.0,0.0,0.0,0.0,0.0,0.0,0.0,0.0,0.0,0.0,0.0,0.0,0.0,0.0,0.0,0.0,0.0,0.0,0.0,0.0,0.0,0.0,0.0,0.0,0.0,0.0,0.0,0.0,0.0,0.0,0.0,0.0,0.0,0.0,0.0,0.0,0.0,0.0,0.0,0.0,0.0,0.0,0.0,0.0,0.0,0.0,0.0,0.0,0.0,0.0,0.0,0.0,0.0,0.0,0.0,0.0,0.0,0.0,0.0,0.0,0.0,0.0,0.0,0.0,0.0,0.0,16.1517,17.3154,18.1582,18.3179,18.3322,18.3322,18.3322,18.3322,17.7238,0.0,0.0,0.0,0.0,0.0,0.0,0.0,0.0,0.0,0.0,0.0,0.0,0.0,0.0,0.0,0.0,0.0,0.0,0.0,0.0,0.0,0.0,0.0,0.0,0.0,0.0,0.0,0.0,0.0,0.0,0.0,0.0,0.0,0.0,0.0,0.0,0.0,0.0,0.0,0.0,0.0,0.0,0.0,0.0,0.0,0.0,0.0,0.0,0.0,0.0,0.0,0.0,0.0,0.0,0.0,0.0,0.0,0.0,0.0,0.0,0.0,0.0,0.0,0.0,0.0,0.0,0.0,0.0,0.0,0.0,0.0,0.0,0.0,0.0,0.0,0.0,0.0,0.0,0.0,0.0,0.0,0.0,0.0,0.0,0.0,0.0,0.0,0.0,0.0,0.0,0.0,0.0,0.0,0.0,0.0,0.0,0.0,0.0,0.0,0.0,0.0,0.0,0.0,15.7886,16.709,17.4732,0.0,17.9959,17.9959,17.9959,17.9959,17.3956,15.9813,0.0,0.0,0.0,0.0,0.0,0.0,0.0,0.0,0.0,0.0,0.0,0.0,0.0,0.0,0.0,0.0,0.0,0.0,0.0,0.0,0.0,0.0,0.0,0.0,0.0,0.0,0.0,0.0,0.0,0.0,0.0,0.0,0.0,0.0,0.0,0.0,0.0,0.0,0.0,0.0,0.0,0.0,0.0,0.0,0.0,0.0,0.0,0.0,0.0,0.0,0.0,0.0,0.0,0.0,0.0,0.0,0.0,0.0,0.0,0.0,0.0,0.0,0.0,0.0,0.0,0.0,0.0,0.0,0.0,0.0,0.0,0.0,0.0,0.0,0.0,0.0,0.0,0.0,0.0,0.0,0.0,0.0,0.0,0.0,0.0,0.0,0.0,0.0,0.0,0.0,0.0,0.0,0.0,0.0,0.0,0.0,0.0,0.0,0.0,0.0,0.0,0.0,0.0,16.6313,17.4099,0.0,17.846,17.846,17.846,17.846,17.2181,15.7482,0.0,0.0,0.0,0.0,0.0,0.0,0.0,0.0,0.0,0.0,0.0,0.0,0.0,0.0,0.0,0.0,0.0,0.0,0.0,0.0,0.0,0.0,0.0,0.0,0.0,0.0,0.0,0.0,0.0,0.0,0.0,0.0,0.0,0.0,0.0,0.0,0.0,0.0,0.0,0.0,0.0,0.0,0.0,0.0,0.0,0.0,0.0,0.0,0.0,0.0,0.0,0.0,0.0,0.0,0.0,0.0,0.0,0.0,0.0,0.0,0.0,0.0,0.0,0.0,0.0,0.0,0.0,0.0,0.0,0.0,0.0,0.0,0.0,0.0,0.0,0.0,0.0,0.0,0.0,0.0,0.0,0.0,0.0,0.0,0.0,0.0,0.0,0.0,0.0,0.0,0.0,0.0,0.0,0.0,0.0,0.0,0.0,0.0,0.0,0.0,0.0,0.0,0.0,16.8748,17.739,17.8318,17.846,17.846,17.846,17.846,17.169,15.5927,15.2115,0.0,0.0,0.0,0.0,0.0,0.0,0.0,0.0,0.0,0.0,0.0,0.0,0.0,0.0,0.0,0.0,0.0,0.0,0.0,0.0,0.0,0.0,0.0,0.0,0.0,0.0,0.0,0.0,0.0,0.0,0.0,0.0,0.0,0.0,0.0,0.0,0.0,0.0,0.0,0.0,0.0,0.0,0.0,0.0,0.0,0.0,0.0,0.0,0.0,0.0,0.0,0.0,0.0,0.0,0.0,0.0,0.0,0.0,0.0,0.0,0.0,0.0,0.0,0.0,0.0,0.0,0.0,0.0,0.0,0.0,0.0,0.0,0.0,0.0,0.0,0.0,0.0,0.0,0.0,0.0,0.0,0.0,0.0,0.0,0.0,0.0,0.0,0.0,0.0,0.0,0.0,0.0,0.0,0.0,0.0,0.0,0.0,0.0,0.0,0.0,0.0,0.0,15.8901,16.6527,17.7319,17.846,17.846,17.846,17.846,17.1253,15.4421,15.1394,0.0,0.0,0.0,0.0,0.0,0.0,0.0,0.0,0.0,0.0,0.0,0.0,0.0,0.0,0.0,0.0,0.0,0.0,0.0,0.0,0.0,0.0,0.0,0.0,0.0,0.0,0.0,0.0,0.0,0.0,0.0,0.0,0.0,0.0,0.0,0.0,0.0,0.0,0.0,0.0,0.0,0.0,0.0,0.0,0.0,0.0,0.0,0.0,0.0,0.0,0.0,0.0,0.0,0.0,0.0,0.0,0.0,0.0,0.0,0.0,0.0,0.0,0.0,0.0,0.0,0.0,0.0,0.0,0.0,0.0,0.0,0.0,0.0,0.0,0.0,0.0,0.0,0.0,0.0,0.0,0.0,0.0,0.0,0.0,0.0,0.0,0.0,0.0,0.0,0.0,0.0,0.0,0.0,0.0,0.0,0.0,0.0,0.0,0.0,0.0,0.0,0.0,15.1544,16.1256,17.6819,17.846,17.846,17.846,17.846,17.1102,15.3843,15.1172,0.0,0.0,0.0,0.0,0.0,0.0,0.0,0.0,0.0,0.0,0.0,0.0,0.0,0.0,0.0,0.0,0.0,0.0,0.0,0.0,0.0,0.0,0.0,0.0,0.0,0.0,0.0,0.0,0.0,0.0,0.0,0.0,0.0,0.0,0.0,0.0,0.0,0.0,0.0,0.0,0.0,0.0,0.0,0.0,0.0,0.0,0.0,0.0,0.0,0.0,0.0,0.0,0.0,0.0,0.0,0.0,0.0,0.0,0.0,0.0,0.0,0.0,0.0,0.0,0.0,0.0,0.0,0.0,0.0,0.0,0.0,0.0,0.0,0.0,0.0,0.0,0.0,0.0,0.0,0.0,0.0,0.0,0.0,0.0,0.0,0.0,0.0,0.0,0.0,0.0,0.0,0.0,0.0,0.0,0.0,0.0,0.0,0.0,0.0,0.0,0.0,0.0,0.0,15.8116,17.2957,17.689,17.846,17.846,17.846,17.0968,15.3471,0.0,0.0,0.0,0.0,0.0,0.0,0.0,0.0,0.0,0.0,0.0,0.0,0.0,0.0,0.0,0.0,0.0,0.0,0.0,0.0,0.0,0.0,0.0,0.0,0.0,0.0,0.0,0.0,0.0,0.0,0.0,0.0,0.0,0.0,0.0,0.0,0.0,0.0,0.0,0.0,0.0,0.0,0.0,0.0,0.0,0.0,0.0,0.0,0.0,0.0,0.0,0.0,0.0,0.0,0.0,0.0,0.0,0.0,0.0,0.0,0.0,0.0,0.0,0.0,0.0,0.0,0.0,0.0,0.0,0.0,0.0,0.0,0.0,0.0,0.0,0.0,0.0,0.0,0.0,0.0,0.0,0.0,0.0,0.0,0.0,0.0,0.0,0.0,0.0,0.0,0.0,0.0,0.0,0.0,0.0,0.0,0.0,0.0,0.0,0.0,0.0,0.0,0.0,0.0,0.0,15.634,16.9746,17.846,17.846,17.846,17.0531,15.1807,0.0,0.0,0.0,0.0,0.0,0.0,0.0,0.0,0.0,0.0,0.0,0.0,0.0,0.0]}],[{"header":{"parameterUnit":"kt","parameterCategory":2,"dx":1,"dy":1,"la1":29.285339999999998,"la2":30.599998999999997,"lo1":-89.70041500000002,"lo2":-87.6738589999976,"nx":112,"ny":82,"refTime":"2022-09-24T12:00:00:Z","depth":0,"parameterNumber":2,"parameterNumberName":"V-component_of_WINDS"},"data":[7.8198,7.8594,0.0,7.6404,7.6518,0.0,7.4524,0.0,0.0,0.0,0.0,0.0,0.0,0.0,0.0,0.0,0.0,0.0,0.0,9.7281,9.9893,9.9893,10.2117,10.414,10.5328,10.9353,11.2086,11.2507,11.586,11.7731,11.741,11.6907,11.7162,11.8235,11.7731,11.7838,11.8785,11.926,11.9658,11.9943,11.9943,11.9943,11.9943,11.9943,12.0883,12.2457,12.2457,12.3397,12.4991,12.4991,12.4991,12.4991,12.4991,12.4991,12.4991,12.4991,12.4991,12.4991,12.4991,12.4991,12.4991,12.4991,12.4991,12.4991,12.4991,12.4991,12.4991,12.4991,12.5788,12.6775,12.7375,12.8316,12.9341,12.9911,13.0056,13.0056,13.0056,13.0056,13.0056,13.0056,13.0056,13.0056,13.0056,13.0056,13.0056,13.0056,13.0056,13.0056,13.0056,13.0056,13.0056,13.0056,13.0056,13.017,13.0443,13.1209,13.2051,13.2911,13.3481,13.3721,13.3721,13.3721,13.3721,13.3721,13.4031,13.4405,13.4872,13.4872,13.4872,13.4872,13.4872,13.4872,0.0,0.0,7.6626,7.4471,0.0,0.0,0.0,0.0,0.0,0.0,0.0,0.0,0.0,0.0,0.0,0.0,0.0,0.0,0.0,9.4781,9.8452,10.0191,10.3356,10.5747,10.6633,11.0947,11.3502,11.2963,11.6572,11.8349,11.7476,11.722,11.7476,11.8301,11.8045,11.8187,11.8785,11.9544,11.9943,11.9943,11.9943,11.9943,11.9943,11.9943,12.0883,12.2457,12.2457,12.3397,12.4991,12.4991,12.4991,12.4991,12.4991,12.4991,12.4991,12.4991,12.4991,12.4991,12.4991,12.4991,12.4991,12.4991,12.4991,12.4991,12.4991,12.4991,12.4991,12.4991,12.5561,12.6374,12.7261,12.8088,12.8901,12.9828,13.0056,13.0056,13.0056,13.0056,13.0056,13.0056,13.0056,13.0056,13.0056,13.0056,13.0056,13.0056,13.0056,13.0056,13.0056,13.0056,13.0056,13.0056,13.0056,13.0056,13.0056,13.0512,13.1209,13.2069,13.3139,13.3607,13.3367,13.3607,13.3721,13.3721,13.3721,13.4145,13.4872,13.4872,13.4872,13.4872,13.4872,13.4872,0.0,0.0,0.0,7.2358,0.0,0.0,0.0,0.0,7.3208,0.0,0.0,0.0,7.4758,7.4847,0.0,0.0,7.7305,0.0,0.0,8.9951,9.5723,10.0837,10.4354,10.6709,10.7595,11.1365,11.3756,11.3816,11.6879,11.8349,11.7476,11.8207,11.8301,11.7382,11.8235,11.8719,11.8719,11.9516,11.9943,11.9943,11.9943,11.9943,11.9943,11.9943,12.0883,12.2457,12.2457,12.3397,12.4991,12.4991,12.4991,12.4991,12.4991,12.4991,12.4991,12.4991,12.4991,12.4991,12.4991,12.4991,12.4991,12.4991,12.4991,12.4991,12.4991,12.4991,12.4991,12.4991,12.5523,12.632,12.7261,12.8088,12.887,12.9828,13.0056,13.0056,13.0056,13.0056,13.0056,13.0056,13.0056,13.0056,13.0056,13.0056,13.0056,13.0056,13.0056,13.0056,13.0056,13.0056,13.0056,13.0056,13.0056,13.0056,13.0056,13.0056,13.036,13.1126,13.2766,13.3348,13.2621,13.3335,13.3721,13.3721,13.3721,13.4113,13.4872,13.4872,13.4872,13.4872,13.4872,13.4872,7.1273,0.0,0.0,0.0,0.0,0.0,0.0,0.0,0.0,0.0,7.3351,0.0,0.0,0.0,7.4701,7.4161,0.0,8.3179,8.6258,9.2264,9.8528,10.4264,10.6291,10.8228,11.0886,11.3305,11.4949,11.5485,11.7531,11.8349,11.7476,11.7134,11.682,11.6565,11.7362,11.7752,11.7752,11.9232,11.9943,11.9943,11.9943,11.9943,11.9943,11.9943,12.0883,12.2457,12.2457,12.3397,12.4991,12.4991,12.4991,12.4991,12.4991,12.4991,12.4991,12.4991,12.4991,12.4991,12.4991,12.4991,12.4991,12.4991,12.4991,12.4991,12.4991,12.4991,12.4991,12.4991,12.5135,12.5637,12.7117,12.7663,12.8202,12.9714,13.0056,13.0056,13.0056,13.0056,13.0056,13.0056,13.0056,13.0056,13.0056,13.0056,13.0056,13.0056,13.0056,13.0056,13.0056,13.0056,13.0056,13.0056,13.0056,13.0056,13.0056,13.0056,13.0132,13.0329,13.1955,13.3076,13.3418,13.3607,13.3721,13.3721,13.3721,13.3835,13.4063,13.4632,13.4872,13.4872,13.4872,13.4872,0.0,0.0,0.0,0.0,0.0,0.0,0.0,0.0,7.1196,7.2757,0.0,0.0,0.0,0.0,0.0,0.0,8.1541,8.663,8.9591,9.6091,10.199,10.5863,10.7658,10.9455,11.1759,11.3848,11.5405,11.6202,11.7162,11.7504,11.6927,11.6479,11.6082,11.5747,11.6537,11.7107,11.7382,11.8776,11.9601,11.9943,11.9943,11.9943,11.9943,11.9943,12.0883,12.2457,12.2457,12.3397,12.4991,12.4991,12.4991,12.4991,12.4991,12.4991,12.4991,12.4991,12.4991,12.4991,12.4991,12.4991,12.4991,12.4991,12.4991,12.4991,12.4991,12.4991,12.4991,12.4991,12.4991,12.5333,12.6577,12.6949,12.7375,12.9045,12.9486,12.96,12.9972,13.0056,13.0056,13.0056,13.0056,13.0056,13.0056,13.0056,13.0056,13.0056,13.0056,13.0056,13.0056,13.0056,13.0056,13.0056,13.0056,13.0056,13.0056,13.0056,13.0056,13.0056,13.0929,13.2038,13.319,13.3563,13.3721,13.3721,13.3418,13.3418,13.3721,13.4177,13.46,13.4872,13.4872,13.4872,0.0,0.0,0.0,0.0,6.9236,0.0,0.0,0.0,7.1168,7.3098,0.0,7.4696,7.5741,0.0,0.0,7.9457,8.6087,9.1726,9.3815,10.0729,10.5861,10.6785,10.8835,11.043,11.1137,11.3528,11.5432,11.631,11.6196,11.6137,11.6223,11.6175,11.5768,11.509,11.5833,11.6624,11.7382,11.8329,11.9146,11.9943,11.9943,11.9943,11.9943,11.9943,12.0883,12.2457,12.2457,12.3397,12.4991,12.4991,12.4991,12.4991,12.4991,12.4991,12.4991,12.4991,12.4991,12.4991,12.4991,12.4991,12.4991,12.4991,12.4991,12.4991,12.4991,12.4991,12.4991,12.4991,12.4991,12.5151,12.5948,12.6146,12.6534,12.8172,12.8628,12.8901,12.9714,12.9972,13.0056,13.0056,13.0056,13.0056,13.0056,13.0056,13.0056,13.0056,13.0056,13.0056,13.0056,13.0056,13.0056,13.0056,13.0056,13.0056,13.0056,13.0056,13.0056,13.0056,13.0056,13.0784,13.2525,13.3221,13.3607,13.3721,13.3076,13.3025,13.3721,13.3721,13.4145,13.4872,13.4872,13.4872,0.0,0.0,0.0,0.0,0.0,6.9669,0.0,0.0,0.0,7.569,7.9434,8.238,8.2475,8.5551,8.8182,8.8612,9.3397,9.7229,9.7667,10.4267,10.9341,11.0176,11.067,11.1023,11.1175,11.3528,11.5654,11.7107,11.5996,11.5605,11.6196,11.5633,11.5204,11.5063,11.5833,11.6624,11.7382,11.8329,11.9146,11.9943,11.9943,11.9943,11.9943,11.9943,12.0883,12.2457,12.2457,12.3397,12.4991,12.4991,12.4991,12.4991,12.4991,12.4991,12.4991,12.4991,12.4991,12.4991,12.4991,12.4991,12.4991,12.4991,12.4991,12.4991,12.4991,12.4991,12.4991,12.4991,12.4991,12.5151,12.5948,12.6146,12.6434,12.7489,12.8218,12.8741,12.8901,12.9501,13.0056,13.0056,13.0056,13.0056,13.0056,13.0056,13.0056,13.0056,13.0056,13.0056,13.0056,13.0056,13.0056,13.0056,13.0056,13.0056,13.0056,13.0056,13.0056,13.0056,13.0056,13.0784,13.2525,13.2683,13.3107,13.3721,13.3576,13.3576,13.3721,13.3721,13.4145,13.4872,13.4872,13.4872,0.0,0.0,0.0,6.6401,0.0,0.0,0.0,7.2212,7.4404,7.5554,8.0406,8.4453,8.4375,8.6228,8.9187,9.3568,9.5527,9.8351,10.3662,10.7649,11.0138,11.0582,11.0974,11.1365,11.1835,11.3419,11.5057,11.6706,11.6109,11.5654,11.566,11.5291,11.5063,11.5063,11.5464,11.6023,11.682,11.7638,11.8529,11.9345,11.9744,11.9943,11.9943,11.9943,12.0883,12.2457,12.2457,12.3397,12.4991,12.4991,12.4991,12.4991,12.4991,12.4991,12.4991,12.4991,12.4991,12.4991,12.4991,12.4991,12.4991,12.4991,12.4991,12.4991,12.4991,12.4991,12.4991,12.4991,12.4991,12.5105,12.5463,12.559,12.5788,12.6631,12.7489,12.8202,12.8628,12.9387,13.0056,13.0056,13.0056,13.0056,13.0056,13.0056,13.0056,13.0056,13.0056,13.0056,13.0056,13.0056,13.0056,13.0056,13.0056,13.0056,13.0056,13.0056,13.0056,13.0056,13.0056,13.0784,13.2525,13.2569,13.3107,13.4291,13.3917,13.3721,13.3721,13.3721,13.4145,13.4872,13.4872,13.4872,0.0,0.0,0.0,0.0,6.7464,0.0,7.0063,7.2521,7.4834,7.5753,8.0861,8.5383,8.6136,8.626,8.9181,9.8127,9.7414,9.9165,10.8882,11.0126,11.0088,11.024,11.0822,11.1543,11.2458,11.3414,11.4553,11.5882,11.6175,11.5882,11.509,11.5063,11.5063,11.5063,11.5063,11.5464,11.6223,11.702,11.7866,11.8785,11.9544,11.9943,11.9943,11.9943,12.0883,12.2457,12.2457,12.3397,12.4991,12.4991,12.4991,12.4991,12.4991,12.4991,12.4991,12.4991,12.4991,12.4991,12.4991,12.4991,12.4991,12.4991,12.4991,12.4991,12.4991,12.4991,12.4991,12.4991,12.4991,12.4991,12.4991,12.4991,12.5135,12.5788,12.6745,12.7686,12.8301,12.9273,13.0056,13.0056,13.0056,13.0056,13.0056,13.0056,13.0056,13.0056,13.0056,13.0056,13.0056,13.0056,13.0056,13.0056,13.0056,13.0056,13.0056,13.0056,13.0056,13.0056,13.0056,13.0701,13.2228,13.2455,13.3221,13.4645,13.4177,13.3949,13.3949,13.3949,13.4291,13.4872,13.4872,13.4872,0.0,0.0,0.0,6.5605,6.7464,0.0,7.2891,7.5062,7.7115,7.9393,8.417,8.902,9.2382,9.3019,9.6177,10.5825,10.3824,10.3392,11.0114,11.0468,11.0278,11.0947,11.1137,11.1543,11.2458,11.3989,11.4976,11.5177,11.586,11.5882,11.509,11.5063,11.5063,11.5063,11.5063,11.5464,11.6223,11.702,11.7866,11.8785,11.9544,11.9943,11.9943,11.9943,12.0883,12.2457,12.2457,12.3397,12.4991,12.4991,12.4991,12.4991,12.4991,12.4991,12.4991,12.4991,12.4991,12.4991,12.4991,12.4991,12.4991,12.4991,12.4991,12.4991,12.4991,12.4991,12.4991,12.4991,12.4991,12.4991,12.4991,12.4991,12.5021,12.5105,12.635,12.7519,12.7633,12.8916,13.0056,13.0056,13.0056,13.0056,13.0056,13.0056,13.0056,13.0056,13.0056,13.0056,13.0056,13.0056,13.0056,13.0056,13.0056,13.0056,13.0056,13.0056,13.0056,13.0056,13.0056,13.0443,13.1323,13.2152,13.2994,13.3835,13.4487,13.4758,13.4758,13.4758,13.4828,13.4872,13.4872,13.4872,0.0,0.0,6.5605,6.5975,0.0,0.0,7.2554,7.5517,7.8108,7.8736,8.3556,8.8154,8.9704,8.9996,9.3237,10.3112,10.1249,10.1381,10.9374,11.024,11.0126,11.0442,11.1379,11.2101,11.2507,11.4103,11.5063,11.5063,11.5378,11.5432,11.509,11.5063,11.5063,11.5063,11.5063,11.5204,11.554,11.6793,11.761,11.7979,11.9288,11.9943,11.9943,11.9943,12.0883,12.2457,12.2457,12.3397,12.4991,12.4991,12.4991,12.4991,12.4991,12.4991,12.4991,12.4991,12.4991,12.4991,12.4991,12.4991,12.4991,12.4991,12.4991,12.4991,12.4991,12.4991,12.4991,12.4991,12.4991,12.4991,12.4991,12.4991,12.4991,12.4991,12.6303,12.7519,12.7519,12.8855,13.0056,13.0056,13.0056,13.0056,13.0056,13.0056,13.0056,13.0056,13.0056,13.0056,13.0056,13.0056,13.0056,13.0056,13.0056,13.0056,13.0056,13.0056,13.0056,13.0056,13.0056,13.0398,13.114,13.1582,13.2165,13.3025,13.3835,13.4227,13.4227,13.4227,13.4227,13.4227,13.4227,13.4487,6.2769,0.0,0.0,0.0,0.0,0.0,7.3102,7.6146,7.8647,7.8362,8.1889,8.549,8.6927,8.6127,8.8141,9.6958,9.7148,9.8991,10.6954,10.9195,11.0012,11.0012,11.152,11.2458,11.2203,11.3897,11.4976,11.4721,11.4949,11.5063,11.5063,11.5063,11.5063,11.5063,11.5063,11.5063,11.5063,11.6651,11.7382,11.741,11.9118,11.9943,11.9943,11.9943,12.0883,12.2457,12.2457,12.3397,12.4991,12.4991,12.4991,12.4991,12.4991,12.4991,12.4991,12.4991,12.4991,12.4991,12.4991,12.4991,12.4991,12.4991,12.4991,12.4991,12.4991,12.4991,12.4991,12.4991,12.4991,12.4991,12.4991,12.4991,12.4991,12.4991,12.6092,12.7201,12.7458,12.8658,12.9683,12.9683,12.9873,13.0056,13.0056,13.0056,13.0056,13.0056,13.0056,13.0056,13.0056,13.0056,13.0056,13.0056,13.0056,13.0056,13.0056,13.0056,13.0056,13.0056,13.0056,13.0314,13.0868,13.1095,13.1513,13.2165,13.2994,13.3494,13.3721,13.3721,13.3835,13.4031,13.3835,13.4031,0.0,0.0,0.0,6.7886,7.0248,7.2899,7.5949,7.771,7.8901,7.95,7.9779,8.1455,8.6518,8.3747,8.2615,8.8633,9.3341,9.7841,10.2581,10.7137,11.0012,11.0012,11.152,11.2203,11.1289,11.3555,11.4694,11.3816,11.458,11.5063,11.5063,11.5063,11.5063,11.5063,11.5063,11.5063,11.5063,11.6651,11.7382,11.741,11.9118,11.9943,11.9943,11.9943,12.0883,12.2457,12.2457,12.3397,12.4991,12.4991,12.4991,12.4991,12.4991,12.4991,12.4991,12.4991,12.4991,12.4991,12.4991,12.4991,12.4991,12.4991,12.4991,12.4991,12.4991,12.4991,12.4991,12.4991,12.4991,12.4991,12.4991,12.4991,12.4991,12.4991,12.5607,12.6434,12.7329,12.8172,12.8741,12.8741,12.9455,13.0056,13.0056,13.0056,13.0056,13.0056,13.0056,13.0056,13.0056,13.0056,13.0056,13.0056,13.0056,13.0056,13.0056,13.0056,13.0056,13.0056,13.0056,13.0086,13.0086,13.0784,13.124,13.124,13.2152,13.2994,13.3721,13.3721,13.4145,13.484,13.4063,13.3753,6.4149,6.5684,6.7362,6.9632,7.2106,7.4303,7.5781,7.7482,7.8762,7.8986,7.9072,7.984,8.2354,8.1558,8.2395,8.8278,9.3174,9.7814,10.236,10.7058,11.0012,11.0012,11.0974,11.1505,11.1239,11.2997,11.4044,11.3729,11.4553,11.5063,11.5063,11.5063,11.5063,11.5063,11.5063,11.5063,11.5063,11.6651,11.7382,11.741,11.9118,11.9943,11.9943,11.9943,12.0883,12.2457,12.2457,12.3397,12.4991,12.4991,12.4991,12.4991,12.4991,12.4991,12.4991,12.4991,12.4991,12.4991,12.4991,12.4991,12.4991,12.4991,12.4991,12.4991,12.4991,12.4991,12.4991,12.4991,12.4991,12.4991,12.4991,12.4991,12.4991,12.4991,12.5577,12.626,12.6548,12.7291,12.8058,12.8559,12.9417,13.0056,13.0056,13.0056,13.0056,13.0056,13.0056,13.0056,13.0056,13.0056,13.0056,13.0056,13.0056,13.0056,13.0056,13.0056,13.0056,13.0056,13.0056,13.0056,13.0056,13.0314,13.0443,13.0443,13.124,13.181,13.2051,13.2051,13.2507,13.3367,13.3076,13.2962,6.4554,6.6287,6.8153,7.1111,7.3532,7.5497,7.6603,7.7994,7.9013,7.8762,7.8732,7.9075,8.0246,8.0473,8.1796,8.5793,9.1929,9.7244,10.0165,10.6026,11.0012,11.0012,11.0708,11.1061,11.0784,11.2568,11.3615,11.3301,11.4379,11.5063,11.5063,11.5063,11.5063,11.5063,11.5063,11.5063,11.5063,11.6651,11.7382,11.741,11.9118,11.9943,11.9943,11.9943,12.0883,12.2457,12.2457,12.3397,12.4991,12.4991,12.4991,12.4991,12.4991,12.4991,12.4991,12.4991,12.4991,12.4991,12.4991,12.4991,12.4991,12.4991,12.4991,12.4991,12.4991,12.4991,12.4991,12.4991,12.4991,12.4991,12.4991,12.4991,12.4991,12.4991,12.5379,12.5721,12.5721,12.6404,12.7261,12.8073,12.8969,12.9645,12.9987,13.0056,13.0056,13.0056,13.0056,13.0056,13.0056,13.0056,13.0056,13.0056,13.0056,13.0056,13.0056,13.0056,13.0056,13.0056,13.0056,13.0056,13.0056,13.0056,13.0056,13.0056,13.0526,13.0929,13.1209,13.1209,13.1696,13.2569,13.2228,13.2265,6.4169,6.6174,6.8551,7.2245,7.4524,7.6347,7.8222,7.9161,7.947,7.8848,7.8732,7.9075,8.0243,8.0446,8.0698,8.1351,8.956,9.5967,9.6203,10.4,10.9753,10.9986,11.067,11.086,11.0088,11.2162,11.3274,11.2595,11.4076,11.5036,11.5063,11.5063,11.5063,11.5063,11.5063,11.5063,11.5063,11.6565,11.7334,11.741,11.9118,11.9943,11.9943,11.9943,12.0883,12.2457,12.2457,12.3397,12.4991,12.4991,12.4991,12.4991,12.4991,12.4991,12.4991,12.4991,12.4991,12.4991,12.4991,12.4991,12.4991,12.4991,12.4991,12.4991,12.4991,12.4991,12.4991,12.4991,12.4991,12.4991,12.4991,12.4991,12.4991,12.4991,12.4991,12.4991,12.4991,12.559,12.6374,12.7261,12.8104,12.8969,12.9828,12.9987,13.0056,13.0056,13.0056,13.0056,13.0056,13.0056,13.0056,13.0056,13.0056,13.0056,13.0056,13.0056,13.0056,13.0056,13.0056,13.0056,13.0056,13.0056,13.0056,13.0056,13.0056,13.0428,13.1157,13.1157,13.1596,13.2455,13.1582,13.1627,6.5983,6.8807,7.0859,7.3678,7.5494,7.6802,7.7767,7.8504,7.8901,7.8759,7.8732,7.896,7.9756,8.0243,8.0698,8.1351,8.6841,9.2202,9.5712,10.1202,10.6105,10.9623,11.0202,11.0214,11.005,11.1099,11.2037,11.2507,11.3506,11.4352,11.5036,11.5063,11.5063,11.5063,11.5063,11.5063,11.5063,11.5491,11.6251,11.741,11.9118,11.9943,11.9943,11.9943,12.0883,12.2457,12.2457,12.3397,12.4991,12.4991,12.4991,12.4991,12.4991,12.4991,12.4991,12.4991,12.4991,12.4991,12.4991,12.4991,12.4991,12.4991,12.4991,12.4991,12.4991,12.4991,12.4991,12.4991,12.4991,12.4991,12.4991,12.4991,12.4991,12.4991,12.4991,12.4991,12.4991,12.5135,12.5523,12.635,12.7686,12.8757,12.9,12.96,13.0056,13.0056,13.0056,13.0056,13.0056,13.0056,13.0056,13.0056,13.0056,13.0056,13.0056,13.0056,13.0056,13.0056,13.0056,13.0056,13.0056,13.0056,13.0056,13.0056,13.0056,13.0132,13.0329,13.0329,13.0754,13.1551,13.0701,13.0784,6.5226,6.8716,7.1798,7.4562,7.6009,7.7056,7.7966,7.8476,7.8732,7.8732,7.8732,7.8844,7.9214,7.9756,8.03,8.0898,8.5465,9.0605,9.5518,10.0138,10.4781,10.9466,11.0012,11.0012,11.0012,11.0746,11.1581,11.2484,11.3278,11.4098,11.5036,11.5063,11.5063,11.5063,11.5063,11.5063,11.5063,11.5063,11.5719,11.6907,11.8605,11.9601,11.9943,11.9943,12.0683,12.1984,12.2296,12.3225,12.4519,12.4877,12.4991,12.4991,12.4991,12.4991,12.4991,12.4991,12.4991,12.4991,12.4991,12.4991,12.4991,12.4991,12.4991,12.4991,12.4991,12.4991,12.4991,12.4991,12.4991,12.4991,12.4991,12.4991,12.4991,12.4991,12.4991,12.4991,12.4991,12.4991,12.5135,12.5561,12.6661,12.783,12.8529,12.9114,12.96,12.9987,13.0056,13.0056,13.0056,13.0056,13.0056,13.0056,13.0056,13.0056,13.0056,13.0056,13.0056,13.0056,13.0056,13.0056,13.0056,13.0056,13.0056,13.0056,13.0056,13.0056,13.0056,13.0056,13.0284,13.0671,13.0246,13.0284,6.3737,6.7379,7.1457,7.4843,7.6262,7.7141,7.8448,7.8732,7.8732,7.8732,7.8732,7.8732,7.8732,7.9246,7.9872,8.0416,8.4442,8.9326,9.4541,9.9224,10.3823,10.8506,10.9649,11.0012,11.0012,11.0632,11.1455,11.2484,11.3164,11.4011,11.5036,11.5063,11.5063,11.5063,11.5063,11.5063,11.5063,11.5063,11.5491,11.6251,11.7731,11.8898,11.9801,11.9915,12.0455,12.131,12.2012,12.2895,12.3864,12.4565,12.4907,12.4991,12.4991,12.4991,12.4991,12.4991,12.4991,12.4991,12.4991,12.4991,12.4991,12.4991,12.4991,12.4991,12.4991,12.4991,12.4991,12.4991,12.4991,12.4991,12.4991,12.4991,12.4991,12.4991,12.4991,12.4991,12.4991,12.4991,12.4991,12.4991,12.5523,12.6518,12.8073,12.8445,12.8855,12.9744,12.9873,12.9911,13.0056,13.0056,13.0056,13.0056,13.0056,13.0056,13.0056,13.0056,13.0056,13.0056,13.0056,13.0056,13.0056,13.0056,13.0056,13.0056,13.0056,13.0056,13.0056,13.0056,13.0056,13.0056,13.0056,13.0056,6.5444,6.7442,6.9182,7.3849,7.5895,7.7141,7.8448,7.8732,7.8732,7.8732,7.8732,7.8732,7.8732,7.9246,7.9872,8.0416,8.1695,8.449,8.9688,9.4445,9.9083,10.3664,10.7633,11.0012,11.0012,11.0164,11.0848,11.2458,11.2686,11.3419,11.4976,11.5063,11.5063,11.5063,11.5063,11.5063,11.5063,11.5063,11.5491,11.6223,11.6537,11.7504,11.9012,11.963,12.0455,12.1281,12.1424,12.2354,12.3835,12.3978,12.4405,12.4991,12.4991,12.4991,12.4991,12.4991,12.4991,12.4991,12.4991,12.4991,12.4991,12.4991,12.4991,12.4991,12.4991,12.4991,12.4991,12.4991,12.4991,12.4991,12.4991,12.4991,12.4991,12.4991,12.4991,12.4991,12.4991,12.4991,12.4991,12.4991,12.5105,12.5493,12.6434,12.7231,12.7974,12.8787,12.8901,12.9159,12.9942,13.0056,13.0056,13.0056,13.0056,13.0056,13.0056,13.0056,13.0056,13.0056,13.0056,13.0056,13.0056,13.0056,13.0056,13.0056,13.0056,13.0056,13.0056,13.0056,13.0056,13.0056,13.0056,13.0056,6.4458,6.7157,6.9523,7.2228,7.4869,7.7141,7.8448,7.8732,7.8844,7.9157,7.896,7.8732,7.8732,7.8986,7.9474,8.0331,8.0729,8.2879,8.8424,9.2856,9.7394,10.2431,10.674,10.9493,10.9974,11.0012,11.0506,11.1759,11.2279,11.3077,11.4298,11.4808,11.5063,11.5063,11.5063,11.5063,11.5063,11.5063,11.5264,11.5633,11.6061,11.6879,11.8093,11.8946,11.9772,12.0598,12.1082,12.1766,12.2582,12.3464,12.4063,12.4422,12.4822,12.4991,12.4991,12.4991,12.4991,12.4991,12.4991,12.4991,12.4991,12.4991,12.4991,12.4991,12.4991,12.4991,12.4991,12.4991,12.4991,12.4991,12.4991,12.4991,12.4991,12.4991,12.4991,12.4991,12.4991,12.4991,12.4991,12.4991,12.4991,12.5105,12.5463,12.6274,12.7087,12.7944,12.8415,12.8855,12.9273,12.9729,13.0056,13.0056,13.0056,13.0056,13.0056,13.0056,13.0056,13.0056,13.0056,13.0056,13.0056,13.0056,13.0056,13.0056,13.0056,13.0056,13.0056,13.0056,13.0056,13.0056,13.0056,13.0056,6.342,6.6851,7.003,7.0888,7.3586,7.6458,7.8279,7.8732,7.8844,7.9214,7.8986,7.8647,7.8362,7.8393,7.8848,7.9933,8.0243,8.2359,8.8234,9.2389,9.6828,10.2156,10.627,10.8948,10.9645,10.9898,11.0354,11.1137,11.2025,11.291,11.3702,11.458,11.5063,11.5063,11.5063,11.5063,11.5063,11.5063,11.5063,11.5063,11.586,11.6651,11.7448,11.8349,11.9174,11.9971,12.0683,12.1139,12.1395,12.2924,12.3625,12.3882,12.4679,12.4991,12.4991,12.4991,12.4991,12.4991,12.4991,12.4991,12.4991,12.4991,12.4991,12.4991,12.4991,12.4991,12.4991,12.4991,12.4991,12.4991,12.4991,12.4991,12.4991,12.4991,12.4991,12.4991,12.4991,12.4991,12.4991,12.4991,12.4991,12.4991,12.4991,12.5493,12.6146,12.6873,12.7618,12.8218,12.843,12.9228,12.9729,12.9729,12.9942,13.0056,13.0056,13.0056,13.0056,13.0056,13.0056,13.0056,13.0056,13.0056,13.0056,13.0056,13.0056,13.0056,13.0056,13.0056,13.0056,13.0056,13.0056,13.0056,6.42,6.6737,6.8967,7.0713,7.2301,7.435,7.7907,7.8732,7.8561,7.8049,7.8362,7.8362,7.7172,7.7454,7.8051,7.8762,7.9385,8.1797,8.7698,9.2174,9.6618,10.1386,10.59,10.872,10.8796,10.9531,11.0354,11.1137,11.2025,11.291,11.3702,11.458,11.5063,11.5063,11.5063,11.5063,11.5063,11.5063,11.5063,11.5063,11.586,11.6651,11.7448,11.8349,11.9174,11.9943,12.0057,12.0541,12.1367,12.2211,12.3093,12.3882,12.4679,12.4991,12.4991,12.4991,12.4991,12.4991,12.4991,12.4991,12.4991,12.4991,12.4991,12.4991,12.4991,12.4991,12.4991,12.4991,12.4991,12.4991,12.4991,12.4991,12.4991,12.4991,12.4991,12.4991,12.4991,12.4991,12.4991,12.4991,12.4991,12.4991,12.4991,12.5038,12.5135,12.5219,12.5864,12.6661,12.7519,12.8316,12.8787,12.8787,12.9569,13.0056,13.0056,13.0056,13.0056,13.0056,13.0056,13.0056,13.0056,13.0056,13.0056,13.0056,13.0056,13.0056,13.0056,13.0056,13.0056,13.0056,13.0056,13.0056,6.0826,6.4185,6.728,6.8406,7.0921,7.3753,7.6373,7.7257,7.7824,7.8759,7.8191,7.7511,7.7397,7.7283,7.7397,7.8023,7.8706,8.0056,8.28,8.6853,9.1463,9.6591,10.1203,10.518,10.835,10.9467,11.0164,11.0468,11.1266,11.2101,11.2963,11.3821,11.4493,11.5063,11.5063,11.5063,11.5063,11.5063,11.5063,11.5063,11.586,11.6651,11.7448,11.8349,11.9174,11.9943,11.9943,12.0171,12.0541,12.1414,12.224,12.3093,12.3978,12.4565,12.4991,12.4991,12.4991,12.4991,12.4991,12.4991,12.4991,12.4991,12.4991,12.4991,12.4991,12.4991,12.4991,12.4991,12.4991,12.4991,12.4991,12.4991,12.4991,12.4991,12.4991,12.4991,12.4991,12.4991,12.4991,12.4991,12.4991,12.4991,12.4991,12.4991,12.4991,12.4991,12.5249,12.5721,12.6577,12.7458,12.7974,12.7974,12.8741,12.9228,12.9228,12.9744,13.0056,13.0056,13.0056,13.0056,13.0056,13.0056,13.0056,13.0056,13.0056,13.0056,13.0056,13.0056,13.0056,13.0056,13.0056,13.0056,5.8578,6.2115,6.557,6.6179,6.8937,7.206,7.4074,7.5149,7.6345,7.8647,7.8023,7.7113,7.717,7.6802,7.6632,7.7113,7.7881,7.9124,8.1163,8.4126,8.8499,9.5,9.8778,10.2849,10.7817,10.9341,11.0012,11.0012,11.0746,11.1581,11.2481,11.3274,11.4125,11.5063,11.5063,11.5063,11.5063,11.5063,11.5063,11.5063,11.586,11.6651,11.7448,11.8349,11.9174,11.9943,11.9943,11.9943,12.0,12.0655,12.1367,12.2211,12.3379,12.4177,12.4679,12.4907,12.4991,12.4991,12.4991,12.4991,12.4991,12.4991,12.4991,12.4991,12.4991,12.4991,12.4991,12.4991,12.4991,12.4991,12.4991,12.4991,12.4991,12.4991,12.4991,12.4991,12.4991,12.4991,12.4991,12.4991,12.4991,12.4991,12.4991,12.4991,12.4991,12.4991,12.4991,12.5189,12.5721,12.635,12.6873,12.7087,12.783,12.8331,12.8331,12.8916,12.9403,12.9615,12.9615,12.9615,12.9615,12.9615,12.9759,13.0056,13.0056,13.0056,13.0056,13.0056,13.0056,13.0056,13.0056,13.0056,5.8566,6.1199,6.3915,6.4446,6.6224,6.8554,7.1006,7.2382,7.4009,7.7113,7.7738,7.7369,7.6066,7.581,7.5835,7.581,7.6916,7.9565,8.4756,8.5853,8.949,9.8592,10.0369,10.2631,10.7049,10.9037,11.0012,11.0012,11.0746,11.1581,11.2481,11.3274,11.4125,11.5063,11.5063,11.5063,11.5063,11.5063,11.5063,11.5063,11.586,11.6651,11.7448,11.8349,11.9174,11.9943,11.9943,11.9943,11.9943,11.9943,12.0484,12.1481,12.3152,12.3835,12.3949,12.4679,12.4991,12.4991,12.4991,12.4991,12.4991,12.4991,12.4991,12.4991,12.4991,12.4991,12.4991,12.4991,12.4991,12.4991,12.4991,12.4991,12.4991,12.4991,12.4991,12.4991,12.4991,12.4991,12.4991,12.4991,12.4991,12.4991,12.4991,12.4991,12.4991,12.4991,12.4991,12.4991,12.5021,12.5021,12.5333,12.6062,12.7003,12.7519,12.7519,12.7519,12.786,12.8643,12.8673,12.8673,12.8673,12.8673,12.9129,13.0056,13.0056,13.0056,13.0056,13.0056,13.0056,13.0056,13.0056,13.0056,5.673,5.9247,6.2009,6.4137,6.599,6.7709,6.933,7.1787,7.3891,7.4436,7.5548,7.6319,7.5867,7.581,7.581,7.581,7.6546,7.7635,7.9316,8.302,8.7744,9.3558,9.7709,10.2014,10.7011,10.848,10.9353,10.9974,11.0278,11.0746,11.1581,11.2454,11.3278,11.4125,11.4721,11.5063,11.5063,11.5063,11.5063,11.5063,11.5318,11.586,11.6651,11.7476,11.8329,11.9146,11.9715,11.9943,11.9943,11.9943,12.0114,12.0484,12.1652,12.2781,12.3864,12.408,12.4536,12.4991,12.4991,12.4991,12.4991,12.4991,12.4991,12.4991,12.4991,12.4991,12.4991,12.4991,12.4991,12.4991,12.4991,12.4991,12.4991,12.4991,12.4991,12.4991,12.4991,12.4991,12.4991,12.4991,12.4991,12.4991,12.4991,12.4991,12.4991,12.4991,12.4991,12.4991,12.4991,12.4991,12.5105,12.5362,12.6092,12.6577,12.6577,12.7147,12.7602,12.786,12.7315,12.7231,12.786,12.786,12.8028,12.8316,12.8316,12.8574,12.9114,12.9114,12.9455,13.0056,13.0056,13.0056,5.5902,5.8375,6.0908,6.2897,6.3988,6.5228,6.7855,6.9973,7.1713,7.285,7.3984,7.4897,7.5355,7.544,7.544,7.544,7.6205,7.6774,7.6774,8.0286,8.4465,8.8827,9.4025,9.9269,10.4466,10.7204,10.9024,10.9936,11.0012,11.0392,11.1137,11.1721,11.2568,11.3702,11.4239,11.4721,11.5063,11.5063,11.5063,11.5063,11.5063,11.5491,11.6251,11.6765,11.7448,11.8301,11.8776,11.9174,11.9488,11.9488,11.9658,12.0,12.0569,12.1623,12.2953,12.3607,12.411,12.4565,12.4907,12.4991,12.4991,12.4991,12.4991,12.4991,12.4991,12.4991,12.4991,12.4991,12.4991,12.4991,12.4991,12.4991,12.4991,12.4991,12.4991,12.4991,12.4991,12.4991,12.4991,12.4991,12.4991,12.4991,12.4991,12.4991,12.4991,12.4991,12.4991,12.4991,12.4991,12.4991,12.4991,12.4991,12.5409,12.5691,12.5691,12.6206,12.6661,12.7003,12.6176,12.6092,12.6973,12.7003,12.7147,12.7519,12.7519,12.7747,12.8218,12.8218,12.8544,12.9114,12.9114,12.9114,5.5902,5.8227,6.0346,6.1059,6.0988,6.1964,6.6543,6.736,6.8181,7.1944,7.2821,7.3297,7.4445,7.4704,7.4815,7.4903,7.5924,7.6717,7.6717,7.8113,8.0653,8.4791,9.0155,9.5453,10.0401,10.5551,10.8948,10.9936,11.0012,11.0328,11.1087,11.1137,11.1934,11.3475,11.3642,11.4125,11.4976,11.5036,11.5063,11.5063,11.5063,11.5491,11.6175,11.6223,11.6651,11.7334,11.7382,11.7866,11.8671,11.8756,11.9174,11.9857,11.9943,12.0455,12.1395,12.3038,12.3721,12.3949,12.465,12.4962,12.4991,12.4991,12.4991,12.4991,12.4991,12.4991,12.4991,12.4991,12.4991,12.4991,12.4991,12.4991,12.4991,12.4991,12.4991,12.4991,12.4991,12.4991,12.4991,12.4991,12.4991,12.4991,12.4991,12.4991,12.4991,12.4991,12.4991,12.4991,12.4991,12.4991,12.4991,12.4991,12.4991,12.4991,12.4991,12.4991,12.5333,12.6032,12.5379,12.5333,12.6032,12.6062,12.6463,12.7329,12.7359,12.7375,12.7405,12.7405,12.7473,12.7519,12.7519,12.7519,5.582,5.6851,5.7993,6.0726,6.2574,6.401,6.5058,6.652,6.7928,6.8866,7.0409,7.185,7.2618,7.3582,7.4524,7.544,7.5838,7.6063,7.6063,8.0092,8.3436,8.4442,9.1995,9.8137,10.0649,10.5095,10.8366,10.9898,11.0012,11.0088,11.0278,11.086,11.1365,11.1782,11.3019,11.3816,11.4044,11.4721,11.5063,11.5063,11.5063,11.5177,11.5378,11.5974,11.6337,11.6565,11.7155,11.7524,11.7752,11.8463,11.8898,11.9126,11.9715,12.0085,12.0399,12.1509,12.2696,12.3835,12.4063,12.4481,12.4991,12.4991,12.4991,12.4991,12.4991,12.4991,12.4991,12.4991,12.4991,12.4991,12.4991,12.4991,12.4991,12.4991,12.4991,12.4991,12.4991,12.4991,12.4991,12.4991,12.4991,12.4991,12.4991,12.4991,12.4991,12.4991,12.4991,12.4991,12.4991,12.4991,12.4991,12.4991,12.4991,12.4991,12.4991,12.4991,12.5076,12.5249,12.5105,12.5076,12.5265,12.5265,12.5362,12.559,12.559,12.5864,12.6488,12.6488,12.6805,12.7519,12.7519,12.7519,5.5747,5.7099,5.8213,5.9562,6.0793,6.1839,6.2511,6.4156,6.5802,6.684,6.8546,7.0253,7.1476,7.2245,7.3212,7.4752,7.5693,7.6177,7.5838,7.9245,8.1661,8.1363,8.7861,9.3659,9.6987,10.1669,10.5814,10.9148,10.9785,11.0012,11.0012,11.043,11.0822,11.1175,11.2086,11.2906,11.3729,11.4212,11.4439,11.4439,11.4862,11.5063,11.509,11.5519,11.5719,11.5747,11.6137,11.6537,11.6907,11.739,11.8073,11.8813,11.924,11.963,12.0,12.0484,12.1509,12.2792,12.3578,12.408,12.4506,12.4877,12.4991,12.4991,12.4991,12.4991,12.4991,12.4991,12.4991,12.4991,12.4991,12.4991,12.4991,12.4991,12.4991,12.4991,12.4991,12.4991,12.4991,12.4991,12.4991,12.4991,12.4991,12.4991,12.4991,12.4991,12.4991,12.4991,12.4991,12.4991,12.4991,12.4991,12.4991,12.4991,12.4991,12.4991,12.4991,12.4991,12.4991,12.4991,12.4991,12.4991,12.4991,12.4991,12.4991,12.5219,12.5607,12.5607,12.5864,12.635,12.635,12.635,5.582,5.7812,5.9129,5.8295,5.8125,5.8499,5.9931,6.1387,6.3042,6.527,6.6953,6.8629,7.04,7.0969,7.1732,7.3464,7.5232,7.6177,7.5725,7.734,7.8334,7.7682,8.218,8.7139,9.1646,9.7324,10.2633,10.7334,10.8991,10.986,11.0012,11.0012,11.0354,11.1011,11.1137,11.187,11.3301,11.3301,11.3475,11.3729,11.4493,11.4949,11.5063,11.5063,11.5063,11.5063,11.5063,11.5464,11.6088,11.6196,11.7076,11.8415,11.8671,11.9174,11.9772,11.9915,12.0427,12.131,12.2895,12.3523,12.3739,12.4536,12.4793,12.4848,12.4962,12.4991,12.4991,12.4991,12.4991,12.4991,12.4991,12.4991,12.4991,12.4991,12.4991,12.4991,12.4991,12.4991,12.4991,12.4991,12.4991,12.4991,12.4991,12.4991,12.4991,12.4991,12.4991,12.4991,12.4991,12.4991,12.4991,12.4991,12.4991,12.4991,12.4991,12.4991,12.4991,12.4991,12.4991,12.4991,12.4991,12.4991,12.4991,12.4991,12.4991,12.4991,12.4991,12.4991,12.4991,12.4991,12.4991,12.4991,5.6053,5.7012,5.7765,5.8065,5.8125,5.8325,5.9117,6.0072,6.1401,6.3502,6.5262,6.6964,6.8538,7.0111,7.1424,7.2273,7.3578,7.4606,7.4929,7.666,7.7653,7.7027,8.1911,8.5884,8.7352,9.4998,10.0847,10.3055,10.6747,10.9201,10.9974,11.0012,11.0088,11.0202,11.086,11.1289,11.1593,11.1593,11.2314,11.3729,11.3843,11.4325,11.5063,11.5063,11.5063,11.5063,11.5063,11.515,11.5291,11.5974,11.6403,11.6765,11.8215,11.8832,11.904,11.9687,12.0057,12.0285,12.13,12.2097,12.2799,12.3721,12.3996,12.411,12.4793,12.4991,12.4991,12.4991,12.4991,12.4991,12.4991,12.4991,12.4991,12.4991,12.4991,12.4991,12.4991,12.4991,12.4991,12.4991,12.4991,12.4991,12.4991,12.4991,12.4991,12.4991,12.4991,12.4991,12.4991,12.4991,12.4991,12.4991,12.4991,12.4991,12.4991,12.4991,12.4991,12.4991,12.4991,12.4991,12.4991,12.4991,12.4991,12.4991,12.4991,12.4991,12.4991,12.4991,12.4991,12.4991,12.4991,12.4991,5.6511,5.7342,5.7835,5.8073,5.8125,5.8203,5.8484,5.9936,6.1343,6.1793,6.4252,6.6466,6.7063,6.8835,7.0504,7.1424,7.2671,7.3838,7.473,7.6234,7.6999,7.6347,7.9193,8.2345,8.5095,9.19,9.746,10.0633,10.5691,10.8834,10.9277,10.9721,11.0012,11.0012,11.0392,11.0582,11.0582,11.0947,11.1847,11.3073,11.3502,11.4212,11.5063,11.5063,11.5063,11.5063,11.5063,11.5063,11.509,11.5491,11.586,11.631,11.7076,11.7638,11.8121,11.9012,11.9288,11.943,12.0256,12.1139,12.1984,12.2799,12.3093,12.3236,12.408,12.3996,12.3709,12.4194,12.4337,12.4451,12.4877,12.4991,12.4991,12.4991,12.4991,12.4991,12.4991,12.4991,12.4991,12.4991,12.4991,12.4991,12.4991,12.4991,12.4991,12.4991,12.4991,12.4991,12.4991,12.4991,12.4991,12.4991,12.4991,12.4991,12.4991,12.4991,12.4991,12.4991,12.4991,12.4991,12.4991,12.4991,12.4991,12.4991,12.4991,12.4991,12.4991,12.4991,12.4991,12.4991,12.4991,12.4991,5.7333,0.0,5.8359,5.8489,5.854,5.851,0.0,5.9892,6.1287,6.1044,6.355,6.5908,6.6344,6.8044,6.9702,7.0741,7.2159,7.3497,7.4673,7.5696,7.6262,7.6066,7.7058,7.9156,8.2683,8.7894,9.3034,9.7814,10.3234,10.7002,10.8593,10.9315,10.9823,11.0012,11.0012,11.0012,11.0012,11.0632,11.1455,11.2572,11.3164,11.4011,11.5063,11.5063,11.5063,11.5063,11.5063,11.5063,11.5063,11.5063,11.5432,11.5996,11.6175,11.6592,11.7248,11.8121,11.8577,11.8832,11.943,12.0228,12.1082,12.1669,12.204,12.2343,12.3236,12.2895,12.2381,12.3266,12.3523,12.3625,12.4224,12.4565,12.4709,12.4709,12.4877,12.4991,12.4991,12.4991,12.4991,12.4991,12.4991,12.4991,12.4991,12.4991,12.4991,12.4991,12.4991,12.4991,12.4991,12.4991,12.4991,12.4991,12.4991,12.4991,12.4991,12.4991,12.4991,12.4991,12.4991,12.4991,12.4991,12.4991,12.4991,12.4991,12.4991,12.4991,12.4991,12.4991,12.4991,12.4991,12.4991,12.4991,0.0,5.8992,5.9126,5.9624,5.9753,5.9624,5.9126,5.9549,0.0,6.2262,6.322,6.4508,6.6896,6.8489,6.9583,7.0149,7.1846,7.3497,7.4673,7.4903,7.5412,7.6575,7.7314,7.8097,7.904,8.2664,8.7357,9.3146,9.7228,10.213,10.8325,10.8694,10.9163,11.0012,11.0012,11.0012,11.0012,11.0088,11.095,11.2572,11.2595,11.3506,11.5063,11.5063,11.5063,11.5063,11.5063,11.5063,11.5063,11.5063,11.509,11.5204,11.5974,11.6289,11.6424,11.722,11.8073,11.8785,11.8804,11.9374,12.0057,12.0085,12.0683,12.1538,12.2325,12.2012,12.1528,12.2343,12.2542,12.2571,12.2638,12.3254,12.3882,12.3882,12.4451,12.4991,12.4991,12.4991,12.4991,12.4991,12.4991,12.4991,12.4991,12.4991,12.4991,12.4991,12.4991,12.4991,12.4991,12.4991,12.4991,12.4991,12.4991,12.4991,12.4991,12.4991,12.4991,12.4991,12.4991,12.4991,12.4991,12.4991,12.4991,12.4991,12.4991,12.4991,12.4991,12.4991,12.4991,12.4991,12.4991,12.4991,5.8966,5.9308,5.9624,5.9831,5.9883,5.9831,5.9624,6.0175,6.091,6.1669,6.2753,6.4077,6.5704,6.7352,6.8692,6.9556,7.1614,7.324,7.3671,7.4701,7.5497,7.5554,7.6518,7.7255,7.7511,8.0977,8.5562,9.1119,9.5437,10.0282,10.604,10.7847,10.8834,10.9163,10.8696,10.8961,11.0012,10.9455,10.9998,11.1721,11.2279,11.3138,11.4239,11.4808,11.5063,11.5063,11.5063,11.5063,0.0,11.5063,11.5063,11.509,11.5405,11.5519,11.5633,11.6403,11.6907,11.7276,11.7752,11.8463,11.924,11.924,11.9772,12.0512,12.0787,12.0341,12.0,12.1367,12.1727,12.1841,12.2314,12.2685,12.298,12.298,12.3625,12.4291,12.4291,12.465,12.4991,12.4991,12.4991,12.4991,12.4991,12.4991,12.4991,12.4991,12.4991,12.4991,12.4991,12.4991,12.4991,12.4991,12.4991,12.4991,12.4991,12.4991,12.4991,12.4991,12.4991,12.4991,12.4991,12.4991,12.4991,12.4991,12.4991,12.4991,12.4991,12.4991,12.4991,12.4991,12.4991,12.4991,5.949,5.9857,6.0173,6.0377,6.0429,6.0377,6.0173,6.0769,6.1389,6.1519,6.2803,6.4092,6.4817,6.6793,6.8326,6.8424,7.1058,7.2971,7.265,7.4269,7.5355,7.4903,7.581,7.6489,7.6489,7.8894,8.2571,8.7662,9.2029,9.6826,10.2225,10.5675,10.599,10.2747,10.4073,10.5403,10.6567,10.6244,10.7658,11.0822,11.1987,11.2963,11.3756,11.4667,11.5063,11.5063,11.5063,11.5063,11.5063,11.5063,11.5063,11.5063,11.5063,11.5063,11.515,11.5654,11.6023,11.631,11.6851,11.7618,11.8321,11.8321,11.869,11.9174,11.9488,11.9012,11.8643,12.0085,12.0683,12.0996,12.1528,12.187,12.2097,12.2097,12.2752,12.3397,12.3397,12.4063,12.462,12.462,12.4793,12.4991,12.4991,12.4991,12.4991,12.4991,12.4991,12.4991,12.4991,12.4991,12.4991,12.4991,12.4991,12.4991,12.4991,12.4991,12.4991,12.4991,12.4991,12.4991,12.4991,12.4991,12.4991,12.4991,12.4991,12.4991,12.4991,12.4991,12.4991,12.4991,12.4991,12.4991,6.0384,6.0646,6.0802,6.1465,6.1618,6.1465,6.0799,6.1159,6.1738,6.2119,6.3468,6.4509,6.456,6.7188,6.8705,6.666,7.0116,7.2724,7.1712,7.345,7.4847,7.4847,7.5412,7.581,7.581,7.5784,7.7679,8.226,8.6287,9.1005,9.6771,10.195,10.0134,9.0016,9.5802,9.9133,9.922,10.0088,10.3739,11.0012,11.171,11.2936,11.3729,11.4672,11.5063,11.5063,11.5063,11.5063,11.5063,11.5063,11.5063,11.5063,11.5063,11.5063,11.5063,11.5063,11.554,11.6223,11.6223,11.6765,11.7382,11.7382,11.7382,11.759,11.8463,11.8093,11.759,11.8491,11.9288,11.9943,11.9943,12.0598,12.1281,12.1281,12.187,12.2428,12.2428,12.314,12.3806,12.3806,12.4422,12.4991,12.4991,12.4991,12.4991,12.4991,12.4991,12.4991,12.4991,12.4991,12.4991,12.4991,12.4991,12.4991,12.4991,12.4991,12.4991,12.4991,12.4991,12.4991,12.4991,12.4991,12.4991,12.4991,12.4991,12.4991,12.4991,12.4991,12.4991,12.4991,12.4991,12.4991,6.0487,6.0981,6.1387,6.1592,6.1618,6.1569,6.1364,6.1491,6.1846,6.2577,6.3119,6.3845,6.5241,6.6442,6.7482,6.8326,7.0455,7.2157,7.2576,7.4295,7.533,7.4903,7.5412,7.581,7.581,7.5144,7.6484,8.0778,8.1276,8.4089,9.0306,9.1389,9.2933,9.5447,9.6712,9.9819,10.4949,10.4728,10.6078,10.9062,11.024,11.119,11.1972,11.3414,11.4125,11.4185,11.4808,11.5063,11.5063,11.5063,11.5063,11.5063,11.5063,11.5063,11.5063,11.5063,11.5204,11.5432,11.5432,11.5947,11.6592,11.6592,11.6965,11.7362,11.7076,11.6793,11.6765,11.759,11.7979,11.8293,11.8946,11.9715,12.0341,12.0341,12.1025,12.1642,12.1642,12.2296,12.2895,12.2895,12.3026,12.3397,12.4063,12.4177,12.4337,12.4907,12.4991,12.4991,12.4991,12.4991,12.4991,12.4991,12.4991,12.4991,12.4991,12.4991,12.4991,12.4991,12.4991,12.4991,12.4991,12.4991,12.4991,12.4991,12.4991,12.4991,12.4991,12.4991,12.4991,12.4991,12.4991,12.4991,6.0822,6.1312,6.1618,6.1618,6.1618,6.1618,6.1618,6.1618,6.1872,6.2792,6.2973,6.3535,6.5388,6.6375,6.7259,6.8357,7.0575,7.2231,7.2453,7.4162,7.5298,7.4875,7.4803,7.4981,7.5389,7.4719,7.5179,7.7459,7.798,7.9241,8.1617,8.287,8.4653,8.7147,8.9041,9.3216,9.9844,9.9763,10.2401,10.7759,10.8898,10.991,11.0784,11.2124,11.3073,11.3756,11.4298,11.4721,11.5063,11.5063,11.5063,11.5063,11.5063,11.5063,11.5063,11.5063,11.5063,11.5063,11.5063,11.5378,11.5768,11.5768,11.6082,11.6403,11.5882,11.5768,11.5974,11.6737,11.6927,11.7134,11.8007,11.8577,11.9032,11.9374,11.9886,12.037,12.0683,12.1414,12.1984,12.1984,12.2267,12.2638,12.3169,12.3254,12.3578,12.4422,12.4536,12.465,12.4962,12.4991,12.4991,12.4991,12.4991,12.4991,12.4991,12.4991,12.4991,12.4991,12.4991,12.4991,12.4991,12.4991,12.4991,12.4991,12.4991,12.4991,12.4991,12.4991,12.4991,12.4991,12.4991,12.4991,6.1306,6.1618,6.1618,6.1618,6.1618,6.1618,6.1618,6.1618,6.1875,6.273,6.3079,6.3654,6.5176,6.6803,6.7806,6.7433,7.048,7.2566,7.1727,7.3384,7.4701,7.4758,7.3924,7.3699,7.4591,7.4313,7.3732,7.3024,7.5717,7.5846,7.2306,7.6095,7.6301,7.1774,7.7077,8.27,8.8305,8.9616,9.5413,10.5562,10.7008,10.8434,10.9797,11.0173,11.142,11.3388,11.3528,11.4098,11.4835,11.4922,11.4949,11.4949,11.5036,11.5063,11.5063,11.5063,11.5063,11.5063,11.5063,11.5063,11.5063,11.5063,11.5036,11.4949,11.4949,11.4927,11.4976,11.5768,11.5996,11.6196,11.7107,11.7269,11.7524,11.8443,11.8671,11.887,11.9658,12.0484,12.1082,12.1168,12.1727,12.2267,12.2343,12.2343,12.2667,12.3578,12.3721,12.3966,12.4764,12.4877,12.4877,12.4764,12.4848,12.4877,12.4877,12.4962,12.4991,12.4991,12.4991,12.4991,12.4991,12.4991,12.4991,12.4991,12.4991,12.4991,12.4991,12.4991,12.4991,12.4991,12.4991,12.4991,6.1306,6.1618,6.1618,6.1618,6.1618,6.1618,6.1618,6.1618,6.1794,6.2399,6.383,6.4943,6.4905,6.6843,6.842,6.8345,6.9871,7.1328,7.1915,7.2837,7.3667,7.4151,7.4008,7.3829,7.3651,7.28,7.1809,7.0757,7.2156,7.1955,6.9434,7.0608,7.3036,7.6642,7.8516,8.2113,8.7618,9.2618,9.6689,9.9768,10.0089,10.2992,10.7935,10.5011,10.6334,11.0886,11.2215,11.294,11.3142,11.3756,11.4011,11.4098,11.4808,11.5063,11.5063,11.5063,11.5063,11.5063,11.5063,11.5063,11.5063,11.5063,11.458,11.4011,11.4011,11.3593,11.3251,11.4038,11.4271,11.4602,11.6109,11.6479,11.6679,11.7496,11.7704,11.7959,11.8804,11.9174,11.9496,12.0114,12.0332,12.0702,12.1414,12.1528,12.1822,12.2638,12.2752,12.3055,12.3978,12.4092,12.3806,12.3093,12.3625,12.4092,12.4092,12.465,12.4991,12.4991,12.4991,12.4991,12.4991,12.4991,12.4991,12.4991,12.4991,12.4991,12.4991,12.4991,12.4991,12.4991,12.4991,12.4991,6.1306,6.1618,6.1618,6.1618,6.1618,6.1618,6.1618,6.1618,6.1916,6.2929,6.362,6.454,6.6295,6.7344,6.8388,6.9621,7.0245,7.0909,7.196,7.2254,7.2778,7.3927,7.3134,7.2882,7.3927,7.2639,7.1469,7.0885,7.1367,7.0756,6.8533,6.9154,7.0888,7.3855,7.4565,7.7721,8.35,8.6726,9.0024,9.3436,9.6111,9.7946,9.8925,9.9605,10.193,10.5539,10.6775,10.9068,11.1949,11.2796,11.3164,11.3187,11.3674,11.3875,11.3875,11.3875,11.4103,11.4412,11.4412,11.4694,11.4949,11.413,11.3533,11.3164,11.3164,11.3138,11.3138,11.3164,11.3414,11.393,11.4808,11.5036,11.5264,11.6082,11.6565,11.6993,11.7448,11.7845,11.8235,11.8662,11.8719,11.9032,11.9952,12.0094,12.0484,12.1727,12.187,12.2211,12.3055,12.2839,12.2582,12.2495,12.2895,12.314,12.314,12.3578,12.3768,12.3768,12.3768,12.3768,12.3768,12.4194,12.4422,12.4422,12.4793,12.4991,12.4991,12.4991,12.4991,12.4991,12.4991,12.4991,6.1306,6.1618,6.1618,6.1618,6.1618,6.1618,6.1618,6.1618,6.2031,6.3395,6.3349,6.4047,6.7249,6.7884,6.8466,7.007,7.053,7.0915,7.1596,7.1413,7.1822,7.3511,7.2033,7.1761,7.3938,7.2685,7.1571,7.1189,7.1316,7.0526,6.8533,6.9224,6.9512,6.908,6.9574,7.2371,7.751,7.8727,8.1835,8.6923,9.1637,9.2345,8.9541,9.3338,9.6918,10.0107,10.0871,10.4833,11.0833,11.1748,11.2192,11.2344,11.2481,11.2572,11.2572,11.2572,11.2963,11.3502,11.3502,11.4011,11.4444,11.299,11.2458,11.2317,11.2317,11.2682,11.2959,11.2454,11.2796,11.3361,11.3642,11.3615,11.3729,11.4607,11.535,11.5768,11.5768,11.6537,11.7248,11.7382,11.7382,11.7638,11.8415,11.8557,11.9012,12.037,12.074,12.1139,12.1926,12.1338,12.1168,12.1955,12.2182,12.2267,12.2267,12.241,12.2457,12.2457,12.2457,12.2457,12.2457,12.3169,12.3607,12.3607,12.4224,12.4536,12.4536,12.4709,12.4793,12.4793,12.4936,12.4991,6.1306,6.1618,6.1618,6.1618,6.1618,6.1618,6.1618,6.1618,6.1823,6.2463,6.4299,6.5563,6.4876,6.7977,6.9877,6.7472,6.9318,7.08,7.0053,6.9892,7.0485,7.218,7.1809,7.1401,7.1307,7.1576,7.0934,6.8994,6.971,6.9685,6.8482,6.8559,6.8611,6.8535,6.8638,6.926,7.0535,7.6375,7.9732,8.052,8.1735,8.4521,8.8458,8.5143,8.9013,9.8335,9.9133,10.3099,10.9062,10.9986,11.0772,11.1467,11.2241,11.2572,11.2572,11.2572,11.2595,11.2709,11.2709,11.28,11.2823,11.2621,11.1987,11.1365,11.1365,11.0974,11.0632,11.1201,11.1441,11.1858,11.3334,11.3187,11.291,11.3729,11.3957,11.4044,11.4044,11.5285,11.6592,11.7269,11.7382,11.7448,11.759,11.759,11.7638,11.7866,11.8577,11.9374,12.0171,11.9601,11.9402,12.0199,12.0996,12.1481,12.1481,12.2069,12.2457,12.2457,12.2457,12.2457,12.2457,12.2571,12.2638,12.2638,12.2752,12.277,12.277,12.3607,12.3978,12.3996,12.4679,12.4991,6.0848,6.1338,6.1618,6.1618,6.1618,6.1618,6.1618,6.1618,6.1777,6.2276,6.36,6.489,6.5737,6.7519,6.8895,6.9063,6.9466,6.9689,6.9593,6.96,6.9774,7.0316,7.0205,7.0285,7.0716,7.0464,7.0053,6.9352,6.9173,6.8892,6.8457,6.8405,6.8405,6.8405,6.8405,6.8535,6.8743,7.199,7.3971,7.4654,7.8032,7.9422,7.9111,8.0191,8.3316,8.7984,8.884,9.2552,9.8052,9.8947,9.9686,10.0648,10.4365,10.5962,10.6618,10.9946,11.1417,11.1797,11.1797,10.9322,10.6761,11.0078,11.0848,11.0518,11.0518,11.0594,11.067,11.0556,11.086,11.1365,11.2124,11.2037,11.2025,11.2849,11.3388,11.3729,11.3729,11.4694,11.5719,11.6023,11.6109,11.6223,11.6679,11.6765,11.6907,11.7362,11.7752,11.7979,11.7866,11.7959,11.8121,11.8463,11.8862,11.9126,11.9126,11.9459,11.9621,11.9621,11.9621,11.9621,11.9621,12.0531,12.1044,12.1044,12.1973,12.2457,12.2457,12.2895,12.3055,12.3055,12.3397,12.3566,6.0465,6.0981,6.139,6.1569,6.1618,6.1618,6.1618,6.1618,6.1794,6.242,6.3273,6.4482,6.64,6.7344,6.8344,6.9869,6.9629,6.9334,6.9568,6.9359,6.9187,6.9169,6.8847,6.8962,6.9806,6.9483,6.9276,6.937,6.8657,6.8301,6.8431,6.8405,6.8405,6.8405,6.8405,6.8405,6.8405,6.8795,6.9522,7.0561,7.4904,7.5079,7.1653,7.5843,7.8624,8.0141,8.0821,8.4345,8.9662,9.0366,9.0978,9.1968,9.6378,9.8302,9.9189,10.37,10.5721,10.6196,10.6092,10.3849,10.154,10.4402,10.6481,10.7801,10.7801,10.8211,10.8873,10.9748,11.0442,11.0936,11.1137,11.1023,11.1125,11.1987,11.2655,11.3073,11.3073,11.3783,11.4493,11.4694,11.4721,11.4981,11.5768,11.5974,11.6088,11.6424,11.6813,11.6907,11.631,11.6765,11.722,11.7382,11.7382,11.7382,11.7382,11.7382,11.7382,11.7382,11.7382,11.7382,11.7382,11.8634,11.9288,11.9288,12.0531,12.1186,12.1186,12.1414,12.1613,12.1812,12.2069,12.2267,6.0384,6.0672,6.0851,6.1465,6.1618,6.1618,6.1618,6.1618,6.1875,6.2773,6.4268,6.542,6.5397,6.795,6.9418,6.7566,6.9374,7.0679,6.9721,6.8732,6.8466,6.9435,6.8356,6.7533,6.759,6.8577,6.8788,6.7854,6.7727,6.791,6.8405,6.8405,6.8405,6.8405,6.8405,6.8405,6.8405,6.8431,6.8743,6.9288,7.0199,7.0773,7.1001,7.1295,7.4587,8.0086,8.0141,8.3733,8.963,8.9662,9.0211,9.104,9.1331,9.1469,9.1599,9.238,9.2698,9.2687,9.2158,9.5746,9.9653,9.4394,9.6765,10.1716,10.1716,10.1716,10.2925,10.8491,11.005,11.0278,11.0985,11.0632,11.0278,11.1087,11.1289,11.1327,11.1327,11.2025,11.2914,11.3642,11.3816,11.4071,11.4976,11.515,11.4835,11.4044,11.5258,11.6289,11.6223,11.6289,11.6592,11.7334,11.7382,11.7382,11.7382,11.7382,11.7382,11.7382,11.7382,11.7382,11.7382,11.7496,11.7524,11.7524,11.761,11.7638,11.7638,11.8557,11.9316,12.0085,12.094,12.1756,5.9939,6.041,6.0799,6.1465,6.1618,6.1618,6.1618,6.1618,6.1872,6.2792,6.3798,6.4874,6.6081,6.7611,6.8756,6.903,6.9877,7.0087,6.8773,6.9407,6.919,6.6869,6.7324,6.7473,6.6549,6.6845,6.6931,6.6558,6.7209,6.7729,6.791,6.8249,6.8405,6.8405,6.8405,6.8405,6.8405,6.8405,6.8509,6.8717,6.9288,6.9859,7.0457,7.0794,7.2118,7.4215,7.4568,7.5987,7.8127,7.8127,7.8549,7.9596,8.3372,8.5057,8.5825,8.9814,9.1256,9.0693,8.6709,8.6854,8.9024,9.0703,9.2805,9.5281,9.8816,9.9898,10.1081,10.6777,10.8746,10.9201,10.9479,10.9797,11.0088,11.0392,11.0795,11.1175,11.1175,11.1911,11.2621,11.291,11.2963,11.3077,11.3419,11.3446,11.3533,11.3702,11.4239,11.4602,11.4602,11.515,11.5605,11.5854,11.5882,11.5882,11.5882,11.5372,11.503,11.503,11.458,11.4266,11.4266,11.4781,11.5285,11.5882,11.6396,11.6907,11.7382,11.7724,11.8045,11.8321,11.8662,11.8946,5.887,5.9549,6.0276,6.0893,6.1335,6.1618,6.1618,6.1618,6.1964,6.3248,6.3846,6.4766,6.6728,6.7601,6.8424,6.9708,6.9751,6.9524,6.9155,6.9383,6.8684,6.6263,6.6579,6.6617,6.567,6.5548,6.5677,6.5885,6.6768,6.7417,6.7625,6.8145,6.8405,6.8405,6.8405,6.8405,6.8405,6.8405,6.8405,6.8431,6.8769,6.9158,6.96,7.0353,7.0769,7.0976,7.1519,7.1726,7.1726,7.1726,7.1988,7.2759,7.667,7.8396,7.9194,8.3313,8.4696,8.3926,8.0051,8.014,8.2277,8.4202,8.6254,8.8695,9.2355,9.346,9.4642,10.0343,10.2287,10.3161,10.4981,10.5915,10.689,10.9053,10.996,11.0416,11.072,11.1266,11.1786,11.2051,11.2063,11.2177,11.2481,11.2279,11.2367,11.3187,11.3046,11.3073,11.3642,11.4239,11.4721,11.5036,11.4808,11.4607,11.4607,11.3821,11.3301,11.3301,11.2823,11.2572,11.2572,11.305,11.362,11.4217,11.4721,11.5264,11.5768,11.5768,11.5882,11.6168,11.6168,11.6444,5.7212,5.8216,5.92,5.9727,6.0737,6.1543,6.1543,6.1566,6.2168,6.4074,6.456,6.5155,6.7009,6.7954,6.862,6.9223,6.8977,6.9238,7.0814,6.8466,6.6918,6.7838,6.619,6.4975,6.4927,6.4927,6.516,6.5833,6.6379,6.6925,6.7572,6.8118,6.8405,6.8405,6.8431,6.8405,6.8405,6.8405,6.8405,6.8405,6.8405,6.8405,6.8457,6.9626,7.0405,7.0924,7.1468,7.1675,7.1726,7.1726,7.1726,7.1726,7.1726,7.1726,7.1804,7.2429,7.2273,7.1726,7.1726,7.5859,8.0218,7.4514,7.6871,8.1922,8.2109,8.2163,8.3373,8.9243,9.089,9.2164,9.7462,9.8874,10.0468,10.6658,10.8247,10.8602,10.9487,10.9871,11.0176,11.0947,11.1137,11.1429,11.2317,11.1759,11.1467,11.2393,11.1759,11.1744,11.3414,11.3642,11.4044,11.4976,11.4239,11.3729,11.3729,11.2963,11.2507,11.2507,11.2458,11.2458,11.2484,11.2458,11.2458,11.2507,11.2507,11.2507,11.2572,11.2572,11.2936,11.3702,11.3702,11.4553,5.877,5.877,5.8614,5.9601,6.0117,6.0351,6.0351,6.087,6.1736,6.3111,6.4532,6.547,6.5383,6.703,6.8389,6.8289,6.9095,6.9548,6.8963,6.8804,6.8007,6.602,6.5948,6.5778,6.5,6.4927,6.5005,6.5185,6.5756,6.6196,6.6352,6.7313,6.7859,6.7859,6.8223,6.8405,6.8405,6.8405,6.8405,6.8405,6.8405,6.8405,6.8431,6.8743,6.9184,6.9729,7.0327,7.082,7.1184,7.1184,7.1363,7.1726,7.1726,7.1726,7.1753,7.191,7.1883,7.1726,7.1726,7.2907,7.4142,7.2527,7.3172,7.5378,7.9443,8.0664,8.1854,8.7552,8.9553,9.0339,9.1857,9.2722,9.3684,9.5435,9.8886,10.1848,10.2089,10.5789,10.9125,10.9327,10.9885,11.043,11.0684,11.0506,11.0848,11.2344,11.1266,11.0708,11.1744,11.2481,11.3446,11.4922,11.4239,11.3729,11.3729,11.2401,11.1543,11.1543,11.0416,10.9998,11.0658,11.01,11.0302,11.1543,11.1543,11.1873,11.2572,11.2572,11.2686,11.2876,11.2876,11.3104,5.6298,5.6168,5.6381,5.7995,5.8229,5.851,6.0221,6.0257,6.0548,6.2767,6.3597,6.4241,6.5197,6.6304,6.7267,6.7984,6.8701,6.8989,6.8361,6.8278,6.762,6.5802,6.5729,6.5583,6.4975,6.4927,6.4927,6.4927,6.5522,6.5885,6.5885,6.6742,6.7365,6.765,6.7936,6.8197,6.8405,6.8405,6.8405,6.8405,6.8405,6.8405,6.8405,6.8405,6.8717,6.9236,6.9886,7.0327,7.0639,7.0872,7.1105,7.1417,7.1649,7.1726,7.1726,7.1468,7.139,7.1417,7.1649,7.1726,7.1726,7.1726,7.1726,7.2318,7.5584,7.6594,7.7286,8.0534,8.1774,8.2678,8.502,8.6007,8.7092,8.9781,9.4649,9.8101,9.6117,10.2287,10.7486,10.5139,10.7002,10.9075,10.9417,10.9455,10.991,11.1292,11.0924,11.067,11.1137,11.1987,11.28,11.3392,11.3301,11.3073,11.2678,11.1467,11.0556,11.015,10.9213,10.8784,10.8961,10.8442,10.8796,11.0086,11.015,11.0594,11.1482,11.1482,11.1482,11.1482,11.1482,11.1482,5.1589,5.1927,5.3434,5.5384,5.5513,5.6173,0.0,5.9192,5.873,6.199,6.1866,6.2074,6.5139,6.5223,6.5586,6.7786,6.7821,6.7785,6.8357,6.726,6.6351,6.623,6.5434,6.4927,6.4927,6.4927,6.4927,6.4927,6.547,6.5781,6.5781,6.6301,6.6847,6.7417,6.7573,6.7859,6.8327,6.8405,6.8405,6.8405,6.8405,6.8405,6.8405,6.8405,6.8665,6.9132,6.973,6.999,7.0016,7.0535,7.0794,7.0925,7.1363,7.1546,7.1495,7.1028,7.0872,7.0924,7.1468,7.1649,7.1649,7.1726,7.1726,7.1726,7.1726,7.1726,7.1726,7.1726,7.1726,7.2883,7.7867,7.9135,8.0574,8.6252,9.1872,9.4819,9.0647,9.8051,10.4188,9.9865,10.3098,10.697,10.8314,10.8581,10.891,10.9721,11.048,11.0947,11.1023,11.1835,11.2063,11.1251,11.1987,11.2165,11.1251,11.0366,10.9505,10.872,10.8492,10.8113,10.7493,10.7405,10.7721,10.853,10.8505,10.8936,10.9747,10.9823,10.986,10.986,10.9974,10.9936,0.0,0.0,0.0,0.0,0.0,0.0,0.0,5.5342,5.6142,5.6983,5.888,6.0541,6.0789,6.2161,6.394,6.6036,6.6138,6.6284,6.7232,6.6501,6.555,6.4709,6.4786,6.4927,6.4927,6.4927,6.4927,6.4927,6.5031,6.5133,6.5133,6.5704,6.6118,6.6222,6.7182,6.7702,6.7806,6.8223,6.8405,6.8405,6.8405,6.8405,6.8405,6.8405,6.8483,6.8587,6.8716,6.8743,6.882,6.9314,6.9833,7.0327,7.0431,7.0483,7.0457,7.038,7.0328,7.0431,7.0897,7.1106,7.1184,7.1571,7.1726,7.1726,7.1726,7.1726,7.1726,7.1726,7.1726,7.1996,7.307,7.3366,7.366,7.4892,7.9468,8.3289,8.2387,8.7941,9.4107,9.75,9.9572,10.2246,10.6907,10.8227,10.8694,10.891,10.9062,10.9429,11.0138,11.0936,11.1391,11.1213,11.1987,11.2165,11.1251,10.9783,10.8834,10.8682,10.7481,10.6987,10.7481,10.6898,10.6936,10.7721,10.7721,10.7797,10.7974,10.8632,10.8936,10.8948,10.9683,10.9291,0.0,0.0,0.0,0.0,0.0,0.0,0.0,0.0,0.0,0.0,0.0,5.7464,5.8769,0.0,6.2597,6.4769,6.5723,6.6185,6.6201,6.5898,6.5317,6.4262,6.4613,6.4927,6.4927,6.4927,6.4927,6.4927,6.4927,6.4927,6.4927,6.5237,6.5573,6.5885,6.6456,6.6872,6.7158,6.7729,6.804,6.8015,6.8301,6.8405,6.8405,6.8405,6.8405,6.8405,6.8405,6.8405,6.8431,6.8691,6.9158,6.9652,6.9418,6.9288,6.934,6.9574,6.9678,6.9781,7.0379,7.0561,7.0587,7.0872,7.1105,7.1338,7.1338,7.1519,7.1726,7.1726,7.1726,7.1726,7.1726,7.1726,7.1726,7.1726,7.601,7.932,7.6516,8.2824,8.9031,8.9031,9.1636,9.5713,10.1686,10.3069,10.4259,10.7049,10.7835,10.8252,10.8696,10.9429,10.9619,10.8847,10.9519,10.9671,10.8835,10.7974,10.7645,10.8063,10.6949,10.6329,10.6241,10.5861,10.6038,10.6873,10.6911,10.7101,10.7493,10.7911,10.8075,10.8101,10.8544,10.8316,0.0,0.0,0.0,0.0,0.0,0.0,0.0,0.0,0.0,0.0,0.0,0.0,0.0,0.0,0.0,6.3297,6.4998,6.5764,6.5149,6.5051,6.4787,6.4106,6.4456,6.4797,6.4901,6.4927,6.4927,6.4927,6.4927,6.4927,6.4927,6.4927,6.516,6.5678,6.5833,6.6094,6.651,6.7158,6.7469,6.7469,6.8015,0.0,6.8275,6.8405,6.8405,6.8405,6.8405,6.8405,6.8405,6.8405,6.8691,6.9003,6.8587,6.8405,6.8483,6.8899,6.9054,6.9158,6.9755,6.9989,6.9989,7.0146,7.0457,7.0794,7.0794,7.1079,0.0,7.1417,7.1495,7.1571,7.1571,7.1649,7.1726,7.1726,7.5211,7.7205,7.2695,7.882,8.4199,8.0741,8.3728,8.9138,9.6482,9.5945,9.6432,10.2113,10.4497,10.5692,10.5743,10.7298,10.7949,10.6709,10.7139,10.7253,10.6595,10.6405,10.6595,10.7215,10.6494,10.5658,10.4798,10.4736,10.5064,10.5822,10.586,10.6215,10.7,10.7177,10.7266,10.7253,10.5899,10.5671,0.0,0.0,0.0,0.0,0.0,0.0,0.0,0.0,0.0,0.0,0.0,0.0,0.0,0.0,0.0,0.0,6.2146,6.3046,6.3973,6.3329,6.296,6.3407,6.3908,6.443,6.4899,6.4927,6.4927,6.4927,6.4927,6.4927,6.4927,6.4927,0.0,0.0,0.0,6.5911,6.5964,6.6535,6.6796,6.6796,6.7417,6.7754,6.7729,6.8223,6.8405,6.8405,6.8405,6.8405,6.8405,6.8405,6.8457,6.8509,6.8431,6.8405,6.8431,6.8483,6.8509,6.8587,6.9132,0.0,0.0,6.9989,7.0224,7.0276,7.0276,7.0302,7.0327,7.0327,7.0664,7.1028,7.1028,7.1363,7.1726,7.1726,7.2237,7.248,7.1861,7.2695,7.489,7.9241,8.0613,8.4438,9.5092,8.8685,8.4085,8.9925,9.549,9.9133,9.9364,10.4233,10.7531,10.7405,10.7417,0.0,10.7367,10.6747,10.6367,10.6443,10.5595,10.4785,10.3961,10.3923,10.3986,10.41,10.41,10.4468,10.5267,10.6038,10.6443,10.6329,10.0281,9.9105,0.0,0.0,0.0,0.0,0.0,0.0,0.0,0.0,0.0,0.0,0.0,0.0,0.0,0.0,0.0,0.0,5.964,6.0678,6.0578,6.181,6.2748,6.2809,6.3596,6.4222,6.4456,6.4769,6.4927,6.4927,6.4927,6.4927,6.4927,6.4927,6.4927,6.4927,6.5185,6.5341,6.5341,6.5912,6.6224,6.6224,6.6795,6.7081,6.7081,6.7703,6.7988,6.7988,6.8275,6.8405,6.8405,6.8405,6.8405,6.8405,0.0,0.0,0.0,0.0,6.8405,6.8457,6.8665,6.8743,6.8795,6.9054,6.934,6.9626,6.9626,6.9886,7.0172,7.0172,7.0354,7.0509,7.0509,7.0638,7.0898,7.1209,7.1287,7.1365,7.1675,7.1726,7.2427,7.4784,7.5238,0.0,8.5736,8.3179,8.3127,9.2113,9.5561,9.8384,10.1763,10.4921,10.6443,10.5455,10.5772,10.5823,10.5404,10.5063,0.0,0.0,0.0,10.4812,10.4481,10.4481,0.0,0.0,0.0,10.1976,10.2811,10.1254,0.0,0.0,9.7867,9.7055,0.0,0.0,0.0,0.0,0.0,0.0,0.0,0.0,0.0,0.0,0.0,0.0,0.0,0.0,0.0,0.0,5.713,5.8479,5.7132,5.9653,6.1543,6.1254,6.2666,6.3598,6.3466,6.4222,6.4717,6.4717,6.4847,6.4927,6.4927,6.4927,6.4927,6.4927,6.4927,6.4927,6.4927,6.5393,6.5626,6.5651,6.6173,6.6458,6.6484,6.7106,6.7469,6.7676,6.8066,6.8275,6.8405,6.8405,6.8405,6.8405,6.8405,6.8405,6.8405,6.8405,6.8405,6.8405,6.8405,6.8405,6.8405,6.8405,6.8665,6.9002,6.9002,6.9314,6.9678,6.9678,6.9782,6.9911,6.9911,7.0015,7.0354,7.1009,7.0954,7.0951,7.1791,7.1708,7.1546,7.1726,7.1495,7.2595,7.6649,7.736,8.008,8.8034,9.2003,9.5511,9.9432,10.3484,10.5493,10.424,10.4633,10.4722,10.4164,10.3923,10.4151,10.4925,10.476,10.4736,10.4963,10.4736,10.4647,10.4647,10.2217,10.0951,0.0,0.0,0.0,0.0,0.0,0.0,0.0,0.0,0.0,0.0,0.0,0.0,0.0,0.0,0.0,0.0,0.0,0.0,0.0,0.0,0.0,0.0,0.0,0.0,5.4289,5.6433,5.8299,5.8255,6.0744,6.2273,6.1774,6.3206,6.4144,6.4144,6.4639,6.4927,6.4927,6.4927,6.4927,6.4927,6.4927,6.4927,6.4927,6.4953,6.4977,6.4953,6.56,6.5911,6.5937,6.6458,6.7055,6.765,6.7676,6.7962,6.8405,6.8405,6.8405,6.8405,6.8405,6.8405,6.8405,6.8405,6.8405,6.8405,6.8405,6.8405,6.8405,6.8405,6.8431,6.8431,6.8431,6.8457,6.8483,6.8483,6.8847,6.9236,6.9236,6.9704,7.0408,7.1457,7.0933,7.0617,7.2172,7.1667,7.1105,7.165,7.0925,7.0276,7.046,7.0486,7.0382,7.0119,8.0171,0.0,8.7309,9.7685,10.5001,10.4901,10.4939,10.4939,10.4925,10.424,10.4151,10.4925,10.424,10.4164,10.4901,10.424,10.3834,10.3834,10.372,10.248,9.9954,0.0,0.0,0.0,0.0,0.0,0.0,0.0,0.0,0.0,0.0,0.0,0.0,0.0,0.0,0.0,0.0,0.0,0.0,0.0,0.0,0.0,0.0,0.0,0.0,5.4173,5.6329,5.5955,5.8472,5.9828,5.8866,6.0614,6.2016,6.2427,6.37,6.4561,6.4901,6.4927,6.4927,6.4927,6.4927,6.4927,6.4927,6.4927,6.4927,6.4927,6.5134,6.5263,6.5289,6.5886,6.6274,6.6482,6.6847,6.7365,6.791,6.791,6.7651,6.7314,6.7729,6.791,6.7962,6.8275,6.8405,6.8405,6.8405,6.8405,6.8405,6.8405,6.8405,6.8405,6.8405,6.8405,6.8405,6.8405,6.8561,6.8665,6.8665,6.8847,6.9365,7.0847,7.0329,6.9991,7.1642,7.1169,7.0483,7.0664,6.9444,6.8509,6.895,6.9678,7.1087,7.3786,7.8339,8.284,8.6735,9.4062,9.9058,9.9499,9.9571,10.1013,10.4666,10.1306,10.0745,10.474,10.4698,10.4684,10.4939,10.4202,10.3796,10.3796,10.3796,10.1454,9.6676,0.0,0.0,0.0,0.0,0.0,0.0,0.0,0.0,0.0,0.0,0.0,0.0,0.0,0.0,0.0,0.0,0.0,0.0,0.0,0.0,0.0,0.0,0.0,0.0,0.0,0.0,5.4468,5.6631,0.0,5.6818,5.7995,5.9008,5.9442,6.0845,6.2221,6.3319,6.3627,6.4094,6.4901,6.4927,6.4927,6.4927,6.4927,6.4927,6.4927,6.4927,6.4927,6.4927,6.5367,6.5703,6.5911,6.625,6.6743,6.7288,6.7105,6.6534,6.5808,6.6222,6.6038,6.5648,6.6743,6.7184,6.7288,6.8119,6.8405,6.8275,6.7445,6.6639,6.6144,6.6925,6.6613,6.6118,6.6742,6.7029,6.7314,6.7989,6.8301,6.8894,7.0778,7.006,6.9494,7.1554,7.0404,6.9054,6.9496,6.8587,6.7731,6.7548,6.8145,6.9605,7.2477,7.5314,7.8809,8.3354,8.898,9.2723,9.3159,9.3193,9.5405,10.0829,9.7971,9.822,10.3733,10.4053,10.4053,10.4053,10.3595,10.2897,10.2024,10.172,9.9289,0.0,0.0,0.0,0.0,0.0,0.0,0.0,0.0,0.0,0.0,0.0,0.0,0.0,0.0,0.0,0.0,0.0,0.0,0.0,0.0,0.0,0.0,0.0,0.0,0.0,0.0,0.0,5.3446,5.4989,0.0,0.0,0.0,0.0,5.5394,5.6506,5.8117,6.0283,6.0974,6.2351,6.4641,6.4719,6.4771,6.4927,6.4927,6.4927,6.4927,6.4927,6.4927,6.4927,6.4927,6.5263,6.5833,6.5833,6.6146,6.6588,6.5938,6.5027,6.4012,6.3934,6.2895,6.1774,6.3886,6.4667,6.5005,6.7392,6.8197,6.7834,6.5604,6.3471,6.2115,6.4068,6.3209,0.0,0.0,6.4328,6.5134,6.7027,6.7885,6.8811,7.1111,7.0017,6.9151,7.1789,6.941,6.7055,0.0,6.8171,6.7574,6.5911,0.0,6.5703,6.5677,7.0751,7.5179,7.6785,8.2427,8.6258,8.6265,8.6265,8.8429,9.3805,9.4261,9.6466,10.1729,10.2324,10.2445,10.2445,10.2293,10.0983,9.8407,9.7631,0.0,0.0,0.0,0.0,0.0,0.0,0.0,0.0,0.0,0.0,0.0,0.0,0.0,0.0,0.0,0.0,0.0,0.0,0.0,0.0,0.0,0.0,0.0,0.0,0.0,0.0,4.6824,4.8616,4.8772,5.0266,5.0915,0.0,0.0,0.0,0.0,0.0,0.0,5.6801,5.7056,5.8562,6.1633,6.1736,6.2772,6.4901,6.4927,6.4927,6.4927,6.4927,6.4927,6.4927,6.4927,6.5029,6.5185,6.5185,6.5522,6.5912,6.3624,6.2531,6.2164,6.089,6.011,5.985,6.0819,6.1182,6.1572,6.43,6.5235,6.5131,6.4535,6.3986,6.3206,6.165,0.0,0.0,0.0,0.0,6.2333,6.4951,6.573,6.6598,6.9693,6.9403,6.8842,7.0305,6.9221,6.7548,0.0,6.4795,6.3523,6.2227,0.0,0.0,0.0,0.0,6.8534,6.9344,7.5583,8.0038,8.0415,8.0475,8.2691,8.8253,8.8554,9.0789,9.6294,10.0294,10.2445,10.2445,10.0115,9.7009,9.3187,0.0,0.0,0.0,0.0,0.0,0.0,0.0,0.0,0.0,0.0,0.0,0.0,0.0,0.0,0.0,0.0,0.0,0.0,0.0,0.0,0.0,0.0,0.0,0.0,0.0,0.0,0.0,4.4338,4.6218,4.6936,4.7429,4.7645,0.0,0.0,0.0,0.0,0.0,0.0,0.0,0.0,0.0,5.8013,5.8307,5.9215,6.0825,6.2281,6.3058,6.306,6.433,6.4927,6.4927,6.4927,6.4927,6.4927,6.4927,6.4407,6.3471,6.1861,6.0013,5.8112,0.0,0.0,0.0,0.0,5.6891,5.7281,5.9835,6.0744,6.0588,5.962,0.0,0.0,0.0,0.0,0.0,0.0,0.0,0.0,0.0,0.0,6.7045,6.9393,6.9173,6.8712,6.9736,6.7177,6.4276,0.0,6.1938,6.0926,5.9738,0.0,0.0,0.0,0.0,6.4847,6.6172,7.0565,7.3674,7.3984,7.4012,7.621,8.1704,8.2031,8.4291,8.9712,9.5014,9.6458,9.3148,9.343,9.0324,0.0,0.0,0.0,0.0,0.0,0.0,0.0,0.0,0.0,0.0,0.0,0.0,0.0,0.0,0.0,0.0,0.0,0.0,0.0,0.0,0.0,0.0,0.0,0.0,0.0,0.0,0.0,0.0,0.0,4.4338,4.6045,0.0,0.0,0.0,0.0,0.0,0.0,0.0,0.0,0.0,0.0,0.0,0.0,0.0,5.4953,5.5264,5.8333,5.9868,5.9916,6.2486,6.3681,6.3681,6.3758,6.4018,6.433,6.3834,0.0,6.0491,5.9738,0.0,0.0,0.0,0.0,0.0,0.0,0.0,0.0,0.0,0.0,0.0,0.0,0.0,0.0,0.0,0.0,0.0,0.0,0.0,0.0,0.0,0.0,6.7587,6.8366,6.8306,6.8135,0.0,6.3821,5.9572,5.926,5.9208,0.0,0.0,0.0,0.0,0.0,0.0,0.0,6.5157,6.7158,6.8405,6.8405,6.8405,7.0296,7.4954,7.5982,7.831,8.2872,8.786,8.7674,8.1005,8.5503,0.0,0.0,0.0,0.0,0.0,0.0,0.0,0.0,0.0,0.0,0.0,0.0,0.0,0.0,0.0,0.0,0.0,0.0,0.0,0.0,0.0,0.0,0.0,0.0,0.0,0.0,0.0,0.0,0.0,0.0,0.0,0.0,0.0,0.0,0.0,0.0,0.0,0.0,0.0,0.0,0.0,0.0,0.0,0.0,0.0,0.0,0.0,0.0,0.0,0.0,5.6792,5.7238,5.7216,5.7688,5.9145,6.1191,5.8004,5.79,5.9627,5.4901,0.0,0.0,0.0,0.0,0.0,0.0,0.0,0.0,0.0,0.0,0.0,0.0,0.0,0.0,0.0,0.0,0.0,0.0,0.0,0.0,0.0,0.0,0.0,0.0,6.3642,6.5089,0.0,0.0,0.0,0.0,0.0,0.0,0.0,0.0,0.0,0.0,0.0,0.0,6.2899,6.6172,6.8405,6.8405,6.8405,6.8789,6.9735,7.3871,7.6786,7.7685,8.0949,8.1999,0.0,0.0,0.0,0.0,0.0,0.0,0.0,0.0,0.0,0.0,0.0,0.0,0.0,0.0,0.0,0.0,0.0,0.0,0.0,0.0,0.0,0.0,0.0,0.0,0.0,0.0,0.0,0.0,0.0,0.0,0.0,0.0,0.0,0.0,0.0,0.0,0.0,0.0,0.0,0.0,0.0,0.0,0.0,0.0,0.0,0.0,0.0,0.0,0.0,0.0,0.0,0.0,0.0,0.0,0.0,0.0,0.0,0.0,0.0,5.3324,0.0,0.0,0.0,0.0,0.0,0.0,0.0,0.0,0.0,0.0,0.0,0.0,0.0,0.0,0.0,0.0,0.0,0.0,0.0,0.0,0.0,0.0,0.0,0.0,0.0,0.0,0.0,0.0,0.0,0.0,0.0,0.0,0.0,0.0,0.0,0.0,0.0,0.0,0.0,0.0,6.2276,6.5912,6.8405,6.8405,6.8405,6.8405,6.8405,7.078,7.1727,7.0513,7.414,0.0,0.0,0.0,0.0,0.0,0.0,0.0,0.0,0.0,0.0,0.0,0.0,0.0,0.0,0.0,0.0,0.0,0.0,0.0,0.0,0.0,0.0,0.0,0.0,0.0,0.0,0.0,0.0,0.0,0.0,0.0,0.0,0.0,0.0,0.0,0.0,0.0,0.0,0.0,0.0,0.0,0.0,0.0,0.0,0.0,0.0,0.0,0.0,0.0,0.0,0.0,0.0,0.0,0.0,0.0,0.0,0.0,0.0,0.0,5.2447,0.0,0.0,0.0,0.0,0.0,0.0,0.0,0.0,0.0,0.0,0.0,0.0,0.0,0.0,0.0,0.0,0.0,0.0,0.0,0.0,0.0,0.0,0.0,0.0,0.0,0.0,0.0,0.0,0.0,0.0,0.0,0.0,0.0,0.0,0.0,0.0,0.0,0.0,0.0,0.0,0.0,6.1863,6.5652,6.8301,6.8405,6.8405,6.8405,6.8405,6.8405,6.7418,6.5082,6.7934,0.0,0.0,0.0,0.0,0.0,0.0,0.0,0.0,0.0,0.0,0.0,0.0,0.0,0.0,0.0,0.0,0.0,0.0,0.0,0.0,0.0,0.0,0.0,0.0,0.0,0.0,0.0,0.0,0.0,0.0,0.0,0.0,0.0,0.0,0.0,0.0,0.0,0.0,0.0,0.0,0.0,0.0,0.0,0.0,0.0,0.0,0.0,0.0,0.0,0.0,0.0,0.0,0.0,0.0,0.0,0.0,0.0,0.0,0.0,0.0,0.0,0.0,0.0,0.0,0.0,0.0,0.0,0.0,0.0,0.0,0.0,0.0,0.0,0.0,0.0,0.0,0.0,0.0,0.0,0.0,0.0,0.0,0.0,0.0,0.0,0.0,0.0,0.0,0.0,0.0,0.0,0.0,0.0,0.0,0.0,0.0,0.0,0.0,0.0,0.0,0.0,6.0595,6.4845,6.791,6.8353,6.8405,6.8405,6.8405,6.8405,6.7418,6.5082,0.0,0.0,0.0,0.0,0.0,0.0,0.0,0.0,0.0,0.0,0.0,0.0,0.0,0.0,0.0,0.0,0.0,0.0,0.0,0.0,0.0,0.0,0.0,0.0,0.0,0.0,0.0,0.0,0.0,0.0,0.0,0.0,0.0,0.0,0.0,0.0,0.0,0.0,0.0,0.0,0.0,0.0,0.0,0.0,0.0,0.0,0.0,0.0,0.0,0.0,0.0,0.0,0.0,0.0,0.0,0.0,0.0,0.0,0.0,0.0,0.0,0.0,0.0,0.0,0.0,0.0,0.0,0.0,0.0,0.0,0.0,0.0,0.0,0.0,0.0,0.0,0.0,0.0,0.0,0.0,0.0,0.0,0.0,0.0,0.0,0.0,0.0,0.0,0.0,0.0,0.0,0.0,0.0,0.0,0.0,0.0,0.0,0.0,0.0,0.0,0.0,0.0,6.0017,6.4224,6.7132,6.7366,6.7367,6.7367,6.7367,6.7367,6.5783,6.212,0.0,0.0,0.0,0.0,0.0,0.0,0.0,0.0,0.0,0.0,0.0,0.0,0.0,0.0,0.0,0.0,0.0,0.0,0.0,0.0,0.0,0.0,0.0,0.0,0.0,0.0,0.0,0.0,0.0,0.0,0.0,0.0,0.0,0.0,0.0,0.0,0.0,0.0,0.0,0.0,0.0,0.0,0.0,0.0,0.0,0.0,0.0,0.0,0.0,0.0,0.0,0.0,0.0,0.0,0.0,0.0,0.0,0.0,0.0,0.0,0.0,0.0,0.0,0.0,0.0,0.0,0.0,0.0,0.0,0.0,0.0,0.0,0.0,0.0,0.0,0.0,0.0,0.0,0.0,0.0,0.0,0.0,0.0,0.0,0.0,0.0,0.0,0.0,0.0,0.0,0.0,0.0,0.0,0.0,0.0,0.0,0.0,0.0,0.0,0.0,0.0,0.0,5.9468,6.3627,6.651,6.6666,6.6667,6.6667,6.6667,6.6667,6.4641,5.9958,0.0,0.0,0.0,0.0,0.0,0.0,0.0,0.0,0.0,0.0,0.0,0.0,0.0,0.0,0.0,0.0,0.0,0.0,0.0,0.0,0.0,0.0,0.0,0.0,0.0,0.0,0.0,0.0,0.0,0.0,0.0,0.0,0.0,0.0,0.0,0.0,0.0,0.0,0.0,0.0,0.0,0.0,0.0,0.0,0.0,0.0,0.0,0.0,0.0,0.0,0.0,0.0,0.0,0.0,0.0,0.0,0.0,0.0,0.0,0.0,0.0,0.0,0.0,0.0,0.0,0.0,0.0,0.0,0.0,0.0,0.0,0.0,0.0,0.0,0.0,0.0,0.0,0.0,0.0,0.0,0.0,0.0,0.0,0.0,0.0,0.0,0.0,0.0,0.0,0.0,0.0,0.0,0.0,0.0,0.0,0.0,0.0,0.0,0.0,0.0,0.0,0.0,5.8862,6.3076,6.6118,6.6615,6.6667,6.6667,6.6667,6.6667,6.451,0.0,0.0,0.0,0.0,0.0,0.0,0.0,0.0,0.0,0.0,0.0,0.0,0.0,0.0,0.0,0.0,0.0,0.0,0.0,0.0,0.0,0.0,0.0,0.0,0.0,0.0,0.0,0.0,0.0,0.0,0.0,0.0,0.0,0.0,0.0,0.0,0.0,0.0,0.0,0.0,0.0,0.0,0.0,0.0,0.0,0.0,0.0,0.0,0.0,0.0,0.0,0.0,0.0,0.0,0.0,0.0,0.0,0.0,0.0,0.0,0.0,0.0,0.0,0.0,0.0,0.0,0.0,0.0,0.0,0.0,0.0,0.0,0.0,0.0,0.0,0.0,0.0,0.0,0.0,0.0,0.0,0.0,0.0,0.0,0.0,0.0,0.0,0.0,0.0,0.0,0.0,0.0,0.0,0.0,0.0,0.0,0.0,0.0,0.0,0.0,0.0,0.0,0.0,5.7515,6.0867,6.3624,0.0,6.5472,6.5472,6.5472,6.5472,6.3315,5.8216,0.0,0.0,0.0,0.0,0.0,0.0,0.0,0.0,0.0,0.0,0.0,0.0,0.0,0.0,0.0,0.0,0.0,0.0,0.0,0.0,0.0,0.0,0.0,0.0,0.0,0.0,0.0,0.0,0.0,0.0,0.0,0.0,0.0,0.0,0.0,0.0,0.0,0.0,0.0,0.0,0.0,0.0,0.0,0.0,0.0,0.0,0.0,0.0,0.0,0.0,0.0,0.0,0.0,0.0,0.0,0.0,0.0,0.0,0.0,0.0,0.0,0.0,0.0,0.0,0.0,0.0,0.0,0.0,0.0,0.0,0.0,0.0,0.0,0.0,0.0,0.0,0.0,0.0,0.0,0.0,0.0,0.0,0.0,0.0,0.0,0.0,0.0,0.0,0.0,0.0,0.0,0.0,0.0,0.0,0.0,0.0,0.0,0.0,0.0,0.0,0.0,0.0,0.0,6.0559,6.3367,0.0,6.4927,6.4927,6.4927,6.4927,6.2642,5.7294,0.0,0.0,0.0,0.0,0.0,0.0,0.0,0.0,0.0,0.0,0.0,0.0,0.0,0.0,0.0,0.0,0.0,0.0,0.0,0.0,0.0,0.0,0.0,0.0,0.0,0.0,0.0,0.0,0.0,0.0,0.0,0.0,0.0,0.0,0.0,0.0,0.0,0.0,0.0,0.0,0.0,0.0,0.0,0.0,0.0,0.0,0.0,0.0,0.0,0.0,0.0,0.0,0.0,0.0,0.0,0.0,0.0,0.0,0.0,0.0,0.0,0.0,0.0,0.0,0.0,0.0,0.0,0.0,0.0,0.0,0.0,0.0,0.0,0.0,0.0,0.0,0.0,0.0,0.0,0.0,0.0,0.0,0.0,0.0,0.0,0.0,0.0,0.0,0.0,0.0,0.0,0.0,0.0,0.0,0.0,0.0,0.0,0.0,0.0,0.0,0.0,0.0,0.0,6.1419,6.4537,6.4875,6.4927,6.4927,6.4927,6.4927,6.2437,5.6681,5.5389,0.0,0.0,0.0,0.0,0.0,0.0,0.0,0.0,0.0,0.0,0.0,0.0,0.0,0.0,0.0,0.0,0.0,0.0,0.0,0.0,0.0,0.0,0.0,0.0,0.0,0.0,0.0,0.0,0.0,0.0,0.0,0.0,0.0,0.0,0.0,0.0,0.0,0.0,0.0,0.0,0.0,0.0,0.0,0.0,0.0,0.0,0.0,0.0,0.0,0.0,0.0,0.0,0.0,0.0,0.0,0.0,0.0,0.0,0.0,0.0,0.0,0.0,0.0,0.0,0.0,0.0,0.0,0.0,0.0,0.0,0.0,0.0,0.0,0.0,0.0,0.0,0.0,0.0,0.0,0.0,0.0,0.0,0.0,0.0,0.0,0.0,0.0,0.0,0.0,0.0,0.0,0.0,0.0,0.0,0.0,0.0,0.0,0.0,0.0,0.0,0.0,0.0,5.7835,6.0637,6.4511,6.4927,6.4927,6.4927,6.4927,6.2305,5.6157,5.515,0.0,0.0,0.0,0.0,0.0,0.0,0.0,0.0,0.0,0.0,0.0,0.0,0.0,0.0,0.0,0.0,0.0,0.0,0.0,0.0,0.0,0.0,0.0,0.0,0.0,0.0,0.0,0.0,0.0,0.0,0.0,0.0,0.0,0.0,0.0,0.0,0.0,0.0,0.0,0.0,0.0,0.0,0.0,0.0,0.0,0.0,0.0,0.0,0.0,0.0,0.0,0.0,0.0,0.0,0.0,0.0,0.0,0.0,0.0,0.0,0.0,0.0,0.0,0.0,0.0,0.0,0.0,0.0,0.0,0.0,0.0,0.0,0.0,0.0,0.0,0.0,0.0,0.0,0.0,0.0,0.0,0.0,0.0,0.0,0.0,0.0,0.0,0.0,0.0,0.0,0.0,0.0,0.0,0.0,0.0,0.0,0.0,0.0,0.0,0.0,0.0,0.0,5.5181,5.8692,6.433,6.4927,6.4927,6.4927,6.4927,6.2276,5.597,5.5092,0.0,0.0,0.0,0.0,0.0,0.0,0.0,0.0,0.0,0.0,0.0,0.0,0.0,0.0,0.0,0.0,0.0,0.0,0.0,0.0,0.0,0.0,0.0,0.0,0.0,0.0,0.0,0.0,0.0,0.0,0.0,0.0,0.0,0.0,0.0,0.0,0.0,0.0,0.0,0.0,0.0,0.0,0.0,0.0,0.0,0.0,0.0,0.0,0.0,0.0,0.0,0.0,0.0,0.0,0.0,0.0,0.0,0.0,0.0,0.0,0.0,0.0,0.0,0.0,0.0,0.0,0.0,0.0,0.0,0.0,0.0,0.0,0.0,0.0,0.0,0.0,0.0,0.0,0.0,0.0,0.0,0.0,0.0,0.0,0.0,0.0,0.0,0.0,0.0,0.0,0.0,0.0,0.0,0.0,0.0,0.0,0.0,0.0,0.0,0.0,0.0,0.0,0.0,5.755,6.2951,6.4356,6.4927,6.4927,6.4927,6.2201,5.5882,0.0,0.0,0.0,0.0,0.0,0.0,0.0,0.0,0.0,0.0,0.0,0.0,0.0,0.0,0.0,0.0,0.0,0.0,0.0,0.0,0.0,0.0,0.0,0.0,0.0,0.0,0.0,0.0,0.0,0.0,0.0,0.0,0.0,0.0,0.0,0.0,0.0,0.0,0.0,0.0,0.0,0.0,0.0,0.0,0.0,0.0,0.0,0.0,0.0,0.0,0.0,0.0,0.0,0.0,0.0,0.0,0.0,0.0,0.0,0.0,0.0,0.0,0.0,0.0,0.0,0.0,0.0,0.0,0.0,0.0,0.0,0.0,0.0,0.0,0.0,0.0,0.0,0.0,0.0,0.0,0.0,0.0,0.0,0.0,0.0,0.0,0.0,0.0,0.0,0.0,0.0,0.0,0.0,0.0,0.0,0.0,0.0,0.0,0.0,0.0,0.0,0.0,0.0,0.0,0.0,5.6879,6.1783,6.4927,6.4927,6.4927,6.2068,5.5347,0.0,0.0,0.0,0.0,0.0,0.0,0.0,0.0,0.0,0.0,0.0,0.0,0.0,0.0]}]]]